<?xml version="1.0" encoding="UTF-8" standalone="no" ?>
<gpx xmlns="http://www.topografix.com/GPX/1/1" xmlns:xsi="http://www.w3.org/2001/XMLSchema-instance" xsi:schemaLocation="http://www.topografix.com/GPX/1/1 http://www.topografix.com/GPX/1/1/gpx.xsd" version="1.1" creator="VisuGPX - https://www.visugpx.com">
  <metadata>
    <name>GENEVE CURRENT TRACK- 29 JAN 2022 11-08</name>
    <desc><![CDATA[GENEVE CURRENT TRACK- 29 JAN 2022 11-08
]]></desc>
  </metadata>
  <trk>
    <name><![CDATA[CURRENT TRACK- 29 JAN 2022 11-08]]></name>
    <trkseg>
      <trkpt lat="46.26827" lon="6.25785">
        <ele>267</ele>
        <time>2022-01-29T11:08:01Z</time>
      </trkpt>
      <trkpt lat="46.26826" lon="6.25778">
        <ele>267</ele>
        <time>2022-01-29T11:14:32Z</time>
      </trkpt>
      <trkpt lat="46.26832" lon="6.25751">
        <ele>267</ele>
        <time>2022-01-29T11:14:47Z</time>
      </trkpt>
      <trkpt lat="46.26839" lon="6.25726">
        <ele>267</ele>
        <time>2022-01-29T11:14:59Z</time>
      </trkpt>
      <trkpt lat="46.26831" lon="6.25699">
        <ele>267</ele>
        <time>2022-01-29T11:15:04Z</time>
      </trkpt>
      <trkpt lat="46.26824" lon="6.25671">
        <ele>267</ele>
        <time>2022-01-29T11:15:09Z</time>
      </trkpt>
      <trkpt lat="46.26831" lon="6.25641">
        <ele>267</ele>
        <time>2022-01-29T11:15:15Z</time>
      </trkpt>
      <trkpt lat="46.2684" lon="6.25614">
        <ele>267</ele>
        <time>2022-01-29T11:15:20Z</time>
      </trkpt>
      <trkpt lat="46.26842" lon="6.25586">
        <ele>267</ele>
        <time>2022-01-29T11:15:26Z</time>
      </trkpt>
      <trkpt lat="46.26834" lon="6.25565">
        <ele>267</ele>
        <time>2022-01-29T11:15:42Z</time>
      </trkpt>
      <trkpt lat="46.26814" lon="6.25554">
        <ele>267</ele>
        <time>2022-01-29T11:15:48Z</time>
      </trkpt>
      <trkpt lat="46.26797" lon="6.25543">
        <ele>267</ele>
        <time>2022-01-29T11:15:53Z</time>
      </trkpt>
      <trkpt lat="46.26782" lon="6.25528">
        <ele>267</ele>
        <time>2022-01-29T11:15:58Z</time>
      </trkpt>
      <trkpt lat="46.26769" lon="6.25507">
        <ele>267</ele>
        <time>2022-01-29T11:16:03Z</time>
      </trkpt>
      <trkpt lat="46.26758" lon="6.25485">
        <ele>267</ele>
        <time>2022-01-29T11:16:08Z</time>
      </trkpt>
      <trkpt lat="46.26745" lon="6.25462">
        <ele>267</ele>
        <time>2022-01-29T11:16:14Z</time>
      </trkpt>
      <trkpt lat="46.26732" lon="6.25439">
        <ele>267</ele>
        <time>2022-01-29T11:16:20Z</time>
      </trkpt>
      <trkpt lat="46.26717" lon="6.2542">
        <ele>267</ele>
        <time>2022-01-29T11:16:26Z</time>
      </trkpt>
      <trkpt lat="46.267" lon="6.25405">
        <ele>267</ele>
        <time>2022-01-29T11:16:32Z</time>
      </trkpt>
      <trkpt lat="46.26683" lon="6.2539">
        <ele>267</ele>
        <time>2022-01-29T11:16:38Z</time>
      </trkpt>
      <trkpt lat="46.26666" lon="6.25376">
        <ele>267</ele>
        <time>2022-01-29T11:16:45Z</time>
      </trkpt>
      <trkpt lat="46.26649" lon="6.25361">
        <ele>267</ele>
        <time>2022-01-29T11:16:51Z</time>
      </trkpt>
      <trkpt lat="46.26631" lon="6.25345">
        <ele>267</ele>
        <time>2022-01-29T11:16:57Z</time>
      </trkpt>
      <trkpt lat="46.26616" lon="6.2533">
        <ele>267</ele>
        <time>2022-01-29T11:17:03Z</time>
      </trkpt>
      <trkpt lat="46.26598" lon="6.25314">
        <ele>267</ele>
        <time>2022-01-29T11:17:09Z</time>
      </trkpt>
      <trkpt lat="46.26582" lon="6.25299">
        <ele>270.35</ele>
        <time>2022-01-29T11:17:14Z</time>
      </trkpt>
      <trkpt lat="46.26566" lon="6.25283">
        <ele>270.43</ele>
        <time>2022-01-29T11:17:20Z</time>
      </trkpt>
      <trkpt lat="46.26549" lon="6.25272">
        <ele>270.85</ele>
        <time>2022-01-29T11:17:27Z</time>
      </trkpt>
      <trkpt lat="46.26531" lon="6.25263">
        <ele>271.47</ele>
        <time>2022-01-29T11:17:33Z</time>
      </trkpt>
      <trkpt lat="46.26512" lon="6.25262">
        <ele>283.6</ele>
        <time>2022-01-29T11:20:17Z</time>
      </trkpt>
      <trkpt lat="46.26492" lon="6.25259">
        <ele>283.6</ele>
        <time>2022-01-29T11:20:23Z</time>
      </trkpt>
      <trkpt lat="46.26471" lon="6.25248">
        <ele>283.6</ele>
        <time>2022-01-29T11:20:29Z</time>
      </trkpt>
      <trkpt lat="46.2646" lon="6.25226">
        <ele>283.6</ele>
        <time>2022-01-29T11:20:33Z</time>
      </trkpt>
      <trkpt lat="46.2646" lon="6.25198">
        <ele>283.6</ele>
        <time>2022-01-29T11:20:37Z</time>
      </trkpt>
      <trkpt lat="46.26466" lon="6.25172">
        <ele>283.6</ele>
        <time>2022-01-29T11:20:41Z</time>
      </trkpt>
      <trkpt lat="46.26478" lon="6.25145">
        <ele>283.6</ele>
        <time>2022-01-29T11:20:46Z</time>
      </trkpt>
      <trkpt lat="46.2649" lon="6.2512">
        <ele>283.6</ele>
        <time>2022-01-29T11:20:51Z</time>
      </trkpt>
      <trkpt lat="46.26502" lon="6.25095">
        <ele>283.6</ele>
        <time>2022-01-29T11:20:56Z</time>
      </trkpt>
      <trkpt lat="46.26513" lon="6.25073">
        <ele>283.6</ele>
        <time>2022-01-29T11:21:00Z</time>
      </trkpt>
      <trkpt lat="46.26524" lon="6.25051">
        <ele>283.6</ele>
        <time>2022-01-29T11:21:04Z</time>
      </trkpt>
      <trkpt lat="46.26537" lon="6.25024">
        <ele>283.6</ele>
        <time>2022-01-29T11:21:09Z</time>
      </trkpt>
      <trkpt lat="46.26548" lon="6.25001">
        <ele>283.6</ele>
        <time>2022-01-29T11:21:13Z</time>
      </trkpt>
      <trkpt lat="46.2656" lon="6.24976">
        <ele>283.6</ele>
        <time>2022-01-29T11:21:17Z</time>
      </trkpt>
      <trkpt lat="46.26573" lon="6.24951">
        <ele>283.6</ele>
        <time>2022-01-29T11:21:21Z</time>
      </trkpt>
      <trkpt lat="46.26585" lon="6.24927">
        <ele>283.6</ele>
        <time>2022-01-29T11:21:25Z</time>
      </trkpt>
      <trkpt lat="46.26595" lon="6.24903">
        <ele>283.6</ele>
        <time>2022-01-29T11:21:29Z</time>
      </trkpt>
      <trkpt lat="46.26605" lon="6.2488">
        <ele>283.6</ele>
        <time>2022-01-29T11:21:33Z</time>
      </trkpt>
      <trkpt lat="46.26613" lon="6.24853">
        <ele>283.6</ele>
        <time>2022-01-29T11:21:37Z</time>
      </trkpt>
      <trkpt lat="46.2662" lon="6.24828">
        <ele>283.6</ele>
        <time>2022-01-29T11:21:41Z</time>
      </trkpt>
      <trkpt lat="46.26617" lon="6.24835">
        <ele>283.6</ele>
        <time>2022-01-29T11:21:50Z</time>
      </trkpt>
      <trkpt lat="46.26607" lon="6.24863">
        <ele>283.6</ele>
        <time>2022-01-29T11:21:56Z</time>
      </trkpt>
      <trkpt lat="46.26597" lon="6.24891">
        <ele>283.6</ele>
        <time>2022-01-29T11:22:01Z</time>
      </trkpt>
      <trkpt lat="46.26586" lon="6.24913">
        <ele>283.6</ele>
        <time>2022-01-29T11:22:05Z</time>
      </trkpt>
      <trkpt lat="46.26575" lon="6.24935">
        <ele>283.6</ele>
        <time>2022-01-29T11:22:09Z</time>
      </trkpt>
      <trkpt lat="46.26564" lon="6.24961">
        <ele>283.6</ele>
        <time>2022-01-29T11:22:14Z</time>
      </trkpt>
      <trkpt lat="46.26553" lon="6.24986">
        <ele>281.05</ele>
        <time>2022-01-29T11:22:19Z</time>
      </trkpt>
      <trkpt lat="46.26542" lon="6.2501">
        <ele>281.55</ele>
        <time>2022-01-29T11:22:24Z</time>
      </trkpt>
      <trkpt lat="46.2653" lon="6.25034">
        <ele>281.92</ele>
        <time>2022-01-29T11:22:29Z</time>
      </trkpt>
      <trkpt lat="46.26518" lon="6.25059">
        <ele>282.85</ele>
        <time>2022-01-29T11:22:34Z</time>
      </trkpt>
      <trkpt lat="46.26507" lon="6.25081">
        <ele>283.59</ele>
        <time>2022-01-29T11:22:39Z</time>
      </trkpt>
      <trkpt lat="46.26495" lon="6.25105">
        <ele>284.64</ele>
        <time>2022-01-29T11:22:45Z</time>
      </trkpt>
      <trkpt lat="46.26485" lon="6.25126">
        <ele>285.41</ele>
        <time>2022-01-29T11:22:50Z</time>
      </trkpt>
      <trkpt lat="46.26473" lon="6.25152">
        <ele>286.53</ele>
        <time>2022-01-29T11:22:56Z</time>
      </trkpt>
      <trkpt lat="46.26462" lon="6.25178">
        <ele>287.72</ele>
        <time>2022-01-29T11:23:02Z</time>
      </trkpt>
      <trkpt lat="46.26453" lon="6.25205">
        <ele>288.73</ele>
        <time>2022-01-29T11:23:08Z</time>
      </trkpt>
      <trkpt lat="46.2644" lon="6.2522">
        <ele>289.52</ele>
        <time>2022-01-29T11:23:14Z</time>
      </trkpt>
      <trkpt lat="46.26424" lon="6.25201">
        <ele>290.26</ele>
        <time>2022-01-29T11:23:20Z</time>
      </trkpt>
      <trkpt lat="46.26411" lon="6.25177">
        <ele>290.78</ele>
        <time>2022-01-29T11:23:25Z</time>
      </trkpt>
      <trkpt lat="46.264" lon="6.25153">
        <ele>291.27</ele>
        <time>2022-01-29T11:23:30Z</time>
      </trkpt>
      <trkpt lat="46.26388" lon="6.25131">
        <ele>291.92</ele>
        <time>2022-01-29T11:23:35Z</time>
      </trkpt>
      <trkpt lat="46.26375" lon="6.25109">
        <ele>292.58</ele>
        <time>2022-01-29T11:23:40Z</time>
      </trkpt>
      <trkpt lat="46.26362" lon="6.25089">
        <ele>293.22</ele>
        <time>2022-01-29T11:23:45Z</time>
      </trkpt>
      <trkpt lat="46.26348" lon="6.25072">
        <ele>293.9</ele>
        <time>2022-01-29T11:23:51Z</time>
      </trkpt>
      <trkpt lat="46.26333" lon="6.25055">
        <ele>294.47</ele>
        <time>2022-01-29T11:23:56Z</time>
      </trkpt>
      <trkpt lat="46.26315" lon="6.25037">
        <ele>295.11</ele>
        <time>2022-01-29T11:24:01Z</time>
      </trkpt>
      <trkpt lat="46.26298" lon="6.25017">
        <ele>295.48</ele>
        <time>2022-01-29T11:24:06Z</time>
      </trkpt>
      <trkpt lat="46.26284" lon="6.25">
        <ele>295.96</ele>
        <time>2022-01-29T11:24:11Z</time>
      </trkpt>
      <trkpt lat="46.26268" lon="6.2498">
        <ele>296.38</ele>
        <time>2022-01-29T11:24:17Z</time>
      </trkpt>
      <trkpt lat="46.26256" lon="6.24955">
        <ele>296.77</ele>
        <time>2022-01-29T11:24:22Z</time>
      </trkpt>
      <trkpt lat="46.26246" lon="6.24933">
        <ele>296.77</ele>
        <time>2022-01-29T11:24:26Z</time>
      </trkpt>
      <trkpt lat="46.26234" lon="6.2491">
        <ele>296.77</ele>
        <time>2022-01-29T11:24:30Z</time>
      </trkpt>
      <trkpt lat="46.2622" lon="6.24886">
        <ele>296.77</ele>
        <time>2022-01-29T11:24:34Z</time>
      </trkpt>
      <trkpt lat="46.26205" lon="6.24861">
        <ele>296.77</ele>
        <time>2022-01-29T11:24:38Z</time>
      </trkpt>
      <trkpt lat="46.2619" lon="6.24838">
        <ele>296.77</ele>
        <time>2022-01-29T11:24:42Z</time>
      </trkpt>
      <trkpt lat="46.26176" lon="6.24818">
        <ele>296.77</ele>
        <time>2022-01-29T11:24:46Z</time>
      </trkpt>
      <trkpt lat="46.26161" lon="6.24797">
        <ele>296.77</ele>
        <time>2022-01-29T11:24:51Z</time>
      </trkpt>
      <trkpt lat="46.26149" lon="6.24776">
        <ele>296.77</ele>
        <time>2022-01-29T11:24:56Z</time>
      </trkpt>
      <trkpt lat="46.2615" lon="6.24744">
        <ele>296.77</ele>
        <time>2022-01-29T11:25:01Z</time>
      </trkpt>
      <trkpt lat="46.26154" lon="6.24716">
        <ele>296.77</ele>
        <time>2022-01-29T11:25:05Z</time>
      </trkpt>
      <trkpt lat="46.2615" lon="6.24687">
        <ele>296.77</ele>
        <time>2022-01-29T11:25:09Z</time>
      </trkpt>
      <trkpt lat="46.26138" lon="6.24664">
        <ele>296.77</ele>
        <time>2022-01-29T11:25:14Z</time>
      </trkpt>
      <trkpt lat="46.26122" lon="6.24642">
        <ele>296.77</ele>
        <time>2022-01-29T11:25:20Z</time>
      </trkpt>
      <trkpt lat="46.26107" lon="6.2462">
        <ele>296.77</ele>
        <time>2022-01-29T11:25:25Z</time>
      </trkpt>
      <trkpt lat="46.26097" lon="6.24595">
        <ele>296.77</ele>
        <time>2022-01-29T11:25:30Z</time>
      </trkpt>
      <trkpt lat="46.26088" lon="6.24569">
        <ele>296.77</ele>
        <time>2022-01-29T11:25:35Z</time>
      </trkpt>
      <trkpt lat="46.26081" lon="6.24545">
        <ele>296.77</ele>
        <time>2022-01-29T11:25:40Z</time>
      </trkpt>
      <trkpt lat="46.26072" lon="6.24518">
        <ele>296.77</ele>
        <time>2022-01-29T11:25:45Z</time>
      </trkpt>
      <trkpt lat="46.26059" lon="6.24492">
        <ele>296.77</ele>
        <time>2022-01-29T11:25:50Z</time>
      </trkpt>
      <trkpt lat="46.26045" lon="6.24472">
        <ele>296.77</ele>
        <time>2022-01-29T11:25:56Z</time>
      </trkpt>
      <trkpt lat="46.26033" lon="6.24452">
        <ele>296.77</ele>
        <time>2022-01-29T11:26:01Z</time>
      </trkpt>
      <trkpt lat="46.26017" lon="6.24429">
        <ele>296.77</ele>
        <time>2022-01-29T11:26:06Z</time>
      </trkpt>
      <trkpt lat="46.26006" lon="6.24408">
        <ele>296.77</ele>
        <time>2022-01-29T11:26:10Z</time>
      </trkpt>
      <trkpt lat="46.25999" lon="6.24383">
        <ele>296.77</ele>
        <time>2022-01-29T11:26:15Z</time>
      </trkpt>
      <trkpt lat="46.25992" lon="6.24359">
        <ele>296.77</ele>
        <time>2022-01-29T11:26:21Z</time>
      </trkpt>
      <trkpt lat="46.25984" lon="6.24332">
        <ele>296.77</ele>
        <time>2022-01-29T11:26:27Z</time>
      </trkpt>
      <trkpt lat="46.25976" lon="6.24307">
        <ele>296.77</ele>
        <time>2022-01-29T11:26:32Z</time>
      </trkpt>
      <trkpt lat="46.25973" lon="6.24282">
        <ele>296.77</ele>
        <time>2022-01-29T11:26:37Z</time>
      </trkpt>
      <trkpt lat="46.25968" lon="6.24251">
        <ele>296.77</ele>
        <time>2022-01-29T11:26:43Z</time>
      </trkpt>
      <trkpt lat="46.25965" lon="6.24225">
        <ele>296.77</ele>
        <time>2022-01-29T11:26:48Z</time>
      </trkpt>
      <trkpt lat="46.25961" lon="6.24197">
        <ele>296.77</ele>
        <time>2022-01-29T11:26:55Z</time>
      </trkpt>
      <trkpt lat="46.2596" lon="6.24168">
        <ele>296.77</ele>
        <time>2022-01-29T11:27:02Z</time>
      </trkpt>
      <trkpt lat="46.25961" lon="6.24141">
        <ele>296.77</ele>
        <time>2022-01-29T11:27:09Z</time>
      </trkpt>
      <trkpt lat="46.25964" lon="6.24114">
        <ele>299.51</ele>
        <time>2022-01-29T11:28:54Z</time>
      </trkpt>
      <trkpt lat="46.2597" lon="6.24087">
        <ele>299.51</ele>
        <time>2022-01-29T11:29:03Z</time>
      </trkpt>
      <trkpt lat="46.25976" lon="6.24058">
        <ele>299.51</ele>
        <time>2022-01-29T11:29:09Z</time>
      </trkpt>
      <trkpt lat="46.25982" lon="6.2403">
        <ele>299.51</ele>
        <time>2022-01-29T11:29:14Z</time>
      </trkpt>
      <trkpt lat="46.25989" lon="6.23999">
        <ele>299.51</ele>
        <time>2022-01-29T11:29:19Z</time>
      </trkpt>
      <trkpt lat="46.25996" lon="6.2397">
        <ele>299.51</ele>
        <time>2022-01-29T11:29:24Z</time>
      </trkpt>
      <trkpt lat="46.26003" lon="6.23944">
        <ele>299.51</ele>
        <time>2022-01-29T11:29:30Z</time>
      </trkpt>
      <trkpt lat="46.26012" lon="6.23917">
        <ele>299.51</ele>
        <time>2022-01-29T11:29:36Z</time>
      </trkpt>
      <trkpt lat="46.26022" lon="6.23892">
        <ele>299.51</ele>
        <time>2022-01-29T11:29:42Z</time>
      </trkpt>
      <trkpt lat="46.26022" lon="6.23866">
        <ele>299.51</ele>
        <time>2022-01-29T11:29:51Z</time>
      </trkpt>
      <trkpt lat="46.26029" lon="6.2386">
        <ele>299.51</ele>
        <time>2022-01-29T11:30:13Z</time>
      </trkpt>
      <trkpt lat="46.26035" lon="6.23833">
        <ele>299.51</ele>
        <time>2022-01-29T11:30:19Z</time>
      </trkpt>
      <trkpt lat="46.26042" lon="6.23805">
        <ele>299.51</ele>
        <time>2022-01-29T11:30:25Z</time>
      </trkpt>
      <trkpt lat="46.26046" lon="6.23777">
        <ele>299.51</ele>
        <time>2022-01-29T11:30:31Z</time>
      </trkpt>
      <trkpt lat="46.26048" lon="6.23745">
        <ele>299.51</ele>
        <time>2022-01-29T11:30:38Z</time>
      </trkpt>
      <trkpt lat="46.26049" lon="6.23718">
        <ele>299.51</ele>
        <time>2022-01-29T11:30:43Z</time>
      </trkpt>
      <trkpt lat="46.26052" lon="6.23692">
        <ele>299.51</ele>
        <time>2022-01-29T11:30:49Z</time>
      </trkpt>
      <trkpt lat="46.26053" lon="6.23662">
        <ele>299.51</ele>
        <time>2022-01-29T11:30:58Z</time>
      </trkpt>
      <trkpt lat="46.26051" lon="6.23632">
        <ele>299.51</ele>
        <time>2022-01-29T11:31:04Z</time>
      </trkpt>
      <trkpt lat="46.26049" lon="6.23607">
        <ele>299.51</ele>
        <time>2022-01-29T11:31:32Z</time>
      </trkpt>
      <trkpt lat="46.26045" lon="6.23579">
        <ele>299.51</ele>
        <time>2022-01-29T11:31:59Z</time>
      </trkpt>
      <trkpt lat="46.26045" lon="6.23549">
        <ele>299.51</ele>
        <time>2022-01-29T11:32:52Z</time>
      </trkpt>
      <trkpt lat="46.26043" lon="6.23522">
        <ele>299.51</ele>
        <time>2022-01-29T11:32:57Z</time>
      </trkpt>
      <trkpt lat="46.26042" lon="6.23492">
        <ele>299.51</ele>
        <time>2022-01-29T11:33:04Z</time>
      </trkpt>
      <trkpt lat="46.26043" lon="6.23465">
        <ele>299.51</ele>
        <time>2022-01-29T11:33:10Z</time>
      </trkpt>
      <trkpt lat="46.26045" lon="6.23436">
        <ele>299.51</ele>
        <time>2022-01-29T11:33:16Z</time>
      </trkpt>
      <trkpt lat="46.26049" lon="6.23408">
        <ele>299.51</ele>
        <time>2022-01-29T11:33:22Z</time>
      </trkpt>
      <trkpt lat="46.26056" lon="6.2338">
        <ele>299.51</ele>
        <time>2022-01-29T11:33:29Z</time>
      </trkpt>
      <trkpt lat="46.26066" lon="6.23353">
        <ele>299.51</ele>
        <time>2022-01-29T11:33:37Z</time>
      </trkpt>
      <trkpt lat="46.26077" lon="6.23329">
        <ele>299.51</ele>
        <time>2022-01-29T11:33:42Z</time>
      </trkpt>
      <trkpt lat="46.26087" lon="6.23305">
        <ele>299.51</ele>
        <time>2022-01-29T11:33:46Z</time>
      </trkpt>
      <trkpt lat="46.26102" lon="6.23282">
        <ele>299.51</ele>
        <time>2022-01-29T11:33:51Z</time>
      </trkpt>
      <trkpt lat="46.26114" lon="6.23259">
        <ele>299.51</ele>
        <time>2022-01-29T11:33:56Z</time>
      </trkpt>
      <trkpt lat="46.26125" lon="6.23237">
        <ele>299.51</ele>
        <time>2022-01-29T11:34:01Z</time>
      </trkpt>
      <trkpt lat="46.26137" lon="6.23215">
        <ele>299.51</ele>
        <time>2022-01-29T11:34:06Z</time>
      </trkpt>
      <trkpt lat="46.26151" lon="6.23194">
        <ele>299.51</ele>
        <time>2022-01-29T11:34:12Z</time>
      </trkpt>
      <trkpt lat="46.26164" lon="6.2317">
        <ele>299.51</ele>
        <time>2022-01-29T11:34:19Z</time>
      </trkpt>
      <trkpt lat="46.26175" lon="6.23145">
        <ele>299.51</ele>
        <time>2022-01-29T11:34:25Z</time>
      </trkpt>
      <trkpt lat="46.26186" lon="6.23121">
        <ele>299.51</ele>
        <time>2022-01-29T11:34:31Z</time>
      </trkpt>
      <trkpt lat="46.26181" lon="6.23096">
        <ele>299.51</ele>
        <time>2022-01-29T11:34:37Z</time>
      </trkpt>
      <trkpt lat="46.26179" lon="6.23073">
        <ele>299.51</ele>
        <time>2022-01-29T11:34:48Z</time>
      </trkpt>
      <trkpt lat="46.26177" lon="6.23042">
        <ele>299.51</ele>
        <time>2022-01-29T11:34:54Z</time>
      </trkpt>
      <trkpt lat="46.2617" lon="6.23012">
        <ele>299.51</ele>
        <time>2022-01-29T11:34:59Z</time>
      </trkpt>
      <trkpt lat="46.26165" lon="6.22983">
        <ele>299.51</ele>
        <time>2022-01-29T11:35:04Z</time>
      </trkpt>
      <trkpt lat="46.26161" lon="6.22958">
        <ele>299.51</ele>
        <time>2022-01-29T11:35:09Z</time>
      </trkpt>
      <trkpt lat="46.26156" lon="6.22928">
        <ele>299.51</ele>
        <time>2022-01-29T11:35:14Z</time>
      </trkpt>
      <trkpt lat="46.26155" lon="6.22899">
        <ele>299.51</ele>
        <time>2022-01-29T11:35:19Z</time>
      </trkpt>
      <trkpt lat="46.26158" lon="6.22871">
        <ele>299.51</ele>
        <time>2022-01-29T11:35:24Z</time>
      </trkpt>
      <trkpt lat="46.26163" lon="6.22844">
        <ele>299.51</ele>
        <time>2022-01-29T11:35:29Z</time>
      </trkpt>
      <trkpt lat="46.26172" lon="6.22815">
        <ele>299.51</ele>
        <time>2022-01-29T11:35:34Z</time>
      </trkpt>
      <trkpt lat="46.26181" lon="6.22792">
        <ele>299.51</ele>
        <time>2022-01-29T11:35:38Z</time>
      </trkpt>
      <trkpt lat="46.2619" lon="6.22766">
        <ele>299.51</ele>
        <time>2022-01-29T11:35:43Z</time>
      </trkpt>
      <trkpt lat="46.26199" lon="6.22742">
        <ele>299.51</ele>
        <time>2022-01-29T11:35:48Z</time>
      </trkpt>
      <trkpt lat="46.26208" lon="6.22715">
        <ele>299.51</ele>
        <time>2022-01-29T11:35:54Z</time>
      </trkpt>
      <trkpt lat="46.26216" lon="6.22691">
        <ele>299.51</ele>
        <time>2022-01-29T11:35:59Z</time>
      </trkpt>
      <trkpt lat="46.26224" lon="6.22662">
        <ele>299.51</ele>
        <time>2022-01-29T11:36:05Z</time>
      </trkpt>
      <trkpt lat="46.26231" lon="6.22636">
        <ele>299.51</ele>
        <time>2022-01-29T11:36:11Z</time>
      </trkpt>
      <trkpt lat="46.26237" lon="6.22608">
        <ele>299.51</ele>
        <time>2022-01-29T11:36:19Z</time>
      </trkpt>
      <trkpt lat="46.26247" lon="6.22586">
        <ele>299.51</ele>
        <time>2022-01-29T11:36:26Z</time>
      </trkpt>
      <trkpt lat="46.26256" lon="6.22558">
        <ele>299.51</ele>
        <time>2022-01-29T11:36:32Z</time>
      </trkpt>
      <trkpt lat="46.26262" lon="6.22533">
        <ele>304.15</ele>
        <time>2022-01-29T11:36:37Z</time>
      </trkpt>
      <trkpt lat="46.26267" lon="6.22506">
        <ele>304.2</ele>
        <time>2022-01-29T11:36:42Z</time>
      </trkpt>
      <trkpt lat="46.26266" lon="6.22477">
        <ele>304.18</ele>
        <time>2022-01-29T11:36:47Z</time>
      </trkpt>
      <trkpt lat="46.26272" lon="6.22449">
        <ele>304.13</ele>
        <time>2022-01-29T11:36:52Z</time>
      </trkpt>
      <trkpt lat="46.2628" lon="6.22423">
        <ele>304.26</ele>
        <time>2022-01-29T11:36:58Z</time>
      </trkpt>
      <trkpt lat="46.26293" lon="6.22401">
        <ele>304.91</ele>
        <time>2022-01-29T11:37:06Z</time>
      </trkpt>
      <trkpt lat="46.263" lon="6.22377">
        <ele>305.96</ele>
        <time>2022-01-29T11:37:14Z</time>
      </trkpt>
      <trkpt lat="46.26286" lon="6.2236">
        <ele>306.82</ele>
        <time>2022-01-29T11:37:21Z</time>
      </trkpt>
      <trkpt lat="46.26293" lon="6.22335">
        <ele>307.76</ele>
        <time>2022-01-29T11:37:28Z</time>
      </trkpt>
      <trkpt lat="46.26305" lon="6.22309">
        <ele>309.32</ele>
        <time>2022-01-29T11:37:34Z</time>
      </trkpt>
      <trkpt lat="46.26312" lon="6.22284">
        <ele>309.32</ele>
        <time>2022-01-29T11:37:40Z</time>
      </trkpt>
      <trkpt lat="46.26298" lon="6.22267">
        <ele>309.32</ele>
        <time>2022-01-29T11:37:48Z</time>
      </trkpt>
      <trkpt lat="46.2628" lon="6.2225">
        <ele>309.32</ele>
        <time>2022-01-29T11:37:55Z</time>
      </trkpt>
      <trkpt lat="46.26262" lon="6.22235">
        <ele>309.32</ele>
        <time>2022-01-29T11:38:01Z</time>
      </trkpt>
      <trkpt lat="46.26246" lon="6.22215">
        <ele>309.32</ele>
        <time>2022-01-29T11:38:07Z</time>
      </trkpt>
      <trkpt lat="46.26232" lon="6.22197">
        <ele>309.32</ele>
        <time>2022-01-29T11:38:13Z</time>
      </trkpt>
      <trkpt lat="46.26216" lon="6.22176">
        <ele>309.32</ele>
        <time>2022-01-29T11:38:18Z</time>
      </trkpt>
      <trkpt lat="46.26199" lon="6.22161">
        <ele>309.32</ele>
        <time>2022-01-29T11:38:22Z</time>
      </trkpt>
      <trkpt lat="46.2618" lon="6.22149">
        <ele>309.32</ele>
        <time>2022-01-29T11:38:26Z</time>
      </trkpt>
      <trkpt lat="46.26163" lon="6.22137">
        <ele>309.32</ele>
        <time>2022-01-29T11:38:30Z</time>
      </trkpt>
      <trkpt lat="46.26144" lon="6.22123">
        <ele>309.32</ele>
        <time>2022-01-29T11:38:35Z</time>
      </trkpt>
      <trkpt lat="46.26124" lon="6.22106">
        <ele>309.32</ele>
        <time>2022-01-29T11:38:40Z</time>
      </trkpt>
      <trkpt lat="46.26105" lon="6.2209">
        <ele>309.32</ele>
        <time>2022-01-29T11:38:44Z</time>
      </trkpt>
      <trkpt lat="46.26089" lon="6.22072">
        <ele>309.32</ele>
        <time>2022-01-29T11:38:48Z</time>
      </trkpt>
      <trkpt lat="46.26074" lon="6.22053">
        <ele>309.32</ele>
        <time>2022-01-29T11:38:52Z</time>
      </trkpt>
      <trkpt lat="46.26059" lon="6.22035">
        <ele>309.32</ele>
        <time>2022-01-29T11:38:56Z</time>
      </trkpt>
      <trkpt lat="46.26043" lon="6.22024">
        <ele>309.32</ele>
        <time>2022-01-29T11:39:00Z</time>
      </trkpt>
      <trkpt lat="46.26024" lon="6.22015">
        <ele>309.32</ele>
        <time>2022-01-29T11:39:05Z</time>
      </trkpt>
      <trkpt lat="46.26005" lon="6.22008">
        <ele>309.32</ele>
        <time>2022-01-29T11:39:10Z</time>
      </trkpt>
      <trkpt lat="46.25986" lon="6.21998">
        <ele>309.32</ele>
        <time>2022-01-29T11:39:15Z</time>
      </trkpt>
      <trkpt lat="46.25965" lon="6.21984">
        <ele>309.32</ele>
        <time>2022-01-29T11:39:20Z</time>
      </trkpt>
      <trkpt lat="46.25947" lon="6.2197">
        <ele>309.32</ele>
        <time>2022-01-29T11:39:24Z</time>
      </trkpt>
      <trkpt lat="46.25931" lon="6.21958">
        <ele>309.32</ele>
        <time>2022-01-29T11:39:28Z</time>
      </trkpt>
      <trkpt lat="46.25913" lon="6.21943">
        <ele>309.32</ele>
        <time>2022-01-29T11:39:33Z</time>
      </trkpt>
      <trkpt lat="46.25893" lon="6.21929">
        <ele>306.74</ele>
        <time>2022-01-29T11:39:38Z</time>
      </trkpt>
      <trkpt lat="46.25873" lon="6.21919">
        <ele>306.89</ele>
        <time>2022-01-29T11:39:43Z</time>
      </trkpt>
      <trkpt lat="46.25855" lon="6.21912">
        <ele>307.17</ele>
        <time>2022-01-29T11:39:48Z</time>
      </trkpt>
      <trkpt lat="46.25836" lon="6.21907">
        <ele>307.48</ele>
        <time>2022-01-29T11:39:53Z</time>
      </trkpt>
      <trkpt lat="46.25815" lon="6.21902">
        <ele>307.94</ele>
        <time>2022-01-29T11:39:59Z</time>
      </trkpt>
      <trkpt lat="46.25796" lon="6.21897">
        <ele>308.37</ele>
        <time>2022-01-29T11:40:06Z</time>
      </trkpt>
      <trkpt lat="46.25778" lon="6.21892">
        <ele>308.99</ele>
        <time>2022-01-29T11:40:11Z</time>
      </trkpt>
      <trkpt lat="46.25758" lon="6.21885">
        <ele>309.53</ele>
        <time>2022-01-29T11:40:16Z</time>
      </trkpt>
      <trkpt lat="46.25739" lon="6.21877">
        <ele>310.13</ele>
        <time>2022-01-29T11:40:22Z</time>
      </trkpt>
      <trkpt lat="46.25719" lon="6.21865">
        <ele>310.64</ele>
        <time>2022-01-29T11:40:29Z</time>
      </trkpt>
      <trkpt lat="46.25702" lon="6.21852">
        <ele>311.25</ele>
        <time>2022-01-29T11:40:35Z</time>
      </trkpt>
      <trkpt lat="46.25687" lon="6.21836">
        <ele>311.67</ele>
        <time>2022-01-29T11:40:40Z</time>
      </trkpt>
      <trkpt lat="46.2567" lon="6.21818">
        <ele>311.67</ele>
        <time>2022-01-29T11:40:45Z</time>
      </trkpt>
      <trkpt lat="46.25654" lon="6.21803">
        <ele>311.67</ele>
        <time>2022-01-29T11:40:49Z</time>
      </trkpt>
      <trkpt lat="46.25639" lon="6.21787">
        <ele>311.67</ele>
        <time>2022-01-29T11:40:53Z</time>
      </trkpt>
      <trkpt lat="46.25621" lon="6.21769">
        <ele>311.67</ele>
        <time>2022-01-29T11:40:58Z</time>
      </trkpt>
      <trkpt lat="46.25606" lon="6.21754">
        <ele>311.67</ele>
        <time>2022-01-29T11:41:03Z</time>
      </trkpt>
      <trkpt lat="46.2559" lon="6.21736">
        <ele>311.67</ele>
        <time>2022-01-29T11:41:09Z</time>
      </trkpt>
      <trkpt lat="46.25575" lon="6.21715">
        <ele>311.67</ele>
        <time>2022-01-29T11:41:15Z</time>
      </trkpt>
      <trkpt lat="46.25561" lon="6.21696">
        <ele>311.67</ele>
        <time>2022-01-29T11:41:20Z</time>
      </trkpt>
      <trkpt lat="46.25547" lon="6.21675">
        <ele>311.67</ele>
        <time>2022-01-29T11:41:25Z</time>
      </trkpt>
      <trkpt lat="46.25532" lon="6.21654">
        <ele>311.67</ele>
        <time>2022-01-29T11:41:30Z</time>
      </trkpt>
      <trkpt lat="46.25518" lon="6.21634">
        <ele>311.67</ele>
        <time>2022-01-29T11:41:35Z</time>
      </trkpt>
      <trkpt lat="46.25506" lon="6.21613">
        <ele>308.19</ele>
        <time>2022-01-29T11:41:40Z</time>
      </trkpt>
      <trkpt lat="46.25493" lon="6.21591">
        <ele>308.14</ele>
        <time>2022-01-29T11:41:45Z</time>
      </trkpt>
      <trkpt lat="46.25476" lon="6.2157">
        <ele>308.26</ele>
        <time>2022-01-29T11:41:50Z</time>
      </trkpt>
      <trkpt lat="46.25458" lon="6.21551">
        <ele>308.65</ele>
        <time>2022-01-29T11:41:55Z</time>
      </trkpt>
      <trkpt lat="46.25443" lon="6.21536">
        <ele>309.04</ele>
        <time>2022-01-29T11:41:59Z</time>
      </trkpt>
      <trkpt lat="46.25427" lon="6.21514">
        <ele>309.68</ele>
        <time>2022-01-29T11:42:05Z</time>
      </trkpt>
      <trkpt lat="46.25428" lon="6.21487">
        <ele>310</ele>
        <time>2022-01-29T11:42:11Z</time>
      </trkpt>
      <trkpt lat="46.25432" lon="6.21454">
        <ele>309.96</ele>
        <time>2022-01-29T11:42:16Z</time>
      </trkpt>
      <trkpt lat="46.25424" lon="6.21429">
        <ele>309.75</ele>
        <time>2022-01-29T11:42:20Z</time>
      </trkpt>
      <trkpt lat="46.25409" lon="6.21406">
        <ele>309.46</ele>
        <time>2022-01-29T11:42:25Z</time>
      </trkpt>
      <trkpt lat="46.25396" lon="6.21385">
        <ele>309.27</ele>
        <time>2022-01-29T11:42:30Z</time>
      </trkpt>
      <trkpt lat="46.25379" lon="6.21363">
        <ele>309.2</ele>
        <time>2022-01-29T11:42:35Z</time>
      </trkpt>
      <trkpt lat="46.25364" lon="6.21344">
        <ele>309.3</ele>
        <time>2022-01-29T11:42:39Z</time>
      </trkpt>
      <trkpt lat="46.25345" lon="6.21327">
        <ele>309.5</ele>
        <time>2022-01-29T11:42:43Z</time>
      </trkpt>
      <trkpt lat="46.25328" lon="6.21315">
        <ele>309.76</ele>
        <time>2022-01-29T11:42:47Z</time>
      </trkpt>
      <trkpt lat="46.25312" lon="6.21305">
        <ele>310.12</ele>
        <time>2022-01-29T11:42:51Z</time>
      </trkpt>
      <trkpt lat="46.25292" lon="6.21294">
        <ele>310.51</ele>
        <time>2022-01-29T11:42:56Z</time>
      </trkpt>
      <trkpt lat="46.25272" lon="6.21286">
        <ele>311</ele>
        <time>2022-01-29T11:43:02Z</time>
      </trkpt>
      <trkpt lat="46.25251" lon="6.2128">
        <ele>311.55</ele>
        <time>2022-01-29T11:43:08Z</time>
      </trkpt>
      <trkpt lat="46.25231" lon="6.21277">
        <ele>312.36</ele>
        <time>2022-01-29T11:43:13Z</time>
      </trkpt>
      <trkpt lat="46.25211" lon="6.21266">
        <ele>313.38</ele>
        <time>2022-01-29T11:43:18Z</time>
      </trkpt>
      <trkpt lat="46.25193" lon="6.21256">
        <ele>314.14</ele>
        <time>2022-01-29T11:43:23Z</time>
      </trkpt>
      <trkpt lat="46.25176" lon="6.21245">
        <ele>314.61</ele>
        <time>2022-01-29T11:43:29Z</time>
      </trkpt>
      <trkpt lat="46.25155" lon="6.21234">
        <ele>314.87</ele>
        <time>2022-01-29T11:43:35Z</time>
      </trkpt>
      <trkpt lat="46.25137" lon="6.21224">
        <ele>315.03</ele>
        <time>2022-01-29T11:43:39Z</time>
      </trkpt>
      <trkpt lat="46.25116" lon="6.21214">
        <ele>315.48</ele>
        <time>2022-01-29T11:43:43Z</time>
      </trkpt>
      <trkpt lat="46.25095" lon="6.21201">
        <ele>315.66</ele>
        <time>2022-01-29T11:43:47Z</time>
      </trkpt>
      <trkpt lat="46.25078" lon="6.21189">
        <ele>315.81</ele>
        <time>2022-01-29T11:43:51Z</time>
      </trkpt>
      <trkpt lat="46.2506" lon="6.21177">
        <ele>315.98</ele>
        <time>2022-01-29T11:43:56Z</time>
      </trkpt>
      <trkpt lat="46.25041" lon="6.21164">
        <ele>316.16</ele>
        <time>2022-01-29T11:44:02Z</time>
      </trkpt>
      <trkpt lat="46.25022" lon="6.21151">
        <ele>316.32</ele>
        <time>2022-01-29T11:44:07Z</time>
      </trkpt>
      <trkpt lat="46.25004" lon="6.21138">
        <ele>316.68</ele>
        <time>2022-01-29T11:44:12Z</time>
      </trkpt>
      <trkpt lat="46.24987" lon="6.21122">
        <ele>317.23</ele>
        <time>2022-01-29T11:44:17Z</time>
      </trkpt>
      <trkpt lat="46.24969" lon="6.21107">
        <ele>317.79</ele>
        <time>2022-01-29T11:44:22Z</time>
      </trkpt>
      <trkpt lat="46.24953" lon="6.21091">
        <ele>318.27</ele>
        <time>2022-01-29T11:44:27Z</time>
      </trkpt>
      <trkpt lat="46.24938" lon="6.21076">
        <ele>318.88</ele>
        <time>2022-01-29T11:44:33Z</time>
      </trkpt>
      <trkpt lat="46.24923" lon="6.21061">
        <ele>319.54</ele>
        <time>2022-01-29T11:44:39Z</time>
      </trkpt>
      <trkpt lat="46.24906" lon="6.21047">
        <ele>320.15</ele>
        <time>2022-01-29T11:44:45Z</time>
      </trkpt>
      <trkpt lat="46.24889" lon="6.21031">
        <ele>320.15</ele>
        <time>2022-01-29T11:44:51Z</time>
      </trkpt>
      <trkpt lat="46.24872" lon="6.21016">
        <ele>320.15</ele>
        <time>2022-01-29T11:44:57Z</time>
      </trkpt>
      <trkpt lat="46.24855" lon="6.21001">
        <ele>320.15</ele>
        <time>2022-01-29T11:45:03Z</time>
      </trkpt>
      <trkpt lat="46.24838" lon="6.20988">
        <ele>320.15</ele>
        <time>2022-01-29T11:45:09Z</time>
      </trkpt>
      <trkpt lat="46.2482" lon="6.20972">
        <ele>320.15</ele>
        <time>2022-01-29T11:45:14Z</time>
      </trkpt>
      <trkpt lat="46.24802" lon="6.20955">
        <ele>320.15</ele>
        <time>2022-01-29T11:45:19Z</time>
      </trkpt>
      <trkpt lat="46.24785" lon="6.20937">
        <ele>320.15</ele>
        <time>2022-01-29T11:45:24Z</time>
      </trkpt>
      <trkpt lat="46.2477" lon="6.2092">
        <ele>320.15</ele>
        <time>2022-01-29T11:45:29Z</time>
      </trkpt>
      <trkpt lat="46.24755" lon="6.20899">
        <ele>320.15</ele>
        <time>2022-01-29T11:45:35Z</time>
      </trkpt>
      <trkpt lat="46.24739" lon="6.20874">
        <ele>320.15</ele>
        <time>2022-01-29T11:45:40Z</time>
      </trkpt>
      <trkpt lat="46.24726" lon="6.20852">
        <ele>320.15</ele>
        <time>2022-01-29T11:45:44Z</time>
      </trkpt>
      <trkpt lat="46.24713" lon="6.20832">
        <ele>320.15</ele>
        <time>2022-01-29T11:45:48Z</time>
      </trkpt>
      <trkpt lat="46.24702" lon="6.20811">
        <ele>320.15</ele>
        <time>2022-01-29T11:45:53Z</time>
      </trkpt>
      <trkpt lat="46.24688" lon="6.2079">
        <ele>320.15</ele>
        <time>2022-01-29T11:45:59Z</time>
      </trkpt>
      <trkpt lat="46.24675" lon="6.20772">
        <ele>320.15</ele>
        <time>2022-01-29T11:46:04Z</time>
      </trkpt>
      <trkpt lat="46.24659" lon="6.2075">
        <ele>320.15</ele>
        <time>2022-01-29T11:46:09Z</time>
      </trkpt>
      <trkpt lat="46.24645" lon="6.20731">
        <ele>320.15</ele>
        <time>2022-01-29T11:46:14Z</time>
      </trkpt>
      <trkpt lat="46.2463" lon="6.20711">
        <ele>320.15</ele>
        <time>2022-01-29T11:46:20Z</time>
      </trkpt>
      <trkpt lat="46.24616" lon="6.20695">
        <ele>320.15</ele>
        <time>2022-01-29T11:46:25Z</time>
      </trkpt>
      <trkpt lat="46.24602" lon="6.20677">
        <ele>320.15</ele>
        <time>2022-01-29T11:46:30Z</time>
      </trkpt>
      <trkpt lat="46.24587" lon="6.20658">
        <ele>320.15</ele>
        <time>2022-01-29T11:46:36Z</time>
      </trkpt>
      <trkpt lat="46.2457" lon="6.2064">
        <ele>320.15</ele>
        <time>2022-01-29T11:46:42Z</time>
      </trkpt>
      <trkpt lat="46.24554" lon="6.20622">
        <ele>320.15</ele>
        <time>2022-01-29T11:46:49Z</time>
      </trkpt>
      <trkpt lat="46.24536" lon="6.20613">
        <ele>320.15</ele>
        <time>2022-01-29T11:47:04Z</time>
      </trkpt>
      <trkpt lat="46.24522" lon="6.20626">
        <ele>320.15</ele>
        <time>2022-01-29T11:47:09Z</time>
      </trkpt>
      <trkpt lat="46.24513" lon="6.20651">
        <ele>320.15</ele>
        <time>2022-01-29T11:47:14Z</time>
      </trkpt>
      <trkpt lat="46.24499" lon="6.20674">
        <ele>320.15</ele>
        <time>2022-01-29T11:47:21Z</time>
      </trkpt>
      <trkpt lat="46.24484" lon="6.20698">
        <ele>320.15</ele>
        <time>2022-01-29T11:47:27Z</time>
      </trkpt>
      <trkpt lat="46.24471" lon="6.20717">
        <ele>320.15</ele>
        <time>2022-01-29T11:47:32Z</time>
      </trkpt>
      <trkpt lat="46.24457" lon="6.2074">
        <ele>320.15</ele>
        <time>2022-01-29T11:47:38Z</time>
      </trkpt>
      <trkpt lat="46.24443" lon="6.20762">
        <ele>325</ele>
        <time>2022-01-29T11:47:44Z</time>
      </trkpt>
      <trkpt lat="46.2443" lon="6.20779">
        <ele>324.83</ele>
        <time>2022-01-29T11:47:50Z</time>
      </trkpt>
      <trkpt lat="46.24415" lon="6.208">
        <ele>325.93</ele>
        <time>2022-01-29T11:47:56Z</time>
      </trkpt>
      <trkpt lat="46.24402" lon="6.20819">
        <ele>327.55</ele>
        <time>2022-01-29T11:48:01Z</time>
      </trkpt>
      <trkpt lat="46.24391" lon="6.2084">
        <ele>329.57</ele>
        <time>2022-01-29T11:48:08Z</time>
      </trkpt>
      <trkpt lat="46.24376" lon="6.20835">
        <ele>331.09</ele>
        <time>2022-01-29T11:48:16Z</time>
      </trkpt>
      <trkpt lat="46.2436" lon="6.20819">
        <ele>331.71</ele>
        <time>2022-01-29T11:48:22Z</time>
      </trkpt>
      <trkpt lat="46.24342" lon="6.20802">
        <ele>332.09</ele>
        <time>2022-01-29T11:48:29Z</time>
      </trkpt>
      <trkpt lat="46.24327" lon="6.20786">
        <ele>332.34</ele>
        <time>2022-01-29T11:48:34Z</time>
      </trkpt>
      <trkpt lat="46.24312" lon="6.20768">
        <ele>332.87</ele>
        <time>2022-01-29T11:48:41Z</time>
      </trkpt>
      <trkpt lat="46.24297" lon="6.2075">
        <ele>333.57</ele>
        <time>2022-01-29T11:48:48Z</time>
      </trkpt>
      <trkpt lat="46.24281" lon="6.20734">
        <ele>334.58</ele>
        <time>2022-01-29T11:48:56Z</time>
      </trkpt>
      <trkpt lat="46.24264" lon="6.20715">
        <ele>335.49</ele>
        <time>2022-01-29T11:49:02Z</time>
      </trkpt>
      <trkpt lat="46.24248" lon="6.20698">
        <ele>336.28</ele>
        <time>2022-01-29T11:49:08Z</time>
      </trkpt>
      <trkpt lat="46.24232" lon="6.20684">
        <ele>336.91</ele>
        <time>2022-01-29T11:49:14Z</time>
      </trkpt>
      <trkpt lat="46.24215" lon="6.20663">
        <ele>337.53</ele>
        <time>2022-01-29T11:49:19Z</time>
      </trkpt>
      <trkpt lat="46.242" lon="6.20642">
        <ele>338</ele>
        <time>2022-01-29T11:49:23Z</time>
      </trkpt>
      <trkpt lat="46.24186" lon="6.20622">
        <ele>338.5</ele>
        <time>2022-01-29T11:49:27Z</time>
      </trkpt>
      <trkpt lat="46.24175" lon="6.206">
        <ele>338.91</ele>
        <time>2022-01-29T11:49:32Z</time>
      </trkpt>
      <trkpt lat="46.24163" lon="6.20578">
        <ele>339.23</ele>
        <time>2022-01-29T11:49:39Z</time>
      </trkpt>
      <trkpt lat="46.2415" lon="6.20556">
        <ele>339.73</ele>
        <time>2022-01-29T11:49:46Z</time>
      </trkpt>
      <trkpt lat="46.24136" lon="6.20533">
        <ele>340.27</ele>
        <time>2022-01-29T11:49:51Z</time>
      </trkpt>
      <trkpt lat="46.24122" lon="6.20515">
        <ele>340.64</ele>
        <time>2022-01-29T11:49:55Z</time>
      </trkpt>
      <trkpt lat="46.24106" lon="6.20497">
        <ele>340.79</ele>
        <time>2022-01-29T11:50:00Z</time>
      </trkpt>
      <trkpt lat="46.24093" lon="6.2048">
        <ele>340.76</ele>
        <time>2022-01-29T11:50:05Z</time>
      </trkpt>
      <trkpt lat="46.24078" lon="6.20462">
        <ele>340.85</ele>
        <time>2022-01-29T11:50:11Z</time>
      </trkpt>
      <trkpt lat="46.24062" lon="6.20446">
        <ele>341.01</ele>
        <time>2022-01-29T11:50:17Z</time>
      </trkpt>
      <trkpt lat="46.24048" lon="6.20429">
        <ele>341.13</ele>
        <time>2022-01-29T11:50:22Z</time>
      </trkpt>
      <trkpt lat="46.24032" lon="6.20406">
        <ele>341.34</ele>
        <time>2022-01-29T11:50:27Z</time>
      </trkpt>
      <trkpt lat="46.2402" lon="6.20385">
        <ele>341.46</ele>
        <time>2022-01-29T11:50:31Z</time>
      </trkpt>
      <trkpt lat="46.24008" lon="6.20364">
        <ele>341.48</ele>
        <time>2022-01-29T11:50:35Z</time>
      </trkpt>
      <trkpt lat="46.24" lon="6.20335">
        <ele>341.25</ele>
        <time>2022-01-29T11:50:40Z</time>
      </trkpt>
      <trkpt lat="46.23993" lon="6.20307">
        <ele>341.17</ele>
        <time>2022-01-29T11:50:45Z</time>
      </trkpt>
      <trkpt lat="46.23986" lon="6.20277">
        <ele>341.26</ele>
        <time>2022-01-29T11:50:49Z</time>
      </trkpt>
      <trkpt lat="46.23979" lon="6.20245">
        <ele>341.64</ele>
        <time>2022-01-29T11:50:53Z</time>
      </trkpt>
      <trkpt lat="46.23966" lon="6.20222">
        <ele>341.65</ele>
        <time>2022-01-29T11:50:57Z</time>
      </trkpt>
      <trkpt lat="46.23949" lon="6.20209">
        <ele>341.39</ele>
        <time>2022-01-29T11:51:02Z</time>
      </trkpt>
      <trkpt lat="46.23934" lon="6.20196">
        <ele>341.31</ele>
        <time>2022-01-29T11:51:08Z</time>
      </trkpt>
      <trkpt lat="46.23916" lon="6.20184">
        <ele>341.96</ele>
        <time>2022-01-29T11:51:14Z</time>
      </trkpt>
      <trkpt lat="46.23896" lon="6.20175">
        <ele>342.55</ele>
        <time>2022-01-29T11:51:20Z</time>
      </trkpt>
      <trkpt lat="46.23876" lon="6.20162">
        <ele>343.26</ele>
        <time>2022-01-29T11:51:26Z</time>
      </trkpt>
      <trkpt lat="46.2386" lon="6.20144">
        <ele>344.05</ele>
        <time>2022-01-29T11:51:31Z</time>
      </trkpt>
      <trkpt lat="46.23844" lon="6.20126">
        <ele>344.83</ele>
        <time>2022-01-29T11:51:35Z</time>
      </trkpt>
      <trkpt lat="46.23829" lon="6.20109">
        <ele>345.49</ele>
        <time>2022-01-29T11:51:39Z</time>
      </trkpt>
      <trkpt lat="46.23822" lon="6.20088">
        <ele>345.84</ele>
        <time>2022-01-29T11:51:43Z</time>
      </trkpt>
      <trkpt lat="46.23831" lon="6.2006">
        <ele>345.82</ele>
        <time>2022-01-29T11:51:47Z</time>
      </trkpt>
      <trkpt lat="46.23838" lon="6.20035">
        <ele>345.45</ele>
        <time>2022-01-29T11:51:51Z</time>
      </trkpt>
      <trkpt lat="46.23847" lon="6.20008">
        <ele>344.54</ele>
        <time>2022-01-29T11:51:55Z</time>
      </trkpt>
      <trkpt lat="46.23855" lon="6.19977">
        <ele>343.48</ele>
        <time>2022-01-29T11:51:59Z</time>
      </trkpt>
      <trkpt lat="46.23861" lon="6.19951">
        <ele>342.69</ele>
        <time>2022-01-29T11:52:02Z</time>
      </trkpt>
      <trkpt lat="46.23867" lon="6.19923">
        <ele>341.84</ele>
        <time>2022-01-29T11:52:06Z</time>
      </trkpt>
      <trkpt lat="46.23861" lon="6.19901">
        <ele>340.58</ele>
        <time>2022-01-29T11:52:12Z</time>
      </trkpt>
      <trkpt lat="46.23842" lon="6.19889">
        <ele>340.4</ele>
        <time>2022-01-29T11:52:19Z</time>
      </trkpt>
      <trkpt lat="46.23823" lon="6.1988">
        <ele>340.68</ele>
        <time>2022-01-29T11:52:24Z</time>
      </trkpt>
      <trkpt lat="46.23807" lon="6.19871">
        <ele>341.14</ele>
        <time>2022-01-29T11:52:37Z</time>
      </trkpt>
      <trkpt lat="46.23811" lon="6.19845">
        <ele>341.23</ele>
        <time>2022-01-29T11:52:48Z</time>
      </trkpt>
      <trkpt lat="46.23819" lon="6.19816">
        <ele>341.41</ele>
        <time>2022-01-29T11:52:56Z</time>
      </trkpt>
      <trkpt lat="46.23826" lon="6.19786">
        <ele>341.32</ele>
        <time>2022-01-29T11:53:01Z</time>
      </trkpt>
      <trkpt lat="46.23827" lon="6.19761">
        <ele>340.95</ele>
        <time>2022-01-29T11:53:07Z</time>
      </trkpt>
      <trkpt lat="46.2381" lon="6.19751">
        <ele>340.3</ele>
        <time>2022-01-29T11:53:13Z</time>
      </trkpt>
      <trkpt lat="46.23792" lon="6.19743">
        <ele>340.15</ele>
        <time>2022-01-29T11:53:19Z</time>
      </trkpt>
      <trkpt lat="46.23772" lon="6.19732">
        <ele>340.31</ele>
        <time>2022-01-29T11:53:24Z</time>
      </trkpt>
      <trkpt lat="46.23756" lon="6.19718">
        <ele>340.24</ele>
        <time>2022-01-29T11:53:28Z</time>
      </trkpt>
      <trkpt lat="46.23744" lon="6.19696">
        <ele>339.89</ele>
        <time>2022-01-29T11:53:32Z</time>
      </trkpt>
      <trkpt lat="46.23731" lon="6.19671">
        <ele>339.04</ele>
        <time>2022-01-29T11:53:36Z</time>
      </trkpt>
      <trkpt lat="46.23714" lon="6.19648">
        <ele>338.05</ele>
        <time>2022-01-29T11:53:40Z</time>
      </trkpt>
      <trkpt lat="46.23696" lon="6.19628">
        <ele>337.29</ele>
        <time>2022-01-29T11:53:44Z</time>
      </trkpt>
      <trkpt lat="46.23678" lon="6.19612">
        <ele>336.77</ele>
        <time>2022-01-29T11:53:48Z</time>
      </trkpt>
      <trkpt lat="46.23658" lon="6.19603">
        <ele>336.26</ele>
        <time>2022-01-29T11:53:52Z</time>
      </trkpt>
      <trkpt lat="46.23641" lon="6.19581">
        <ele>335.57</ele>
        <time>2022-01-29T11:53:56Z</time>
      </trkpt>
      <trkpt lat="46.23628" lon="6.19562">
        <ele>334.79</ele>
        <time>2022-01-29T11:53:59Z</time>
      </trkpt>
      <trkpt lat="46.23609" lon="6.19542">
        <ele>333.75</ele>
        <time>2022-01-29T11:54:03Z</time>
      </trkpt>
      <trkpt lat="46.23589" lon="6.19525">
        <ele>333.06</ele>
        <time>2022-01-29T11:54:07Z</time>
      </trkpt>
      <trkpt lat="46.23568" lon="6.19509">
        <ele>332.53</ele>
        <time>2022-01-29T11:54:11Z</time>
      </trkpt>
      <trkpt lat="46.23551" lon="6.19498">
        <ele>331.97</ele>
        <time>2022-01-29T11:54:14Z</time>
      </trkpt>
      <trkpt lat="46.23533" lon="6.19486">
        <ele>331.32</ele>
        <time>2022-01-29T11:54:17Z</time>
      </trkpt>
      <trkpt lat="46.23515" lon="6.19475">
        <ele>330.67</ele>
        <time>2022-01-29T11:54:20Z</time>
      </trkpt>
      <trkpt lat="46.23496" lon="6.19462">
        <ele>329.99</ele>
        <time>2022-01-29T11:54:23Z</time>
      </trkpt>
      <trkpt lat="46.23479" lon="6.19447">
        <ele>329.23</ele>
        <time>2022-01-29T11:54:26Z</time>
      </trkpt>
      <trkpt lat="46.23462" lon="6.1943">
        <ele>328.63</ele>
        <time>2022-01-29T11:54:30Z</time>
      </trkpt>
      <trkpt lat="46.23443" lon="6.19417">
        <ele>328.54</ele>
        <time>2022-01-29T11:54:35Z</time>
      </trkpt>
      <trkpt lat="46.23425" lon="6.19405">
        <ele>328.55</ele>
        <time>2022-01-29T11:54:40Z</time>
      </trkpt>
      <trkpt lat="46.23408" lon="6.19389">
        <ele>328.44</ele>
        <time>2022-01-29T11:54:45Z</time>
      </trkpt>
      <trkpt lat="46.2339" lon="6.1937">
        <ele>328.08</ele>
        <time>2022-01-29T11:54:50Z</time>
      </trkpt>
      <trkpt lat="46.23379" lon="6.19349">
        <ele>327.81</ele>
        <time>2022-01-29T11:54:54Z</time>
      </trkpt>
      <trkpt lat="46.23371" lon="6.19326">
        <ele>327.32</ele>
        <time>2022-01-29T11:54:59Z</time>
      </trkpt>
      <trkpt lat="46.23359" lon="6.19298">
        <ele>326.13</ele>
        <time>2022-01-29T11:55:10Z</time>
      </trkpt>
      <trkpt lat="46.2335" lon="6.19267">
        <ele>325.41</ele>
        <time>2022-01-29T11:55:14Z</time>
      </trkpt>
      <trkpt lat="46.23342" lon="6.19241">
        <ele>324.72</ele>
        <time>2022-01-29T11:55:17Z</time>
      </trkpt>
      <trkpt lat="46.23327" lon="6.19217">
        <ele>323.86</ele>
        <time>2022-01-29T11:55:20Z</time>
      </trkpt>
      <trkpt lat="46.23311" lon="6.19195">
        <ele>322.77</ele>
        <time>2022-01-29T11:55:23Z</time>
      </trkpt>
      <trkpt lat="46.23295" lon="6.19175">
        <ele>321.67</ele>
        <time>2022-01-29T11:55:26Z</time>
      </trkpt>
      <trkpt lat="46.23278" lon="6.19156">
        <ele>320.81</ele>
        <time>2022-01-29T11:55:29Z</time>
      </trkpt>
      <trkpt lat="46.23261" lon="6.19135">
        <ele>320.08</ele>
        <time>2022-01-29T11:55:32Z</time>
      </trkpt>
      <trkpt lat="46.23245" lon="6.19116">
        <ele>319.4</ele>
        <time>2022-01-29T11:55:35Z</time>
      </trkpt>
      <trkpt lat="46.2323" lon="6.191">
        <ele>318.72</ele>
        <time>2022-01-29T11:55:38Z</time>
      </trkpt>
      <trkpt lat="46.2321" lon="6.19081">
        <ele>318.04</ele>
        <time>2022-01-29T11:55:42Z</time>
      </trkpt>
      <trkpt lat="46.23192" lon="6.19065">
        <ele>317.61</ele>
        <time>2022-01-29T11:55:46Z</time>
      </trkpt>
      <trkpt lat="46.23174" lon="6.19051">
        <ele>317.34</ele>
        <time>2022-01-29T11:55:50Z</time>
      </trkpt>
      <trkpt lat="46.23159" lon="6.19038">
        <ele>317.23</ele>
        <time>2022-01-29T11:55:54Z</time>
      </trkpt>
      <trkpt lat="46.23142" lon="6.19021">
        <ele>317.26</ele>
        <time>2022-01-29T11:55:59Z</time>
      </trkpt>
      <trkpt lat="46.23125" lon="6.19005">
        <ele>317.14</ele>
        <time>2022-01-29T11:56:04Z</time>
      </trkpt>
      <trkpt lat="46.23109" lon="6.1899">
        <ele>317.15</ele>
        <time>2022-01-29T11:56:09Z</time>
      </trkpt>
      <trkpt lat="46.23093" lon="6.18974">
        <ele>317.62</ele>
        <time>2022-01-29T11:56:14Z</time>
      </trkpt>
      <trkpt lat="46.23076" lon="6.18959">
        <ele>318.25</ele>
        <time>2022-01-29T11:56:19Z</time>
      </trkpt>
      <trkpt lat="46.23059" lon="6.18941">
        <ele>318.93</ele>
        <time>2022-01-29T11:56:24Z</time>
      </trkpt>
      <trkpt lat="46.23046" lon="6.18923">
        <ele>319.49</ele>
        <time>2022-01-29T11:56:28Z</time>
      </trkpt>
      <trkpt lat="46.23029" lon="6.18903">
        <ele>320.39</ele>
        <time>2022-01-29T11:56:33Z</time>
      </trkpt>
      <trkpt lat="46.23012" lon="6.18884">
        <ele>321.13</ele>
        <time>2022-01-29T11:56:39Z</time>
      </trkpt>
      <trkpt lat="46.22997" lon="6.18862">
        <ele>321.24</ele>
        <time>2022-01-29T11:56:44Z</time>
      </trkpt>
      <trkpt lat="46.22978" lon="6.18845">
        <ele>320.95</ele>
        <time>2022-01-29T11:56:48Z</time>
      </trkpt>
      <trkpt lat="46.22963" lon="6.18827">
        <ele>320.48</ele>
        <time>2022-01-29T11:56:51Z</time>
      </trkpt>
      <trkpt lat="46.22945" lon="6.18805">
        <ele>319.54</ele>
        <time>2022-01-29T11:56:54Z</time>
      </trkpt>
      <trkpt lat="46.22927" lon="6.1878">
        <ele>318.39</ele>
        <time>2022-01-29T11:56:57Z</time>
      </trkpt>
      <trkpt lat="46.22909" lon="6.18754">
        <ele>316.96</ele>
        <time>2022-01-29T11:57:00Z</time>
      </trkpt>
      <trkpt lat="46.22892" lon="6.18732">
        <ele>315.29</ele>
        <time>2022-01-29T11:57:03Z</time>
      </trkpt>
      <trkpt lat="46.22885" lon="6.18707">
        <ele>312.31</ele>
        <time>2022-01-29T11:57:08Z</time>
      </trkpt>
      <trkpt lat="46.22887" lon="6.18681">
        <ele>309.73</ele>
        <time>2022-01-29T11:57:14Z</time>
      </trkpt>
      <trkpt lat="46.2287" lon="6.18666">
        <ele>309.18</ele>
        <time>2022-01-29T11:57:20Z</time>
      </trkpt>
      <trkpt lat="46.22852" lon="6.1865">
        <ele>309.28</ele>
        <time>2022-01-29T11:57:25Z</time>
      </trkpt>
      <trkpt lat="46.22834" lon="6.18632">
        <ele>309.58</ele>
        <time>2022-01-29T11:57:30Z</time>
      </trkpt>
      <trkpt lat="46.22816" lon="6.18614">
        <ele>309.79</ele>
        <time>2022-01-29T11:57:35Z</time>
      </trkpt>
      <trkpt lat="46.22799" lon="6.18593">
        <ele>309.99</ele>
        <time>2022-01-29T11:57:40Z</time>
      </trkpt>
      <trkpt lat="46.22782" lon="6.18573">
        <ele>310.28</ele>
        <time>2022-01-29T11:57:45Z</time>
      </trkpt>
      <trkpt lat="46.22769" lon="6.18553">
        <ele>310.46</ele>
        <time>2022-01-29T11:57:50Z</time>
      </trkpt>
      <trkpt lat="46.22753" lon="6.18529">
        <ele>310.86</ele>
        <time>2022-01-29T11:57:55Z</time>
      </trkpt>
      <trkpt lat="46.22739" lon="6.18509">
        <ele>311.28</ele>
        <time>2022-01-29T11:57:59Z</time>
      </trkpt>
      <trkpt lat="46.22724" lon="6.18488">
        <ele>311.6</ele>
        <time>2022-01-29T11:58:04Z</time>
      </trkpt>
      <trkpt lat="46.22709" lon="6.1847">
        <ele>311.81</ele>
        <time>2022-01-29T11:58:10Z</time>
      </trkpt>
      <trkpt lat="46.22692" lon="6.1845">
        <ele>312.45</ele>
        <time>2022-01-29T11:58:16Z</time>
      </trkpt>
      <trkpt lat="46.22676" lon="6.18433">
        <ele>312.83</ele>
        <time>2022-01-29T11:58:21Z</time>
      </trkpt>
      <trkpt lat="46.22658" lon="6.18417">
        <ele>313.27</ele>
        <time>2022-01-29T11:58:26Z</time>
      </trkpt>
      <trkpt lat="46.2264" lon="6.18402">
        <ele>313.54</ele>
        <time>2022-01-29T11:58:31Z</time>
      </trkpt>
      <trkpt lat="46.22621" lon="6.18388">
        <ele>313.8</ele>
        <time>2022-01-29T11:58:36Z</time>
      </trkpt>
      <trkpt lat="46.22602" lon="6.18374">
        <ele>314.02</ele>
        <time>2022-01-29T11:58:41Z</time>
      </trkpt>
      <trkpt lat="46.22582" lon="6.18359">
        <ele>314.23</ele>
        <time>2022-01-29T11:58:46Z</time>
      </trkpt>
      <trkpt lat="46.22565" lon="6.18346">
        <ele>314.5</ele>
        <time>2022-01-29T11:58:51Z</time>
      </trkpt>
      <trkpt lat="46.22546" lon="6.18333">
        <ele>314.78</ele>
        <time>2022-01-29T11:58:57Z</time>
      </trkpt>
      <trkpt lat="46.22527" lon="6.18319">
        <ele>314.78</ele>
        <time>2022-01-29T11:59:03Z</time>
      </trkpt>
      <trkpt lat="46.2251" lon="6.18307">
        <ele>314.78</ele>
        <time>2022-01-29T11:59:09Z</time>
      </trkpt>
      <trkpt lat="46.22493" lon="6.18293">
        <ele>314.78</ele>
        <time>2022-01-29T11:59:15Z</time>
      </trkpt>
      <trkpt lat="46.22477" lon="6.18275">
        <ele>314.78</ele>
        <time>2022-01-29T11:59:21Z</time>
      </trkpt>
      <trkpt lat="46.22459" lon="6.18262">
        <ele>314.78</ele>
        <time>2022-01-29T11:59:28Z</time>
      </trkpt>
      <trkpt lat="46.2244" lon="6.18248">
        <ele>314.78</ele>
        <time>2022-01-29T11:59:34Z</time>
      </trkpt>
      <trkpt lat="46.22422" lon="6.18234">
        <ele>314.78</ele>
        <time>2022-01-29T11:59:39Z</time>
      </trkpt>
      <trkpt lat="46.22403" lon="6.18221">
        <ele>314.78</ele>
        <time>2022-01-29T11:59:45Z</time>
      </trkpt>
      <trkpt lat="46.22387" lon="6.18207">
        <ele>314.78</ele>
        <time>2022-01-29T11:59:50Z</time>
      </trkpt>
      <trkpt lat="46.22369" lon="6.18195">
        <ele>314.78</ele>
        <time>2022-01-29T11:59:55Z</time>
      </trkpt>
      <trkpt lat="46.22352" lon="6.18182">
        <ele>314.78</ele>
        <time>2022-01-29T12:00:00Z</time>
      </trkpt>
      <trkpt lat="46.22333" lon="6.18168">
        <ele>314.78</ele>
        <time>2022-01-29T12:00:05Z</time>
      </trkpt>
      <trkpt lat="46.22315" lon="6.18153">
        <ele>314.78</ele>
        <time>2022-01-29T12:00:10Z</time>
      </trkpt>
      <trkpt lat="46.22296" lon="6.1814">
        <ele>314.78</ele>
        <time>2022-01-29T12:00:15Z</time>
      </trkpt>
      <trkpt lat="46.22278" lon="6.18126">
        <ele>314.78</ele>
        <time>2022-01-29T12:00:20Z</time>
      </trkpt>
      <trkpt lat="46.2226" lon="6.18112">
        <ele>314.78</ele>
        <time>2022-01-29T12:00:25Z</time>
      </trkpt>
      <trkpt lat="46.22243" lon="6.18099">
        <ele>314.78</ele>
        <time>2022-01-29T12:00:30Z</time>
      </trkpt>
      <trkpt lat="46.22226" lon="6.18087">
        <ele>314.78</ele>
        <time>2022-01-29T12:00:35Z</time>
      </trkpt>
      <trkpt lat="46.22211" lon="6.18075">
        <ele>314.78</ele>
        <time>2022-01-29T12:00:40Z</time>
      </trkpt>
      <trkpt lat="46.22192" lon="6.18061">
        <ele>314.78</ele>
        <time>2022-01-29T12:00:45Z</time>
      </trkpt>
      <trkpt lat="46.22173" lon="6.18046">
        <ele>314.78</ele>
        <time>2022-01-29T12:00:50Z</time>
      </trkpt>
      <trkpt lat="46.22155" lon="6.18032">
        <ele>314.78</ele>
        <time>2022-01-29T12:00:56Z</time>
      </trkpt>
      <trkpt lat="46.22138" lon="6.1802">
        <ele>314.78</ele>
        <time>2022-01-29T12:01:01Z</time>
      </trkpt>
      <trkpt lat="46.2212" lon="6.18007">
        <ele>314.78</ele>
        <time>2022-01-29T12:01:06Z</time>
      </trkpt>
      <trkpt lat="46.22102" lon="6.17994">
        <ele>314.78</ele>
        <time>2022-01-29T12:01:11Z</time>
      </trkpt>
      <trkpt lat="46.22083" lon="6.17979">
        <ele>314.78</ele>
        <time>2022-01-29T12:01:16Z</time>
      </trkpt>
      <trkpt lat="46.22065" lon="6.17966">
        <ele>314.78</ele>
        <time>2022-01-29T12:01:21Z</time>
      </trkpt>
      <trkpt lat="46.22049" lon="6.17954">
        <ele>314.78</ele>
        <time>2022-01-29T12:01:26Z</time>
      </trkpt>
      <trkpt lat="46.22032" lon="6.17941">
        <ele>314.78</ele>
        <time>2022-01-29T12:01:31Z</time>
      </trkpt>
      <trkpt lat="46.22014" lon="6.1793">
        <ele>314.78</ele>
        <time>2022-01-29T12:01:36Z</time>
      </trkpt>
      <trkpt lat="46.21996" lon="6.17916">
        <ele>314.78</ele>
        <time>2022-01-29T12:01:41Z</time>
      </trkpt>
      <trkpt lat="46.21979" lon="6.17903">
        <ele>314.78</ele>
        <time>2022-01-29T12:01:46Z</time>
      </trkpt>
      <trkpt lat="46.21963" lon="6.17891">
        <ele>314.78</ele>
        <time>2022-01-29T12:01:52Z</time>
      </trkpt>
      <trkpt lat="46.21947" lon="6.1788">
        <ele>314.78</ele>
        <time>2022-01-29T12:01:58Z</time>
      </trkpt>
      <trkpt lat="46.2193" lon="6.17867">
        <ele>314.78</ele>
        <time>2022-01-29T12:02:03Z</time>
      </trkpt>
      <trkpt lat="46.21914" lon="6.17857">
        <ele>314.78</ele>
        <time>2022-01-29T12:02:08Z</time>
      </trkpt>
      <trkpt lat="46.21896" lon="6.17844">
        <ele>314.78</ele>
        <time>2022-01-29T12:02:13Z</time>
      </trkpt>
      <trkpt lat="46.21878" lon="6.17829">
        <ele>314.78</ele>
        <time>2022-01-29T12:02:18Z</time>
      </trkpt>
      <trkpt lat="46.21858" lon="6.17814">
        <ele>314.78</ele>
        <time>2022-01-29T12:02:23Z</time>
      </trkpt>
      <trkpt lat="46.21837" lon="6.178">
        <ele>314.78</ele>
        <time>2022-01-29T12:02:28Z</time>
      </trkpt>
      <trkpt lat="46.21819" lon="6.17787">
        <ele>314.78</ele>
        <time>2022-01-29T12:02:33Z</time>
      </trkpt>
      <trkpt lat="46.218" lon="6.17774">
        <ele>314.78</ele>
        <time>2022-01-29T12:02:38Z</time>
      </trkpt>
      <trkpt lat="46.21782" lon="6.1776">
        <ele>314.78</ele>
        <time>2022-01-29T12:02:43Z</time>
      </trkpt>
      <trkpt lat="46.21763" lon="6.17746">
        <ele>314.78</ele>
        <time>2022-01-29T12:02:48Z</time>
      </trkpt>
      <trkpt lat="46.21747" lon="6.17733">
        <ele>314.78</ele>
        <time>2022-01-29T12:02:52Z</time>
      </trkpt>
      <trkpt lat="46.21729" lon="6.17722">
        <ele>314.78</ele>
        <time>2022-01-29T12:02:57Z</time>
      </trkpt>
      <trkpt lat="46.21714" lon="6.1771">
        <ele>314.78</ele>
        <time>2022-01-29T12:03:03Z</time>
      </trkpt>
      <trkpt lat="46.21695" lon="6.17697">
        <ele>314.78</ele>
        <time>2022-01-29T12:03:09Z</time>
      </trkpt>
      <trkpt lat="46.21677" lon="6.17684">
        <ele>314.78</ele>
        <time>2022-01-29T12:03:14Z</time>
      </trkpt>
      <trkpt lat="46.21657" lon="6.17671">
        <ele>314.78</ele>
        <time>2022-01-29T12:03:19Z</time>
      </trkpt>
      <trkpt lat="46.21641" lon="6.17659">
        <ele>314.78</ele>
        <time>2022-01-29T12:03:24Z</time>
      </trkpt>
      <trkpt lat="46.21621" lon="6.17645">
        <ele>314.78</ele>
        <time>2022-01-29T12:03:29Z</time>
      </trkpt>
      <trkpt lat="46.21602" lon="6.17631">
        <ele>314.78</ele>
        <time>2022-01-29T12:03:33Z</time>
      </trkpt>
      <trkpt lat="46.21582" lon="6.17617">
        <ele>314.78</ele>
        <time>2022-01-29T12:03:37Z</time>
      </trkpt>
      <trkpt lat="46.21565" lon="6.17604">
        <ele>314.78</ele>
        <time>2022-01-29T12:03:41Z</time>
      </trkpt>
      <trkpt lat="46.21546" lon="6.17592">
        <ele>314.78</ele>
        <time>2022-01-29T12:03:46Z</time>
      </trkpt>
      <trkpt lat="46.21527" lon="6.17578">
        <ele>314.78</ele>
        <time>2022-01-29T12:03:51Z</time>
      </trkpt>
      <trkpt lat="46.21507" lon="6.17564">
        <ele>314.78</ele>
        <time>2022-01-29T12:03:56Z</time>
      </trkpt>
      <trkpt lat="46.2149" lon="6.17553">
        <ele>314.78</ele>
        <time>2022-01-29T12:04:00Z</time>
      </trkpt>
      <trkpt lat="46.21473" lon="6.17541">
        <ele>314.78</ele>
        <time>2022-01-29T12:04:04Z</time>
      </trkpt>
      <trkpt lat="46.21454" lon="6.17526">
        <ele>314.78</ele>
        <time>2022-01-29T12:04:09Z</time>
      </trkpt>
      <trkpt lat="46.21436" lon="6.17512">
        <ele>314.78</ele>
        <time>2022-01-29T12:04:15Z</time>
      </trkpt>
      <trkpt lat="46.2142" lon="6.17499">
        <ele>314.78</ele>
        <time>2022-01-29T12:04:20Z</time>
      </trkpt>
      <trkpt lat="46.21401" lon="6.17485">
        <ele>314.78</ele>
        <time>2022-01-29T12:04:25Z</time>
      </trkpt>
      <trkpt lat="46.21385" lon="6.17473">
        <ele>314.78</ele>
        <time>2022-01-29T12:04:29Z</time>
      </trkpt>
      <trkpt lat="46.21368" lon="6.17461">
        <ele>314.78</ele>
        <time>2022-01-29T12:04:33Z</time>
      </trkpt>
      <trkpt lat="46.2135" lon="6.17447">
        <ele>314.78</ele>
        <time>2022-01-29T12:04:37Z</time>
      </trkpt>
      <trkpt lat="46.2133" lon="6.17436">
        <ele>314.78</ele>
        <time>2022-01-29T12:04:42Z</time>
      </trkpt>
      <trkpt lat="46.21313" lon="6.1742">
        <ele>314.78</ele>
        <time>2022-01-29T12:04:48Z</time>
      </trkpt>
      <trkpt lat="46.21299" lon="6.17401">
        <ele>314.78</ele>
        <time>2022-01-29T12:04:54Z</time>
      </trkpt>
      <trkpt lat="46.21285" lon="6.17382">
        <ele>314.78</ele>
        <time>2022-01-29T12:05:00Z</time>
      </trkpt>
      <trkpt lat="46.21272" lon="6.17362">
        <ele>314.78</ele>
        <time>2022-01-29T12:05:06Z</time>
      </trkpt>
      <trkpt lat="46.21255" lon="6.17347">
        <ele>314.78</ele>
        <time>2022-01-29T12:05:12Z</time>
      </trkpt>
      <trkpt lat="46.21238" lon="6.17346">
        <ele>314.78</ele>
        <time>2022-01-29T12:05:18Z</time>
      </trkpt>
      <trkpt lat="46.21224" lon="6.17326">
        <ele>314.78</ele>
        <time>2022-01-29T12:05:24Z</time>
      </trkpt>
      <trkpt lat="46.21211" lon="6.17303">
        <ele>314.78</ele>
        <time>2022-01-29T12:05:29Z</time>
      </trkpt>
      <trkpt lat="46.21199" lon="6.17277">
        <ele>314.78</ele>
        <time>2022-01-29T12:05:34Z</time>
      </trkpt>
      <trkpt lat="46.21189" lon="6.1725">
        <ele>314.78</ele>
        <time>2022-01-29T12:05:40Z</time>
      </trkpt>
      <trkpt lat="46.21178" lon="6.17224">
        <ele>314.78</ele>
        <time>2022-01-29T12:05:46Z</time>
      </trkpt>
      <trkpt lat="46.21167" lon="6.17197">
        <ele>314.78</ele>
        <time>2022-01-29T12:05:52Z</time>
      </trkpt>
      <trkpt lat="46.21154" lon="6.17172">
        <ele>314.78</ele>
        <time>2022-01-29T12:05:57Z</time>
      </trkpt>
      <trkpt lat="46.21143" lon="6.17147">
        <ele>314.78</ele>
        <time>2022-01-29T12:06:02Z</time>
      </trkpt>
      <trkpt lat="46.21133" lon="6.17125">
        <ele>314.78</ele>
        <time>2022-01-29T12:06:07Z</time>
      </trkpt>
      <trkpt lat="46.2112" lon="6.171">
        <ele>314.78</ele>
        <time>2022-01-29T12:06:14Z</time>
      </trkpt>
      <trkpt lat="46.21118" lon="6.17075">
        <ele>314.78</ele>
        <time>2022-01-29T12:06:41Z</time>
      </trkpt>
      <trkpt lat="46.21134" lon="6.17071">
        <ele>314.78</ele>
        <time>2022-01-29T12:06:52Z</time>
      </trkpt>
      <trkpt lat="46.21129" lon="6.17051">
        <ele>314.78</ele>
        <time>2022-01-29T12:07:05Z</time>
      </trkpt>
      <trkpt lat="46.21119" lon="6.17025">
        <ele>314.78</ele>
        <time>2022-01-29T12:07:13Z</time>
      </trkpt>
      <trkpt lat="46.21105" lon="6.1701">
        <ele>314.78</ele>
        <time>2022-01-29T12:07:20Z</time>
      </trkpt>
      <trkpt lat="46.21086" lon="6.1701">
        <ele>314.78</ele>
        <time>2022-01-29T12:07:26Z</time>
      </trkpt>
      <trkpt lat="46.21074" lon="6.16988">
        <ele>314.78</ele>
        <time>2022-01-29T12:07:32Z</time>
      </trkpt>
      <trkpt lat="46.21064" lon="6.16963">
        <ele>314.78</ele>
        <time>2022-01-29T12:07:37Z</time>
      </trkpt>
      <trkpt lat="46.21052" lon="6.16936">
        <ele>314.78</ele>
        <time>2022-01-29T12:07:42Z</time>
      </trkpt>
      <trkpt lat="46.2104" lon="6.16912">
        <ele>314.78</ele>
        <time>2022-01-29T12:07:48Z</time>
      </trkpt>
      <trkpt lat="46.21028" lon="6.16885">
        <ele>314.78</ele>
        <time>2022-01-29T12:07:54Z</time>
      </trkpt>
      <trkpt lat="46.21016" lon="6.16859">
        <ele>314.78</ele>
        <time>2022-01-29T12:07:59Z</time>
      </trkpt>
      <trkpt lat="46.21003" lon="6.16832">
        <ele>314.78</ele>
        <time>2022-01-29T12:08:04Z</time>
      </trkpt>
      <trkpt lat="46.20991" lon="6.16805">
        <ele>314.78</ele>
        <time>2022-01-29T12:08:09Z</time>
      </trkpt>
      <trkpt lat="46.2098" lon="6.1678">
        <ele>314.78</ele>
        <time>2022-01-29T12:08:15Z</time>
      </trkpt>
      <trkpt lat="46.20969" lon="6.16753">
        <ele>314.78</ele>
        <time>2022-01-29T12:08:21Z</time>
      </trkpt>
      <trkpt lat="46.20957" lon="6.16728">
        <ele>314.78</ele>
        <time>2022-01-29T12:08:26Z</time>
      </trkpt>
      <trkpt lat="46.20946" lon="6.16703">
        <ele>314.78</ele>
        <time>2022-01-29T12:08:31Z</time>
      </trkpt>
      <trkpt lat="46.20935" lon="6.1668">
        <ele>314.78</ele>
        <time>2022-01-29T12:08:36Z</time>
      </trkpt>
      <trkpt lat="46.20925" lon="6.16657">
        <ele>314.78</ele>
        <time>2022-01-29T12:08:41Z</time>
      </trkpt>
      <trkpt lat="46.20912" lon="6.16631">
        <ele>314.78</ele>
        <time>2022-01-29T12:08:47Z</time>
      </trkpt>
      <trkpt lat="46.20901" lon="6.16607">
        <ele>314.78</ele>
        <time>2022-01-29T12:08:52Z</time>
      </trkpt>
      <trkpt lat="46.20889" lon="6.16582">
        <ele>314.78</ele>
        <time>2022-01-29T12:08:57Z</time>
      </trkpt>
      <trkpt lat="46.20877" lon="6.16555">
        <ele>314.78</ele>
        <time>2022-01-29T12:09:02Z</time>
      </trkpt>
      <trkpt lat="46.20864" lon="6.16529">
        <ele>314.78</ele>
        <time>2022-01-29T12:09:08Z</time>
      </trkpt>
      <trkpt lat="46.20853" lon="6.16501">
        <ele>314.78</ele>
        <time>2022-01-29T12:09:14Z</time>
      </trkpt>
      <trkpt lat="46.20843" lon="6.16471">
        <ele>314.78</ele>
        <time>2022-01-29T12:09:20Z</time>
      </trkpt>
      <trkpt lat="46.20832" lon="6.16451">
        <ele>314.78</ele>
        <time>2022-01-29T12:09:25Z</time>
      </trkpt>
      <trkpt lat="46.20823" lon="6.16424">
        <ele>314.78</ele>
        <time>2022-01-29T12:09:30Z</time>
      </trkpt>
      <trkpt lat="46.20816" lon="6.16398">
        <ele>314.78</ele>
        <time>2022-01-29T12:09:35Z</time>
      </trkpt>
      <trkpt lat="46.20808" lon="6.16371">
        <ele>314.78</ele>
        <time>2022-01-29T12:09:40Z</time>
      </trkpt>
      <trkpt lat="46.208" lon="6.16341">
        <ele>314.78</ele>
        <time>2022-01-29T12:09:45Z</time>
      </trkpt>
      <trkpt lat="46.20795" lon="6.16313">
        <ele>314.78</ele>
        <time>2022-01-29T12:09:50Z</time>
      </trkpt>
      <trkpt lat="46.2079" lon="6.16289">
        <ele>314.78</ele>
        <time>2022-01-29T12:09:56Z</time>
      </trkpt>
      <trkpt lat="46.20782" lon="6.16262">
        <ele>314.78</ele>
        <time>2022-01-29T12:10:02Z</time>
      </trkpt>
      <trkpt lat="46.20773" lon="6.16237">
        <ele>314.78</ele>
        <time>2022-01-29T12:10:07Z</time>
      </trkpt>
      <trkpt lat="46.20764" lon="6.16215">
        <ele>314.78</ele>
        <time>2022-01-29T12:10:12Z</time>
      </trkpt>
      <trkpt lat="46.20755" lon="6.1619">
        <ele>314.78</ele>
        <time>2022-01-29T12:10:17Z</time>
      </trkpt>
      <trkpt lat="46.20744" lon="6.16166">
        <ele>314.78</ele>
        <time>2022-01-29T12:10:22Z</time>
      </trkpt>
      <trkpt lat="46.20733" lon="6.16141">
        <ele>314.78</ele>
        <time>2022-01-29T12:10:27Z</time>
      </trkpt>
      <trkpt lat="46.20719" lon="6.16116">
        <ele>314.78</ele>
        <time>2022-01-29T12:10:32Z</time>
      </trkpt>
      <trkpt lat="46.20709" lon="6.16092">
        <ele>314.78</ele>
        <time>2022-01-29T12:10:36Z</time>
      </trkpt>
      <trkpt lat="46.20695" lon="6.16062">
        <ele>314.78</ele>
        <time>2022-01-29T12:10:42Z</time>
      </trkpt>
      <trkpt lat="46.20685" lon="6.16037">
        <ele>314.78</ele>
        <time>2022-01-29T12:10:48Z</time>
      </trkpt>
      <trkpt lat="46.2069" lon="6.16005">
        <ele>314.78</ele>
        <time>2022-01-29T12:10:55Z</time>
      </trkpt>
      <trkpt lat="46.20691" lon="6.15978">
        <ele>314.78</ele>
        <time>2022-01-29T12:11:09Z</time>
      </trkpt>
      <trkpt lat="46.20692" lon="6.15997">
        <ele>314.78</ele>
        <time>2022-01-29T12:12:37Z</time>
      </trkpt>
      <trkpt lat="46.20691" lon="6.16024">
        <ele>314.78</ele>
        <time>2022-01-29T12:12:43Z</time>
      </trkpt>
      <trkpt lat="46.20675" lon="6.16019">
        <ele>314.78</ele>
        <time>2022-01-29T12:12:52Z</time>
      </trkpt>
      <trkpt lat="46.20662" lon="6.15995">
        <ele>314.78</ele>
        <time>2022-01-29T12:12:58Z</time>
      </trkpt>
      <trkpt lat="46.20646" lon="6.15968">
        <ele>314.78</ele>
        <time>2022-01-29T12:13:04Z</time>
      </trkpt>
      <trkpt lat="46.20633" lon="6.15944">
        <ele>314.78</ele>
        <time>2022-01-29T12:13:09Z</time>
      </trkpt>
      <trkpt lat="46.20621" lon="6.15913">
        <ele>314.78</ele>
        <time>2022-01-29T12:13:14Z</time>
      </trkpt>
      <trkpt lat="46.20607" lon="6.15886">
        <ele>314.78</ele>
        <time>2022-01-29T12:13:19Z</time>
      </trkpt>
      <trkpt lat="46.20594" lon="6.1586">
        <ele>314.78</ele>
        <time>2022-01-29T12:13:24Z</time>
      </trkpt>
      <trkpt lat="46.20582" lon="6.15833">
        <ele>314.78</ele>
        <time>2022-01-29T12:13:29Z</time>
      </trkpt>
      <trkpt lat="46.20569" lon="6.15808">
        <ele>314.78</ele>
        <time>2022-01-29T12:13:35Z</time>
      </trkpt>
      <trkpt lat="46.20557" lon="6.15779">
        <ele>314.78</ele>
        <time>2022-01-29T12:13:52Z</time>
      </trkpt>
      <trkpt lat="46.20545" lon="6.1575">
        <ele>314.78</ele>
        <time>2022-01-29T12:13:59Z</time>
      </trkpt>
      <trkpt lat="46.20532" lon="6.15723">
        <ele>314.78</ele>
        <time>2022-01-29T12:14:05Z</time>
      </trkpt>
      <trkpt lat="46.20518" lon="6.15695">
        <ele>314.78</ele>
        <time>2022-01-29T12:14:10Z</time>
      </trkpt>
      <trkpt lat="46.20506" lon="6.15671">
        <ele>314.78</ele>
        <time>2022-01-29T12:14:14Z</time>
      </trkpt>
      <trkpt lat="46.20495" lon="6.15646">
        <ele>314.78</ele>
        <time>2022-01-29T12:14:18Z</time>
      </trkpt>
      <trkpt lat="46.20481" lon="6.15618">
        <ele>314.78</ele>
        <time>2022-01-29T12:14:23Z</time>
      </trkpt>
      <trkpt lat="46.20469" lon="6.15591">
        <ele>314.78</ele>
        <time>2022-01-29T12:14:28Z</time>
      </trkpt>
      <trkpt lat="46.20458" lon="6.15568">
        <ele>314.78</ele>
        <time>2022-01-29T12:14:33Z</time>
      </trkpt>
      <trkpt lat="46.20447" lon="6.15542">
        <ele>314.78</ele>
        <time>2022-01-29T12:14:38Z</time>
      </trkpt>
      <trkpt lat="46.20434" lon="6.15517">
        <ele>314.78</ele>
        <time>2022-01-29T12:14:43Z</time>
      </trkpt>
      <trkpt lat="46.20423" lon="6.15491">
        <ele>314.78</ele>
        <time>2022-01-29T12:14:48Z</time>
      </trkpt>
      <trkpt lat="46.20411" lon="6.15469">
        <ele>314.78</ele>
        <time>2022-01-29T12:14:53Z</time>
      </trkpt>
      <trkpt lat="46.204" lon="6.15447">
        <ele>314.78</ele>
        <time>2022-01-29T12:14:58Z</time>
      </trkpt>
      <trkpt lat="46.20388" lon="6.15427">
        <ele>314.78</ele>
        <time>2022-01-29T12:15:03Z</time>
      </trkpt>
      <trkpt lat="46.20374" lon="6.15398">
        <ele>314.78</ele>
        <time>2022-01-29T12:15:08Z</time>
      </trkpt>
      <trkpt lat="46.20363" lon="6.15373">
        <ele>314.78</ele>
        <time>2022-01-29T12:15:13Z</time>
      </trkpt>
      <trkpt lat="46.20356" lon="6.15345">
        <ele>314.78</ele>
        <time>2022-01-29T12:15:28Z</time>
      </trkpt>
      <trkpt lat="46.20354" lon="6.15319">
        <ele>314.78</ele>
        <time>2022-01-29T12:15:38Z</time>
      </trkpt>
      <trkpt lat="46.20362" lon="6.15291">
        <ele>314.78</ele>
        <time>2022-01-29T12:15:45Z</time>
      </trkpt>
      <trkpt lat="46.2035" lon="6.15271">
        <ele>314.78</ele>
        <time>2022-01-29T12:16:07Z</time>
      </trkpt>
      <trkpt lat="46.20333" lon="6.15267">
        <ele>314.78</ele>
        <time>2022-01-29T12:16:32Z</time>
      </trkpt>
      <trkpt lat="46.20316" lon="6.15258">
        <ele>314.78</ele>
        <time>2022-01-29T12:16:45Z</time>
      </trkpt>
      <trkpt lat="46.20295" lon="6.15248">
        <ele>314.78</ele>
        <time>2022-01-29T12:17:02Z</time>
      </trkpt>
      <trkpt lat="46.20275" lon="6.15246">
        <ele>314.78</ele>
        <time>2022-01-29T12:17:09Z</time>
      </trkpt>
      <trkpt lat="46.20258" lon="6.15242">
        <ele>314.78</ele>
        <time>2022-01-29T12:17:15Z</time>
      </trkpt>
      <trkpt lat="46.20237" lon="6.1524">
        <ele>314.78</ele>
        <time>2022-01-29T12:17:23Z</time>
      </trkpt>
      <trkpt lat="46.20216" lon="6.15227">
        <ele>314.78</ele>
        <time>2022-01-29T12:17:30Z</time>
      </trkpt>
      <trkpt lat="46.20196" lon="6.1522">
        <ele>314.78</ele>
        <time>2022-01-29T12:17:37Z</time>
      </trkpt>
      <trkpt lat="46.20178" lon="6.15204">
        <ele>314.78</ele>
        <time>2022-01-29T12:17:49Z</time>
      </trkpt>
      <trkpt lat="46.20157" lon="6.15199">
        <ele>314.78</ele>
        <time>2022-01-29T12:17:55Z</time>
      </trkpt>
      <trkpt lat="46.20134" lon="6.15188">
        <ele>314.78</ele>
        <time>2022-01-29T12:18:01Z</time>
      </trkpt>
      <trkpt lat="46.20117" lon="6.15191">
        <ele>314.78</ele>
        <time>2022-01-29T12:18:07Z</time>
      </trkpt>
      <trkpt lat="46.20105" lon="6.15213">
        <ele>323.42</ele>
        <time>2022-01-29T12:18:14Z</time>
      </trkpt>
      <trkpt lat="46.20086" lon="6.15241">
        <ele>322.95</ele>
        <time>2022-01-29T12:18:19Z</time>
      </trkpt>
      <trkpt lat="46.20068" lon="6.1526">
        <ele>323.84</ele>
        <time>2022-01-29T12:18:26Z</time>
      </trkpt>
      <trkpt lat="46.20051" lon="6.15237">
        <ele>325.54</ele>
        <time>2022-01-29T12:18:33Z</time>
      </trkpt>
      <trkpt lat="46.20036" lon="6.15215">
        <ele>327.17</ele>
        <time>2022-01-29T12:18:39Z</time>
      </trkpt>
      <trkpt lat="46.20022" lon="6.15192">
        <ele>329</ele>
        <time>2022-01-29T12:18:45Z</time>
      </trkpt>
      <trkpt lat="46.20008" lon="6.15172">
        <ele>331.17</ele>
        <time>2022-01-29T12:18:51Z</time>
      </trkpt>
      <trkpt lat="46.19994" lon="6.15151">
        <ele>333.44</ele>
        <time>2022-01-29T12:18:57Z</time>
      </trkpt>
      <trkpt lat="46.19982" lon="6.15131">
        <ele>334.99</ele>
        <time>2022-01-29T12:19:02Z</time>
      </trkpt>
      <trkpt lat="46.19965" lon="6.15116">
        <ele>336.3</ele>
        <time>2022-01-29T12:19:07Z</time>
      </trkpt>
      <trkpt lat="46.19949" lon="6.15095">
        <ele>337.44</ele>
        <time>2022-01-29T12:19:13Z</time>
      </trkpt>
      <trkpt lat="46.19934" lon="6.15072">
        <ele>338.27</ele>
        <time>2022-01-29T12:19:19Z</time>
      </trkpt>
      <trkpt lat="46.19921" lon="6.15051">
        <ele>338.75</ele>
        <time>2022-01-29T12:19:24Z</time>
      </trkpt>
      <trkpt lat="46.19908" lon="6.15031">
        <ele>339.44</ele>
        <time>2022-01-29T12:19:29Z</time>
      </trkpt>
      <trkpt lat="46.19892" lon="6.15012">
        <ele>340.18</ele>
        <time>2022-01-29T12:19:35Z</time>
      </trkpt>
      <trkpt lat="46.19878" lon="6.1499">
        <ele>340.88</ele>
        <time>2022-01-29T12:19:41Z</time>
      </trkpt>
      <trkpt lat="46.19865" lon="6.14974">
        <ele>341.41</ele>
        <time>2022-01-29T12:19:47Z</time>
      </trkpt>
      <trkpt lat="46.19847" lon="6.14952">
        <ele>341.68</ele>
        <time>2022-01-29T12:19:52Z</time>
      </trkpt>
      <trkpt lat="46.19834" lon="6.14931">
        <ele>341.61</ele>
        <time>2022-01-29T12:19:56Z</time>
      </trkpt>
      <trkpt lat="46.19819" lon="6.14909">
        <ele>340.92</ele>
        <time>2022-01-29T12:20:01Z</time>
      </trkpt>
      <trkpt lat="46.19806" lon="6.14887">
        <ele>343.17</ele>
        <time>2022-01-29T12:21:21Z</time>
      </trkpt>
      <trkpt lat="46.1979" lon="6.14865">
        <ele>343.17</ele>
        <time>2022-01-29T12:21:27Z</time>
      </trkpt>
      <trkpt lat="46.19777" lon="6.14846">
        <ele>343.17</ele>
        <time>2022-01-29T12:21:31Z</time>
      </trkpt>
      <trkpt lat="46.19761" lon="6.14827">
        <ele>343.17</ele>
        <time>2022-01-29T12:21:35Z</time>
      </trkpt>
      <trkpt lat="46.19745" lon="6.14805">
        <ele>343.17</ele>
        <time>2022-01-29T12:21:39Z</time>
      </trkpt>
      <trkpt lat="46.19729" lon="6.14783">
        <ele>343.17</ele>
        <time>2022-01-29T12:21:43Z</time>
      </trkpt>
      <trkpt lat="46.19713" lon="6.14759">
        <ele>343.17</ele>
        <time>2022-01-29T12:21:47Z</time>
      </trkpt>
      <trkpt lat="46.19698" lon="6.14741">
        <ele>343.17</ele>
        <time>2022-01-29T12:21:52Z</time>
      </trkpt>
      <trkpt lat="46.19687" lon="6.14721">
        <ele>337.14</ele>
        <time>2022-01-29T12:22:21Z</time>
      </trkpt>
      <trkpt lat="46.19669" lon="6.14701">
        <ele>337.03</ele>
        <time>2022-01-29T12:22:29Z</time>
      </trkpt>
      <trkpt lat="46.19655" lon="6.14681">
        <ele>336.9</ele>
        <time>2022-01-29T12:22:35Z</time>
      </trkpt>
      <trkpt lat="46.19644" lon="6.14663">
        <ele>337.01</ele>
        <time>2022-01-29T12:22:41Z</time>
      </trkpt>
      <trkpt lat="46.19626" lon="6.14661">
        <ele>337.68</ele>
        <time>2022-01-29T12:22:49Z</time>
      </trkpt>
      <trkpt lat="46.19607" lon="6.14652">
        <ele>338.83</ele>
        <time>2022-01-29T12:22:56Z</time>
      </trkpt>
      <trkpt lat="46.19593" lon="6.14637">
        <ele>339.49</ele>
        <time>2022-01-29T12:23:03Z</time>
      </trkpt>
      <trkpt lat="46.19579" lon="6.14636">
        <ele>339.11</ele>
        <time>2022-01-29T12:23:12Z</time>
      </trkpt>
      <trkpt lat="46.19563" lon="6.14654">
        <ele>340.69</ele>
        <time>2022-01-29T12:23:19Z</time>
      </trkpt>
      <trkpt lat="46.19536" lon="6.14679">
        <ele>340.69</ele>
        <time>2022-01-29T12:24:29Z</time>
      </trkpt>
      <trkpt lat="46.19523" lon="6.14694">
        <ele>340.69</ele>
        <time>2022-01-29T12:24:35Z</time>
      </trkpt>
      <trkpt lat="46.19509" lon="6.14709">
        <ele>340.69</ele>
        <time>2022-01-29T12:24:42Z</time>
      </trkpt>
      <trkpt lat="46.19492" lon="6.14728">
        <ele>340.69</ele>
        <time>2022-01-29T12:24:48Z</time>
      </trkpt>
      <trkpt lat="46.19475" lon="6.14764">
        <ele>340.69</ele>
        <time>2022-01-29T12:24:54Z</time>
      </trkpt>
      <trkpt lat="46.19455" lon="6.14788">
        <ele>340.69</ele>
        <time>2022-01-29T12:24:59Z</time>
      </trkpt>
      <trkpt lat="46.1944" lon="6.14811">
        <ele>340.69</ele>
        <time>2022-01-29T12:25:04Z</time>
      </trkpt>
      <trkpt lat="46.19419" lon="6.14809">
        <ele>340.69</ele>
        <time>2022-01-29T12:25:08Z</time>
      </trkpt>
      <trkpt lat="46.19399" lon="6.14791">
        <ele>340.69</ele>
        <time>2022-01-29T12:25:12Z</time>
      </trkpt>
      <trkpt lat="46.19377" lon="6.14782">
        <ele>340.69</ele>
        <time>2022-01-29T12:25:16Z</time>
      </trkpt>
      <trkpt lat="46.19354" lon="6.14779">
        <ele>340.69</ele>
        <time>2022-01-29T12:25:20Z</time>
      </trkpt>
      <trkpt lat="46.19335" lon="6.14771">
        <ele>340.69</ele>
        <time>2022-01-29T12:25:27Z</time>
      </trkpt>
      <trkpt lat="46.19319" lon="6.14753">
        <ele>340.69</ele>
        <time>2022-01-29T12:25:31Z</time>
      </trkpt>
      <trkpt lat="46.193" lon="6.14742">
        <ele>340.69</ele>
        <time>2022-01-29T12:25:34Z</time>
      </trkpt>
      <trkpt lat="46.19283" lon="6.1473">
        <ele>340.69</ele>
        <time>2022-01-29T12:25:37Z</time>
      </trkpt>
      <trkpt lat="46.19262" lon="6.14715">
        <ele>340.69</ele>
        <time>2022-01-29T12:25:41Z</time>
      </trkpt>
      <trkpt lat="46.1924" lon="6.14706">
        <ele>340.69</ele>
        <time>2022-01-29T12:25:45Z</time>
      </trkpt>
      <trkpt lat="46.19222" lon="6.14695">
        <ele>340.69</ele>
        <time>2022-01-29T12:25:49Z</time>
      </trkpt>
      <trkpt lat="46.19193" lon="6.14692">
        <ele>340.69</ele>
        <time>2022-01-29T12:26:00Z</time>
      </trkpt>
      <trkpt lat="46.19177" lon="6.14678">
        <ele>340.69</ele>
        <time>2022-01-29T12:26:08Z</time>
      </trkpt>
      <trkpt lat="46.19161" lon="6.14662">
        <ele>340.69</ele>
        <time>2022-01-29T12:26:13Z</time>
      </trkpt>
      <trkpt lat="46.19142" lon="6.14651">
        <ele>340.69</ele>
        <time>2022-01-29T12:26:18Z</time>
      </trkpt>
      <trkpt lat="46.19124" lon="6.14643">
        <ele>334.08</ele>
        <time>2022-01-29T12:26:23Z</time>
      </trkpt>
      <trkpt lat="46.19104" lon="6.14634">
        <ele>334.15</ele>
        <time>2022-01-29T12:26:29Z</time>
      </trkpt>
      <trkpt lat="46.19083" lon="6.14614">
        <ele>334.28</ele>
        <time>2022-01-29T12:26:35Z</time>
      </trkpt>
      <trkpt lat="46.19064" lon="6.14598">
        <ele>334.77</ele>
        <time>2022-01-29T12:26:41Z</time>
      </trkpt>
      <trkpt lat="46.19048" lon="6.14593">
        <ele>335.16</ele>
        <time>2022-01-29T12:26:46Z</time>
      </trkpt>
      <trkpt lat="46.1903" lon="6.14582">
        <ele>335.42</ele>
        <time>2022-01-29T12:26:52Z</time>
      </trkpt>
      <trkpt lat="46.19011" lon="6.14565">
        <ele>336.02</ele>
        <time>2022-01-29T12:26:59Z</time>
      </trkpt>
      <trkpt lat="46.18992" lon="6.14551">
        <ele>336.34</ele>
        <time>2022-01-29T12:27:04Z</time>
      </trkpt>
      <trkpt lat="46.18974" lon="6.14535">
        <ele>336.71</ele>
        <time>2022-01-29T12:27:09Z</time>
      </trkpt>
      <trkpt lat="46.18956" lon="6.14521">
        <ele>337.07</ele>
        <time>2022-01-29T12:27:14Z</time>
      </trkpt>
      <trkpt lat="46.18943" lon="6.14504">
        <ele>337.79</ele>
        <time>2022-01-29T12:27:34Z</time>
      </trkpt>
      <trkpt lat="46.18923" lon="6.14493">
        <ele>337.79</ele>
        <time>2022-01-29T12:27:42Z</time>
      </trkpt>
      <trkpt lat="46.18904" lon="6.14484">
        <ele>337.79</ele>
        <time>2022-01-29T12:27:47Z</time>
      </trkpt>
      <trkpt lat="46.18883" lon="6.14475">
        <ele>337.79</ele>
        <time>2022-01-29T12:27:52Z</time>
      </trkpt>
      <trkpt lat="46.18865" lon="6.1447">
        <ele>337.79</ele>
        <time>2022-01-29T12:27:56Z</time>
      </trkpt>
      <trkpt lat="46.18844" lon="6.14462">
        <ele>337.79</ele>
        <time>2022-01-29T12:28:00Z</time>
      </trkpt>
      <trkpt lat="46.18823" lon="6.14456">
        <ele>337.79</ele>
        <time>2022-01-29T12:28:04Z</time>
      </trkpt>
      <trkpt lat="46.18799" lon="6.14447">
        <ele>337.79</ele>
        <time>2022-01-29T12:28:09Z</time>
      </trkpt>
      <trkpt lat="46.18782" lon="6.14435">
        <ele>337.79</ele>
        <time>2022-01-29T12:28:15Z</time>
      </trkpt>
      <trkpt lat="46.18761" lon="6.1443">
        <ele>337.79</ele>
        <time>2022-01-29T12:28:21Z</time>
      </trkpt>
      <trkpt lat="46.18742" lon="6.14424">
        <ele>337.79</ele>
        <time>2022-01-29T12:28:27Z</time>
      </trkpt>
      <trkpt lat="46.1873" lon="6.14399">
        <ele>337.79</ele>
        <time>2022-01-29T12:28:36Z</time>
      </trkpt>
      <trkpt lat="46.18738" lon="6.14372">
        <ele>337.79</ele>
        <time>2022-01-29T12:28:46Z</time>
      </trkpt>
      <trkpt lat="46.18748" lon="6.14344">
        <ele>337.79</ele>
        <time>2022-01-29T12:28:55Z</time>
      </trkpt>
      <trkpt lat="46.18757" lon="6.1432">
        <ele>337.79</ele>
        <time>2022-01-29T12:29:01Z</time>
      </trkpt>
      <trkpt lat="46.18768" lon="6.14298">
        <ele>337.79</ele>
        <time>2022-01-29T12:29:07Z</time>
      </trkpt>
      <trkpt lat="46.18784" lon="6.14284">
        <ele>337.79</ele>
        <time>2022-01-29T12:29:14Z</time>
      </trkpt>
      <trkpt lat="46.18801" lon="6.14266">
        <ele>337.79</ele>
        <time>2022-01-29T12:29:21Z</time>
      </trkpt>
      <trkpt lat="46.18818" lon="6.14246">
        <ele>337.79</ele>
        <time>2022-01-29T12:29:56Z</time>
      </trkpt>
      <trkpt lat="46.18816" lon="6.14222">
        <ele>337.79</ele>
        <time>2022-01-29T12:30:07Z</time>
      </trkpt>
      <trkpt lat="46.18809" lon="6.14198">
        <ele>337.79</ele>
        <time>2022-01-29T12:30:14Z</time>
      </trkpt>
      <trkpt lat="46.18801" lon="6.14173">
        <ele>337.79</ele>
        <time>2022-01-29T12:30:22Z</time>
      </trkpt>
      <trkpt lat="46.18795" lon="6.14148">
        <ele>337.79</ele>
        <time>2022-01-29T12:30:34Z</time>
      </trkpt>
      <trkpt lat="46.18792" lon="6.14121">
        <ele>337.79</ele>
        <time>2022-01-29T12:31:25Z</time>
      </trkpt>
      <trkpt lat="46.18785" lon="6.14096">
        <ele>337.79</ele>
        <time>2022-01-29T12:31:32Z</time>
      </trkpt>
      <trkpt lat="46.18781" lon="6.1407">
        <ele>337.79</ele>
        <time>2022-01-29T12:31:38Z</time>
      </trkpt>
      <trkpt lat="46.18775" lon="6.14041">
        <ele>337.79</ele>
        <time>2022-01-29T12:31:45Z</time>
      </trkpt>
      <trkpt lat="46.18768" lon="6.14014">
        <ele>337.79</ele>
        <time>2022-01-29T12:31:51Z</time>
      </trkpt>
      <trkpt lat="46.1876" lon="6.13987">
        <ele>337.79</ele>
        <time>2022-01-29T12:31:57Z</time>
      </trkpt>
      <trkpt lat="46.1875" lon="6.13966">
        <ele>337.79</ele>
        <time>2022-01-29T12:32:04Z</time>
      </trkpt>
      <trkpt lat="46.18729" lon="6.13971">
        <ele>337.79</ele>
        <time>2022-01-29T12:32:11Z</time>
      </trkpt>
      <trkpt lat="46.1871" lon="6.13976">
        <ele>337.79</ele>
        <time>2022-01-29T12:32:17Z</time>
      </trkpt>
      <trkpt lat="46.18688" lon="6.13985">
        <ele>337.79</ele>
        <time>2022-01-29T12:32:23Z</time>
      </trkpt>
      <trkpt lat="46.18666" lon="6.13989">
        <ele>337.79</ele>
        <time>2022-01-29T12:32:29Z</time>
      </trkpt>
      <trkpt lat="46.1865" lon="6.13983">
        <ele>337.79</ele>
        <time>2022-01-29T12:32:36Z</time>
      </trkpt>
      <trkpt lat="46.18638" lon="6.1396">
        <ele>337.79</ele>
        <time>2022-01-29T12:32:41Z</time>
      </trkpt>
      <trkpt lat="46.18628" lon="6.13934">
        <ele>337.79</ele>
        <time>2022-01-29T12:32:46Z</time>
      </trkpt>
      <trkpt lat="46.18617" lon="6.13906">
        <ele>337.79</ele>
        <time>2022-01-29T12:32:52Z</time>
      </trkpt>
      <trkpt lat="46.1861" lon="6.13882">
        <ele>337.79</ele>
        <time>2022-01-29T12:32:57Z</time>
      </trkpt>
      <trkpt lat="46.18598" lon="6.13853">
        <ele>337.79</ele>
        <time>2022-01-29T12:33:02Z</time>
      </trkpt>
      <trkpt lat="46.18587" lon="6.13829">
        <ele>337.79</ele>
        <time>2022-01-29T12:33:06Z</time>
      </trkpt>
      <trkpt lat="46.18576" lon="6.13803">
        <ele>337.79</ele>
        <time>2022-01-29T12:33:11Z</time>
      </trkpt>
      <trkpt lat="46.18567" lon="6.13781">
        <ele>337.79</ele>
        <time>2022-01-29T12:33:18Z</time>
      </trkpt>
      <trkpt lat="46.18559" lon="6.13754">
        <ele>337.79</ele>
        <time>2022-01-29T12:33:26Z</time>
      </trkpt>
      <trkpt lat="46.1854" lon="6.13749">
        <ele>341.33</ele>
        <time>2022-01-29T12:33:31Z</time>
      </trkpt>
      <trkpt lat="46.18518" lon="6.13752">
        <ele>341.05</ele>
        <time>2022-01-29T12:33:36Z</time>
      </trkpt>
      <trkpt lat="46.18498" lon="6.13756">
        <ele>341.24</ele>
        <time>2022-01-29T12:33:40Z</time>
      </trkpt>
      <trkpt lat="46.18477" lon="6.13757">
        <ele>341.52</ele>
        <time>2022-01-29T12:33:44Z</time>
      </trkpt>
      <trkpt lat="46.18456" lon="6.13757">
        <ele>341.97</ele>
        <time>2022-01-29T12:33:49Z</time>
      </trkpt>
      <trkpt lat="46.18437" lon="6.1376">
        <ele>342.31</ele>
        <time>2022-01-29T12:33:55Z</time>
      </trkpt>
      <trkpt lat="46.18417" lon="6.13764">
        <ele>342.45</ele>
        <time>2022-01-29T12:34:01Z</time>
      </trkpt>
      <trkpt lat="46.18399" lon="6.13767">
        <ele>342.77</ele>
        <time>2022-01-29T12:34:08Z</time>
      </trkpt>
      <trkpt lat="46.18382" lon="6.13767">
        <ele>343.77</ele>
        <time>2022-01-29T12:34:55Z</time>
      </trkpt>
      <trkpt lat="46.18362" lon="6.13766">
        <ele>343.77</ele>
        <time>2022-01-29T12:35:00Z</time>
      </trkpt>
      <trkpt lat="46.18342" lon="6.13769">
        <ele>343.77</ele>
        <time>2022-01-29T12:35:04Z</time>
      </trkpt>
      <trkpt lat="46.1832" lon="6.13775">
        <ele>343.77</ele>
        <time>2022-01-29T12:35:09Z</time>
      </trkpt>
      <trkpt lat="46.18301" lon="6.13778">
        <ele>343.77</ele>
        <time>2022-01-29T12:35:14Z</time>
      </trkpt>
      <trkpt lat="46.1828" lon="6.13785">
        <ele>343.77</ele>
        <time>2022-01-29T12:35:19Z</time>
      </trkpt>
      <trkpt lat="46.18262" lon="6.1379">
        <ele>343.77</ele>
        <time>2022-01-29T12:35:23Z</time>
      </trkpt>
      <trkpt lat="46.18243" lon="6.13795">
        <ele>343.77</ele>
        <time>2022-01-29T12:35:27Z</time>
      </trkpt>
      <trkpt lat="46.18221" lon="6.138">
        <ele>343.77</ele>
        <time>2022-01-29T12:35:31Z</time>
      </trkpt>
      <trkpt lat="46.182" lon="6.13808">
        <ele>343.77</ele>
        <time>2022-01-29T12:35:35Z</time>
      </trkpt>
      <trkpt lat="46.1818" lon="6.13812">
        <ele>343.77</ele>
        <time>2022-01-29T12:35:40Z</time>
      </trkpt>
      <trkpt lat="46.18159" lon="6.13816">
        <ele>343.77</ele>
        <time>2022-01-29T12:35:46Z</time>
      </trkpt>
      <trkpt lat="46.1814" lon="6.1382">
        <ele>343.77</ele>
        <time>2022-01-29T12:35:51Z</time>
      </trkpt>
      <trkpt lat="46.18121" lon="6.13825">
        <ele>343.77</ele>
        <time>2022-01-29T12:35:56Z</time>
      </trkpt>
      <trkpt lat="46.18102" lon="6.13828">
        <ele>343.77</ele>
        <time>2022-01-29T12:36:01Z</time>
      </trkpt>
      <trkpt lat="46.18083" lon="6.13832">
        <ele>343.77</ele>
        <time>2022-01-29T12:36:06Z</time>
      </trkpt>
      <trkpt lat="46.18064" lon="6.13834">
        <ele>343.77</ele>
        <time>2022-01-29T12:36:11Z</time>
      </trkpt>
      <trkpt lat="46.18044" lon="6.1384">
        <ele>343.77</ele>
        <time>2022-01-29T12:36:17Z</time>
      </trkpt>
      <trkpt lat="46.18025" lon="6.13845">
        <ele>343.77</ele>
        <time>2022-01-29T12:36:23Z</time>
      </trkpt>
      <trkpt lat="46.18009" lon="6.13856">
        <ele>343.77</ele>
        <time>2022-01-29T12:36:30Z</time>
      </trkpt>
      <trkpt lat="46.17995" lon="6.13871">
        <ele>347.55</ele>
        <time>2022-01-29T12:36:41Z</time>
      </trkpt>
      <trkpt lat="46.17981" lon="6.1389">
        <ele>348.24</ele>
        <time>2022-01-29T12:36:47Z</time>
      </trkpt>
      <trkpt lat="46.17963" lon="6.13903">
        <ele>349.01</ele>
        <time>2022-01-29T12:36:54Z</time>
      </trkpt>
      <trkpt lat="46.17944" lon="6.13907">
        <ele>349.63</ele>
        <time>2022-01-29T12:36:59Z</time>
      </trkpt>
      <trkpt lat="46.17922" lon="6.1391">
        <ele>350.84</ele>
        <time>2022-01-29T12:37:05Z</time>
      </trkpt>
      <trkpt lat="46.17904" lon="6.13905">
        <ele>352.66</ele>
        <time>2022-01-29T12:37:11Z</time>
      </trkpt>
      <trkpt lat="46.17887" lon="6.13892">
        <ele>354.56</ele>
        <time>2022-01-29T12:37:17Z</time>
      </trkpt>
      <trkpt lat="46.1787" lon="6.13881">
        <ele>356.59</ele>
        <time>2022-01-29T12:37:23Z</time>
      </trkpt>
      <trkpt lat="46.17851" lon="6.13875">
        <ele>358.59</ele>
        <time>2022-01-29T12:37:30Z</time>
      </trkpt>
      <trkpt lat="46.17831" lon="6.13868">
        <ele>360.3</ele>
        <time>2022-01-29T12:37:37Z</time>
      </trkpt>
      <trkpt lat="46.17813" lon="6.13864">
        <ele>361.9</ele>
        <time>2022-01-29T12:37:44Z</time>
      </trkpt>
      <trkpt lat="46.17794" lon="6.13859">
        <ele>363.45</ele>
        <time>2022-01-29T12:37:51Z</time>
      </trkpt>
      <trkpt lat="46.17775" lon="6.13854">
        <ele>365.01</ele>
        <time>2022-01-29T12:37:57Z</time>
      </trkpt>
      <trkpt lat="46.17755" lon="6.13846">
        <ele>366.51</ele>
        <time>2022-01-29T12:38:04Z</time>
      </trkpt>
      <trkpt lat="46.17735" lon="6.1384">
        <ele>367.67</ele>
        <time>2022-01-29T12:38:11Z</time>
      </trkpt>
      <trkpt lat="46.17717" lon="6.1383">
        <ele>368.87</ele>
        <time>2022-01-29T12:38:18Z</time>
      </trkpt>
      <trkpt lat="46.17698" lon="6.1382">
        <ele>370.33</ele>
        <time>2022-01-29T12:38:25Z</time>
      </trkpt>
      <trkpt lat="46.17679" lon="6.13813">
        <ele>371.4</ele>
        <time>2022-01-29T12:38:31Z</time>
      </trkpt>
      <trkpt lat="46.17661" lon="6.13808">
        <ele>372.17</ele>
        <time>2022-01-29T12:38:36Z</time>
      </trkpt>
      <trkpt lat="46.17641" lon="6.13809">
        <ele>373.86</ele>
        <time>2022-01-29T12:38:43Z</time>
      </trkpt>
      <trkpt lat="46.17621" lon="6.1381">
        <ele>375.44</ele>
        <time>2022-01-29T12:38:49Z</time>
      </trkpt>
      <trkpt lat="46.17601" lon="6.13806">
        <ele>376.89</ele>
        <time>2022-01-29T12:38:56Z</time>
      </trkpt>
      <trkpt lat="46.17582" lon="6.13808">
        <ele>377.74</ele>
        <time>2022-01-29T12:39:02Z</time>
      </trkpt>
      <trkpt lat="46.17563" lon="6.13812">
        <ele>378.61</ele>
        <time>2022-01-29T12:39:07Z</time>
      </trkpt>
      <trkpt lat="46.17543" lon="6.1382">
        <ele>379.3</ele>
        <time>2022-01-29T12:39:13Z</time>
      </trkpt>
      <trkpt lat="46.17525" lon="6.13823">
        <ele>379.77</ele>
        <time>2022-01-29T12:39:18Z</time>
      </trkpt>
      <trkpt lat="46.17509" lon="6.13826">
        <ele>380.18</ele>
        <time>2022-01-29T12:39:25Z</time>
      </trkpt>
      <trkpt lat="46.17491" lon="6.13828">
        <ele>380.2</ele>
        <time>2022-01-29T12:39:33Z</time>
      </trkpt>
      <trkpt lat="46.1747" lon="6.13829">
        <ele>380.33</ele>
        <time>2022-01-29T12:39:39Z</time>
      </trkpt>
      <trkpt lat="46.1745" lon="6.13831">
        <ele>380.49</ele>
        <time>2022-01-29T12:39:45Z</time>
      </trkpt>
      <trkpt lat="46.17432" lon="6.13828">
        <ele>380.9</ele>
        <time>2022-01-29T12:39:53Z</time>
      </trkpt>
      <trkpt lat="46.17418" lon="6.13807">
        <ele>380.69</ele>
        <time>2022-01-29T12:39:59Z</time>
      </trkpt>
      <trkpt lat="46.17403" lon="6.13788">
        <ele>380.33</ele>
        <time>2022-01-29T12:40:04Z</time>
      </trkpt>
      <trkpt lat="46.17389" lon="6.13771">
        <ele>379.89</ele>
        <time>2022-01-29T12:40:08Z</time>
      </trkpt>
      <trkpt lat="46.17372" lon="6.13753">
        <ele>379.27</ele>
        <time>2022-01-29T12:40:13Z</time>
      </trkpt>
      <trkpt lat="46.17353" lon="6.13759">
        <ele>378.74</ele>
        <time>2022-01-29T12:40:19Z</time>
      </trkpt>
      <trkpt lat="46.1733" lon="6.13773">
        <ele>378.06</ele>
        <time>2022-01-29T12:40:24Z</time>
      </trkpt>
      <trkpt lat="46.1731" lon="6.13775">
        <ele>377.32</ele>
        <time>2022-01-29T12:40:28Z</time>
      </trkpt>
      <trkpt lat="46.1729" lon="6.13772">
        <ele>376.57</ele>
        <time>2022-01-29T12:40:32Z</time>
      </trkpt>
      <trkpt lat="46.17271" lon="6.13767">
        <ele>376.02</ele>
        <time>2022-01-29T12:40:36Z</time>
      </trkpt>
      <trkpt lat="46.17249" lon="6.13759">
        <ele>375.37</ele>
        <time>2022-01-29T12:40:40Z</time>
      </trkpt>
      <trkpt lat="46.17228" lon="6.13754">
        <ele>374.64</ele>
        <time>2022-01-29T12:40:44Z</time>
      </trkpt>
      <trkpt lat="46.17207" lon="6.13763">
        <ele>374.02</ele>
        <time>2022-01-29T12:40:49Z</time>
      </trkpt>
      <trkpt lat="46.17189" lon="6.13771">
        <ele>373.82</ele>
        <time>2022-01-29T12:40:55Z</time>
      </trkpt>
      <trkpt lat="46.17174" lon="6.13764">
        <ele>373.67</ele>
        <time>2022-01-29T12:41:04Z</time>
      </trkpt>
      <trkpt lat="46.17159" lon="6.13746">
        <ele>373.71</ele>
        <time>2022-01-29T12:41:13Z</time>
      </trkpt>
      <trkpt lat="46.17146" lon="6.13723">
        <ele>376.12</ele>
        <time>2022-01-29T12:41:22Z</time>
      </trkpt>
      <trkpt lat="46.17136" lon="6.13694">
        <ele>379.07</ele>
        <time>2022-01-29T12:41:30Z</time>
      </trkpt>
      <trkpt lat="46.17126" lon="6.13666">
        <ele>383.2</ele>
        <time>2022-01-29T12:41:40Z</time>
      </trkpt>
      <trkpt lat="46.17115" lon="6.13642">
        <ele>386.58</ele>
        <time>2022-01-29T12:41:49Z</time>
      </trkpt>
      <trkpt lat="46.17102" lon="6.13617">
        <ele>389.1</ele>
        <time>2022-01-29T12:41:59Z</time>
      </trkpt>
      <trkpt lat="46.17092" lon="6.13593">
        <ele>390.4</ele>
        <time>2022-01-29T12:42:08Z</time>
      </trkpt>
      <trkpt lat="46.17079" lon="6.1357">
        <ele>393.13</ele>
        <time>2022-01-29T12:42:49Z</time>
      </trkpt>
      <trkpt lat="46.17062" lon="6.13558">
        <ele>393.82</ele>
        <time>2022-01-29T12:42:57Z</time>
      </trkpt>
      <trkpt lat="46.17045" lon="6.13544">
        <ele>394.83</ele>
        <time>2022-01-29T12:43:05Z</time>
      </trkpt>
      <trkpt lat="46.17027" lon="6.13531">
        <ele>396.07</ele>
        <time>2022-01-29T12:43:14Z</time>
      </trkpt>
      <trkpt lat="46.17009" lon="6.13521">
        <ele>396.98</ele>
        <time>2022-01-29T12:43:21Z</time>
      </trkpt>
      <trkpt lat="46.16991" lon="6.13509">
        <ele>397.97</ele>
        <time>2022-01-29T12:43:28Z</time>
      </trkpt>
      <trkpt lat="46.16974" lon="6.13495">
        <ele>398.81</ele>
        <time>2022-01-29T12:43:35Z</time>
      </trkpt>
      <trkpt lat="46.16956" lon="6.13481">
        <ele>399.92</ele>
        <time>2022-01-29T12:43:43Z</time>
      </trkpt>
      <trkpt lat="46.16938" lon="6.13468">
        <ele>400.84</ele>
        <time>2022-01-29T12:43:50Z</time>
      </trkpt>
      <trkpt lat="46.16921" lon="6.13457">
        <ele>401.96</ele>
        <time>2022-01-29T12:43:58Z</time>
      </trkpt>
      <trkpt lat="46.16904" lon="6.13444">
        <ele>402.69</ele>
        <time>2022-01-29T12:44:05Z</time>
      </trkpt>
      <trkpt lat="46.16888" lon="6.1343">
        <ele>403.63</ele>
        <time>2022-01-29T12:44:12Z</time>
      </trkpt>
      <trkpt lat="46.1687" lon="6.13421">
        <ele>404.68</ele>
        <time>2022-01-29T12:44:18Z</time>
      </trkpt>
      <trkpt lat="46.16852" lon="6.1341">
        <ele>405.68</ele>
        <time>2022-01-29T12:44:26Z</time>
      </trkpt>
      <trkpt lat="46.16832" lon="6.13397">
        <ele>406.26</ele>
        <time>2022-01-29T12:44:32Z</time>
      </trkpt>
      <trkpt lat="46.16814" lon="6.13385">
        <ele>407.18</ele>
        <time>2022-01-29T12:44:38Z</time>
      </trkpt>
      <trkpt lat="46.16796" lon="6.13373">
        <ele>407.9</ele>
        <time>2022-01-29T12:44:45Z</time>
      </trkpt>
      <trkpt lat="46.16778" lon="6.1336">
        <ele>408.53</ele>
        <time>2022-01-29T12:44:50Z</time>
      </trkpt>
      <trkpt lat="46.1676" lon="6.13344">
        <ele>409.1</ele>
        <time>2022-01-29T12:44:55Z</time>
      </trkpt>
      <trkpt lat="46.16744" lon="6.13327">
        <ele>409.49</ele>
        <time>2022-01-29T12:45:01Z</time>
      </trkpt>
      <trkpt lat="46.16728" lon="6.13309">
        <ele>409.58</ele>
        <time>2022-01-29T12:45:06Z</time>
      </trkpt>
      <trkpt lat="46.16712" lon="6.1329">
        <ele>409.77</ele>
        <time>2022-01-29T12:45:11Z</time>
      </trkpt>
      <trkpt lat="46.16697" lon="6.13275">
        <ele>409.76</ele>
        <time>2022-01-29T12:45:16Z</time>
      </trkpt>
      <trkpt lat="46.16681" lon="6.13257">
        <ele>409.58</ele>
        <time>2022-01-29T12:45:22Z</time>
      </trkpt>
      <trkpt lat="46.16666" lon="6.1324">
        <ele>409.62</ele>
        <time>2022-01-29T12:45:28Z</time>
      </trkpt>
      <trkpt lat="46.16651" lon="6.13225">
        <ele>409.61</ele>
        <time>2022-01-29T12:45:33Z</time>
      </trkpt>
      <trkpt lat="46.16634" lon="6.13205">
        <ele>409.66</ele>
        <time>2022-01-29T12:45:38Z</time>
      </trkpt>
      <trkpt lat="46.16618" lon="6.13187">
        <ele>409.99</ele>
        <time>2022-01-29T12:45:42Z</time>
      </trkpt>
      <trkpt lat="46.16601" lon="6.13166">
        <ele>409.99</ele>
        <time>2022-01-29T12:45:46Z</time>
      </trkpt>
      <trkpt lat="46.16586" lon="6.13149">
        <ele>409.99</ele>
        <time>2022-01-29T12:45:50Z</time>
      </trkpt>
      <trkpt lat="46.16572" lon="6.13132">
        <ele>409.99</ele>
        <time>2022-01-29T12:45:55Z</time>
      </trkpt>
      <trkpt lat="46.16557" lon="6.13115">
        <ele>409.99</ele>
        <time>2022-01-29T12:46:01Z</time>
      </trkpt>
      <trkpt lat="46.16542" lon="6.13094">
        <ele>409.99</ele>
        <time>2022-01-29T12:46:07Z</time>
      </trkpt>
      <trkpt lat="46.1653" lon="6.13074">
        <ele>409.99</ele>
        <time>2022-01-29T12:46:12Z</time>
      </trkpt>
      <trkpt lat="46.16518" lon="6.13049">
        <ele>409.99</ele>
        <time>2022-01-29T12:46:18Z</time>
      </trkpt>
      <trkpt lat="46.16507" lon="6.13024">
        <ele>409.99</ele>
        <time>2022-01-29T12:46:24Z</time>
      </trkpt>
      <trkpt lat="46.16495" lon="6.12998">
        <ele>409.99</ele>
        <time>2022-01-29T12:46:30Z</time>
      </trkpt>
      <trkpt lat="46.16483" lon="6.12979">
        <ele>409.99</ele>
        <time>2022-01-29T12:46:35Z</time>
      </trkpt>
      <trkpt lat="46.16467" lon="6.12961">
        <ele>409.99</ele>
        <time>2022-01-29T12:46:41Z</time>
      </trkpt>
      <trkpt lat="46.16449" lon="6.12945">
        <ele>409.99</ele>
        <time>2022-01-29T12:46:47Z</time>
      </trkpt>
      <trkpt lat="46.16432" lon="6.1293">
        <ele>409.99</ele>
        <time>2022-01-29T12:46:52Z</time>
      </trkpt>
      <trkpt lat="46.16414" lon="6.12913">
        <ele>409.99</ele>
        <time>2022-01-29T12:46:57Z</time>
      </trkpt>
      <trkpt lat="46.164" lon="6.12896">
        <ele>409.99</ele>
        <time>2022-01-29T12:47:02Z</time>
      </trkpt>
      <trkpt lat="46.16387" lon="6.12877">
        <ele>409.99</ele>
        <time>2022-01-29T12:47:08Z</time>
      </trkpt>
      <trkpt lat="46.16374" lon="6.12857">
        <ele>409.99</ele>
        <time>2022-01-29T12:47:13Z</time>
      </trkpt>
      <trkpt lat="46.1636" lon="6.12835">
        <ele>409.99</ele>
        <time>2022-01-29T12:47:18Z</time>
      </trkpt>
      <trkpt lat="46.16347" lon="6.12814">
        <ele>409.99</ele>
        <time>2022-01-29T12:47:22Z</time>
      </trkpt>
      <trkpt lat="46.16335" lon="6.12794">
        <ele>409.99</ele>
        <time>2022-01-29T12:47:26Z</time>
      </trkpt>
      <trkpt lat="46.16322" lon="6.12772">
        <ele>409.99</ele>
        <time>2022-01-29T12:47:31Z</time>
      </trkpt>
      <trkpt lat="46.16321" lon="6.12747">
        <ele>409.99</ele>
        <time>2022-01-29T12:47:36Z</time>
      </trkpt>
      <trkpt lat="46.16335" lon="6.12725">
        <ele>409.99</ele>
        <time>2022-01-29T12:47:42Z</time>
      </trkpt>
      <trkpt lat="46.16354" lon="6.12716">
        <ele>409.99</ele>
        <time>2022-01-29T12:47:47Z</time>
      </trkpt>
      <trkpt lat="46.16374" lon="6.12705">
        <ele>409.99</ele>
        <time>2022-01-29T12:47:52Z</time>
      </trkpt>
      <trkpt lat="46.16391" lon="6.12696">
        <ele>409.99</ele>
        <time>2022-01-29T12:47:56Z</time>
      </trkpt>
      <trkpt lat="46.1641" lon="6.12689">
        <ele>409.99</ele>
        <time>2022-01-29T12:48:00Z</time>
      </trkpt>
      <trkpt lat="46.16428" lon="6.12681">
        <ele>409.99</ele>
        <time>2022-01-29T12:48:04Z</time>
      </trkpt>
      <trkpt lat="46.16447" lon="6.12671">
        <ele>409.99</ele>
        <time>2022-01-29T12:48:08Z</time>
      </trkpt>
      <trkpt lat="46.16466" lon="6.12662">
        <ele>409.99</ele>
        <time>2022-01-29T12:48:12Z</time>
      </trkpt>
      <trkpt lat="46.16485" lon="6.12652">
        <ele>409.99</ele>
        <time>2022-01-29T12:48:16Z</time>
      </trkpt>
      <trkpt lat="46.16504" lon="6.12642">
        <ele>409.99</ele>
        <time>2022-01-29T12:48:20Z</time>
      </trkpt>
      <trkpt lat="46.16524" lon="6.12632">
        <ele>409.99</ele>
        <time>2022-01-29T12:48:24Z</time>
      </trkpt>
      <trkpt lat="46.16543" lon="6.12622">
        <ele>409.99</ele>
        <time>2022-01-29T12:48:28Z</time>
      </trkpt>
      <trkpt lat="46.16563" lon="6.12614">
        <ele>409.99</ele>
        <time>2022-01-29T12:48:32Z</time>
      </trkpt>
      <trkpt lat="46.16584" lon="6.12606">
        <ele>409.99</ele>
        <time>2022-01-29T12:48:36Z</time>
      </trkpt>
      <trkpt lat="46.16605" lon="6.12597">
        <ele>409.99</ele>
        <time>2022-01-29T12:48:40Z</time>
      </trkpt>
      <trkpt lat="46.16626" lon="6.12589">
        <ele>401.08</ele>
        <time>2022-01-29T12:48:44Z</time>
      </trkpt>
      <trkpt lat="46.16647" lon="6.12581">
        <ele>400.5</ele>
        <time>2022-01-29T12:48:48Z</time>
      </trkpt>
      <trkpt lat="46.16669" lon="6.12573">
        <ele>400.36</ele>
        <time>2022-01-29T12:48:52Z</time>
      </trkpt>
      <trkpt lat="46.16689" lon="6.12566">
        <ele>399.99</ele>
        <time>2022-01-29T12:48:56Z</time>
      </trkpt>
      <trkpt lat="46.16709" lon="6.12558">
        <ele>399.54</ele>
        <time>2022-01-29T12:49:00Z</time>
      </trkpt>
      <trkpt lat="46.16729" lon="6.12552">
        <ele>399.13</ele>
        <time>2022-01-29T12:49:04Z</time>
      </trkpt>
      <trkpt lat="46.16749" lon="6.12545">
        <ele>398.74</ele>
        <time>2022-01-29T12:49:08Z</time>
      </trkpt>
      <trkpt lat="46.16768" lon="6.12538">
        <ele>398.3</ele>
        <time>2022-01-29T12:49:12Z</time>
      </trkpt>
      <trkpt lat="46.16789" lon="6.1253">
        <ele>398.02</ele>
        <time>2022-01-29T12:49:16Z</time>
      </trkpt>
      <trkpt lat="46.16808" lon="6.12524">
        <ele>397.92</ele>
        <time>2022-01-29T12:49:19Z</time>
      </trkpt>
      <trkpt lat="46.16828" lon="6.12517">
        <ele>397.64</ele>
        <time>2022-01-29T12:49:22Z</time>
      </trkpt>
      <trkpt lat="46.16846" lon="6.12511">
        <ele>397.17</ele>
        <time>2022-01-29T12:49:25Z</time>
      </trkpt>
      <trkpt lat="46.16865" lon="6.12504">
        <ele>396.44</ele>
        <time>2022-01-29T12:49:28Z</time>
      </trkpt>
      <trkpt lat="46.16884" lon="6.12497">
        <ele>395.81</ele>
        <time>2022-01-29T12:49:31Z</time>
      </trkpt>
      <trkpt lat="46.16902" lon="6.12491">
        <ele>395.35</ele>
        <time>2022-01-29T12:49:34Z</time>
      </trkpt>
      <trkpt lat="46.16924" lon="6.12482">
        <ele>394.67</ele>
        <time>2022-01-29T12:49:38Z</time>
      </trkpt>
      <trkpt lat="46.16945" lon="6.12474">
        <ele>394.06</ele>
        <time>2022-01-29T12:49:42Z</time>
      </trkpt>
      <trkpt lat="46.16966" lon="6.12466">
        <ele>393.77</ele>
        <time>2022-01-29T12:49:46Z</time>
      </trkpt>
      <trkpt lat="46.16985" lon="6.12458">
        <ele>393.32</ele>
        <time>2022-01-29T12:49:50Z</time>
      </trkpt>
      <trkpt lat="46.17003" lon="6.12451">
        <ele>392.86</ele>
        <time>2022-01-29T12:49:54Z</time>
      </trkpt>
      <trkpt lat="46.17025" lon="6.12443">
        <ele>392.57</ele>
        <time>2022-01-29T12:49:59Z</time>
      </trkpt>
      <trkpt lat="46.17045" lon="6.12435">
        <ele>392.35</ele>
        <time>2022-01-29T12:50:04Z</time>
      </trkpt>
      <trkpt lat="46.17066" lon="6.12428">
        <ele>392.02</ele>
        <time>2022-01-29T12:50:09Z</time>
      </trkpt>
      <trkpt lat="46.17087" lon="6.12421">
        <ele>391.87</ele>
        <time>2022-01-29T12:50:14Z</time>
      </trkpt>
      <trkpt lat="46.17108" lon="6.12415">
        <ele>391.76</ele>
        <time>2022-01-29T12:50:18Z</time>
      </trkpt>
      <trkpt lat="46.17131" lon="6.12417">
        <ele>391.76</ele>
        <time>2022-01-29T12:50:22Z</time>
      </trkpt>
      <trkpt lat="46.17151" lon="6.12419">
        <ele>391.75</ele>
        <time>2022-01-29T12:50:26Z</time>
      </trkpt>
      <trkpt lat="46.17163" lon="6.12403">
        <ele>391.59</ele>
        <time>2022-01-29T12:50:31Z</time>
      </trkpt>
      <trkpt lat="46.17177" lon="6.12388">
        <ele>391.35</ele>
        <time>2022-01-29T12:50:37Z</time>
      </trkpt>
      <trkpt lat="46.17195" lon="6.12382">
        <ele>391.44</ele>
        <time>2022-01-29T12:50:42Z</time>
      </trkpt>
      <trkpt lat="46.17211" lon="6.12371">
        <ele>391.73</ele>
        <time>2022-01-29T12:50:47Z</time>
      </trkpt>
      <trkpt lat="46.17225" lon="6.12355">
        <ele>391.6</ele>
        <time>2022-01-29T12:50:52Z</time>
      </trkpt>
      <trkpt lat="46.17242" lon="6.12347">
        <ele>391.27</ele>
        <time>2022-01-29T12:50:58Z</time>
      </trkpt>
      <trkpt lat="46.17261" lon="6.12343">
        <ele>391.22</ele>
        <time>2022-01-29T12:51:06Z</time>
      </trkpt>
      <trkpt lat="46.17283" lon="6.12335">
        <ele>391.61</ele>
        <time>2022-01-29T12:51:13Z</time>
      </trkpt>
      <trkpt lat="46.17297" lon="6.12323">
        <ele>391.95</ele>
        <time>2022-01-29T12:51:18Z</time>
      </trkpt>
      <trkpt lat="46.17324" lon="6.12318">
        <ele>392.14</ele>
        <time>2022-01-29T12:51:23Z</time>
      </trkpt>
      <trkpt lat="46.17348" lon="6.12312">
        <ele>392.26</ele>
        <time>2022-01-29T12:51:28Z</time>
      </trkpt>
      <trkpt lat="46.17367" lon="6.12313">
        <ele>392.59</ele>
        <time>2022-01-29T12:51:33Z</time>
      </trkpt>
      <trkpt lat="46.17385" lon="6.12309">
        <ele>392.72</ele>
        <time>2022-01-29T12:51:39Z</time>
      </trkpt>
      <trkpt lat="46.17405" lon="6.12306">
        <ele>392.87</ele>
        <time>2022-01-29T12:51:51Z</time>
      </trkpt>
      <trkpt lat="46.17423" lon="6.12301">
        <ele>393.25</ele>
        <time>2022-01-29T12:51:56Z</time>
      </trkpt>
      <trkpt lat="46.17443" lon="6.12294">
        <ele>393.36</ele>
        <time>2022-01-29T12:52:00Z</time>
      </trkpt>
      <trkpt lat="46.17467" lon="6.12287">
        <ele>393.32</ele>
        <time>2022-01-29T12:52:04Z</time>
      </trkpt>
      <trkpt lat="46.17486" lon="6.12281">
        <ele>393.52</ele>
        <time>2022-01-29T12:52:07Z</time>
      </trkpt>
      <trkpt lat="46.17508" lon="6.12274">
        <ele>393.78</ele>
        <time>2022-01-29T12:52:11Z</time>
      </trkpt>
      <trkpt lat="46.17527" lon="6.12267">
        <ele>393.76</ele>
        <time>2022-01-29T12:52:15Z</time>
      </trkpt>
      <trkpt lat="46.17548" lon="6.12258">
        <ele>393.76</ele>
        <time>2022-01-29T12:52:20Z</time>
      </trkpt>
      <trkpt lat="46.17568" lon="6.12258">
        <ele>393.69</ele>
        <time>2022-01-29T12:52:26Z</time>
      </trkpt>
      <trkpt lat="46.17579" lon="6.12283">
        <ele>393.79</ele>
        <time>2022-01-29T12:52:32Z</time>
      </trkpt>
      <trkpt lat="46.17597" lon="6.12286">
        <ele>393.95</ele>
        <time>2022-01-29T12:52:36Z</time>
      </trkpt>
      <trkpt lat="46.17615" lon="6.12275">
        <ele>394.07</ele>
        <time>2022-01-29T12:52:41Z</time>
      </trkpt>
      <trkpt lat="46.17637" lon="6.12268">
        <ele>394.11</ele>
        <time>2022-01-29T12:52:46Z</time>
      </trkpt>
      <trkpt lat="46.17658" lon="6.12261">
        <ele>394.39</ele>
        <time>2022-01-29T12:52:50Z</time>
      </trkpt>
      <trkpt lat="46.17682" lon="6.12254">
        <ele>394.39</ele>
        <time>2022-01-29T12:52:54Z</time>
      </trkpt>
      <trkpt lat="46.17701" lon="6.12248">
        <ele>394.39</ele>
        <time>2022-01-29T12:52:57Z</time>
      </trkpt>
      <trkpt lat="46.1772" lon="6.12242">
        <ele>394.39</ele>
        <time>2022-01-29T12:53:00Z</time>
      </trkpt>
      <trkpt lat="46.17738" lon="6.12237">
        <ele>394.39</ele>
        <time>2022-01-29T12:53:03Z</time>
      </trkpt>
      <trkpt lat="46.17759" lon="6.1223">
        <ele>394.39</ele>
        <time>2022-01-29T12:53:07Z</time>
      </trkpt>
      <trkpt lat="46.17777" lon="6.12223">
        <ele>394.39</ele>
        <time>2022-01-29T12:53:11Z</time>
      </trkpt>
      <trkpt lat="46.17795" lon="6.12217">
        <ele>394.39</ele>
        <time>2022-01-29T12:53:15Z</time>
      </trkpt>
      <trkpt lat="46.17815" lon="6.12211">
        <ele>394.39</ele>
        <time>2022-01-29T12:53:19Z</time>
      </trkpt>
      <trkpt lat="46.17835" lon="6.12205">
        <ele>394.39</ele>
        <time>2022-01-29T12:53:23Z</time>
      </trkpt>
      <trkpt lat="46.17854" lon="6.12199">
        <ele>394.39</ele>
        <time>2022-01-29T12:53:27Z</time>
      </trkpt>
      <trkpt lat="46.17873" lon="6.12193">
        <ele>394.39</ele>
        <time>2022-01-29T12:53:32Z</time>
      </trkpt>
      <trkpt lat="46.17895" lon="6.12186">
        <ele>394.39</ele>
        <time>2022-01-29T12:53:38Z</time>
      </trkpt>
      <trkpt lat="46.17913" lon="6.12182">
        <ele>394.39</ele>
        <time>2022-01-29T12:53:42Z</time>
      </trkpt>
      <trkpt lat="46.17933" lon="6.12176">
        <ele>394.39</ele>
        <time>2022-01-29T12:53:46Z</time>
      </trkpt>
      <trkpt lat="46.17951" lon="6.1217">
        <ele>394.39</ele>
        <time>2022-01-29T12:53:50Z</time>
      </trkpt>
      <trkpt lat="46.1797" lon="6.12165">
        <ele>394.39</ele>
        <time>2022-01-29T12:53:55Z</time>
      </trkpt>
      <trkpt lat="46.17993" lon="6.12158">
        <ele>394.39</ele>
        <time>2022-01-29T12:54:00Z</time>
      </trkpt>
      <trkpt lat="46.18013" lon="6.12152">
        <ele>394.39</ele>
        <time>2022-01-29T12:54:04Z</time>
      </trkpt>
      <trkpt lat="46.18034" lon="6.12145">
        <ele>394.39</ele>
        <time>2022-01-29T12:54:08Z</time>
      </trkpt>
      <trkpt lat="46.18058" lon="6.12138">
        <ele>394.39</ele>
        <time>2022-01-29T12:54:12Z</time>
      </trkpt>
      <trkpt lat="46.18078" lon="6.12133">
        <ele>394.39</ele>
        <time>2022-01-29T12:54:16Z</time>
      </trkpt>
      <trkpt lat="46.18097" lon="6.12127">
        <ele>394.39</ele>
        <time>2022-01-29T12:54:20Z</time>
      </trkpt>
      <trkpt lat="46.18117" lon="6.12123">
        <ele>394.39</ele>
        <time>2022-01-29T12:54:25Z</time>
      </trkpt>
      <trkpt lat="46.18135" lon="6.12118">
        <ele>394.39</ele>
        <time>2022-01-29T12:54:31Z</time>
      </trkpt>
      <trkpt lat="46.18156" lon="6.12112">
        <ele>394.39</ele>
        <time>2022-01-29T12:54:37Z</time>
      </trkpt>
      <trkpt lat="46.18174" lon="6.12104">
        <ele>394.39</ele>
        <time>2022-01-29T12:54:42Z</time>
      </trkpt>
      <trkpt lat="46.18195" lon="6.12097">
        <ele>394.39</ele>
        <time>2022-01-29T12:54:47Z</time>
      </trkpt>
      <trkpt lat="46.18214" lon="6.12089">
        <ele>394.39</ele>
        <time>2022-01-29T12:54:52Z</time>
      </trkpt>
      <trkpt lat="46.18234" lon="6.12079">
        <ele>394.39</ele>
        <time>2022-01-29T12:54:58Z</time>
      </trkpt>
      <trkpt lat="46.18252" lon="6.12068">
        <ele>394.39</ele>
        <time>2022-01-29T12:55:04Z</time>
      </trkpt>
      <trkpt lat="46.18271" lon="6.12061">
        <ele>394.39</ele>
        <time>2022-01-29T12:55:09Z</time>
      </trkpt>
      <trkpt lat="46.1829" lon="6.12054">
        <ele>394.39</ele>
        <time>2022-01-29T12:55:16Z</time>
      </trkpt>
      <trkpt lat="46.18309" lon="6.12049">
        <ele>394.39</ele>
        <time>2022-01-29T12:55:46Z</time>
      </trkpt>
      <trkpt lat="46.18331" lon="6.12044">
        <ele>394.39</ele>
        <time>2022-01-29T12:55:51Z</time>
      </trkpt>
      <trkpt lat="46.18351" lon="6.1204">
        <ele>394.39</ele>
        <time>2022-01-29T12:55:55Z</time>
      </trkpt>
      <trkpt lat="46.18371" lon="6.12037">
        <ele>394.39</ele>
        <time>2022-01-29T12:55:59Z</time>
      </trkpt>
      <trkpt lat="46.1839" lon="6.12034">
        <ele>394.39</ele>
        <time>2022-01-29T12:56:04Z</time>
      </trkpt>
      <trkpt lat="46.18411" lon="6.12027">
        <ele>394.39</ele>
        <time>2022-01-29T12:56:09Z</time>
      </trkpt>
      <trkpt lat="46.18427" lon="6.12017">
        <ele>394.39</ele>
        <time>2022-01-29T12:56:13Z</time>
      </trkpt>
      <trkpt lat="46.18442" lon="6.12001">
        <ele>394.39</ele>
        <time>2022-01-29T12:56:17Z</time>
      </trkpt>
      <trkpt lat="46.18455" lon="6.11979">
        <ele>394.39</ele>
        <time>2022-01-29T12:56:22Z</time>
      </trkpt>
      <trkpt lat="46.18465" lon="6.11956">
        <ele>394.39</ele>
        <time>2022-01-29T12:56:28Z</time>
      </trkpt>
      <trkpt lat="46.18475" lon="6.11934">
        <ele>394.39</ele>
        <time>2022-01-29T12:56:35Z</time>
      </trkpt>
      <trkpt lat="46.18486" lon="6.11911">
        <ele>394.39</ele>
        <time>2022-01-29T12:56:41Z</time>
      </trkpt>
      <trkpt lat="46.18496" lon="6.11888">
        <ele>394.39</ele>
        <time>2022-01-29T12:56:47Z</time>
      </trkpt>
      <trkpt lat="46.18507" lon="6.11865">
        <ele>401.22</ele>
        <time>2022-01-29T12:56:53Z</time>
      </trkpt>
      <trkpt lat="46.18517" lon="6.11843">
        <ele>402.07</ele>
        <time>2022-01-29T12:56:59Z</time>
      </trkpt>
      <trkpt lat="46.18529" lon="6.11818">
        <ele>403.48</ele>
        <time>2022-01-29T12:57:06Z</time>
      </trkpt>
      <trkpt lat="46.18541" lon="6.11795">
        <ele>404.65</ele>
        <time>2022-01-29T12:57:12Z</time>
      </trkpt>
      <trkpt lat="46.18553" lon="6.11773">
        <ele>405.81</ele>
        <time>2022-01-29T12:57:18Z</time>
      </trkpt>
      <trkpt lat="46.18566" lon="6.11755">
        <ele>407.11</ele>
        <time>2022-01-29T12:57:25Z</time>
      </trkpt>
      <trkpt lat="46.18556" lon="6.11772">
        <ele>409.17</ele>
        <time>2022-01-29T12:57:43Z</time>
      </trkpt>
      <trkpt lat="46.18541" lon="6.11798">
        <ele>408.92</ele>
        <time>2022-01-29T12:57:49Z</time>
      </trkpt>
      <trkpt lat="46.18528" lon="6.11824">
        <ele>408.43</ele>
        <time>2022-01-29T12:57:53Z</time>
      </trkpt>
      <trkpt lat="46.18518" lon="6.11847">
        <ele>407.66</ele>
        <time>2022-01-29T12:57:57Z</time>
      </trkpt>
      <trkpt lat="46.18507" lon="6.11873">
        <ele>406.15</ele>
        <time>2022-01-29T12:58:04Z</time>
      </trkpt>
      <trkpt lat="46.18495" lon="6.11899">
        <ele>405.26</ele>
        <time>2022-01-29T12:58:09Z</time>
      </trkpt>
      <trkpt lat="46.18484" lon="6.11922">
        <ele>404.56</ele>
        <time>2022-01-29T12:58:13Z</time>
      </trkpt>
      <trkpt lat="46.18474" lon="6.11944">
        <ele>403.58</ele>
        <time>2022-01-29T12:58:17Z</time>
      </trkpt>
      <trkpt lat="46.18461" lon="6.11971">
        <ele>402.49</ele>
        <time>2022-01-29T12:58:22Z</time>
      </trkpt>
      <trkpt lat="46.18452" lon="6.11996">
        <ele>401.63</ele>
        <time>2022-01-29T12:58:26Z</time>
      </trkpt>
      <trkpt lat="46.18446" lon="6.12022">
        <ele>400.31</ele>
        <time>2022-01-29T12:58:32Z</time>
      </trkpt>
      <trkpt lat="46.18455" lon="6.12028">
        <ele>396.89</ele>
        <time>2022-01-29T12:58:48Z</time>
      </trkpt>
      <trkpt lat="46.18472" lon="6.12042">
        <ele>396.11</ele>
        <time>2022-01-29T12:58:57Z</time>
      </trkpt>
      <trkpt lat="46.18485" lon="6.12035">
        <ele>390.91</ele>
        <time>2022-01-29T12:59:09Z</time>
      </trkpt>
      <trkpt lat="46.18483" lon="6.12005">
        <ele>389.08</ele>
        <time>2022-01-29T12:59:16Z</time>
      </trkpt>
      <trkpt lat="46.18482" lon="6.11973">
        <ele>386</ele>
        <time>2022-01-29T12:59:29Z</time>
      </trkpt>
      <trkpt lat="46.18491" lon="6.11998">
        <ele>385.12</ele>
        <time>2022-01-29T12:59:40Z</time>
      </trkpt>
      <trkpt lat="46.18503" lon="6.12024">
        <ele>384.62</ele>
        <time>2022-01-29T12:59:44Z</time>
      </trkpt>
      <trkpt lat="46.1851" lon="6.1205">
        <ele>383.66</ele>
        <time>2022-01-29T12:59:49Z</time>
      </trkpt>
      <trkpt lat="46.18516" lon="6.1208">
        <ele>383.38</ele>
        <time>2022-01-29T12:59:57Z</time>
      </trkpt>
      <trkpt lat="46.18531" lon="6.12092">
        <ele>384.45</ele>
        <time>2022-01-29T13:00:04Z</time>
      </trkpt>
      <trkpt lat="46.18545" lon="6.12074">
        <ele>385.01</ele>
        <time>2022-01-29T13:00:11Z</time>
      </trkpt>
      <trkpt lat="46.18564" lon="6.12065">
        <ele>385.58</ele>
        <time>2022-01-29T13:00:29Z</time>
      </trkpt>
      <trkpt lat="46.18583" lon="6.1206">
        <ele>384.37</ele>
        <time>2022-01-29T13:00:36Z</time>
      </trkpt>
      <trkpt lat="46.18603" lon="6.12056">
        <ele>383.63</ele>
        <time>2022-01-29T13:00:44Z</time>
      </trkpt>
      <trkpt lat="46.18619" lon="6.1205">
        <ele>383.68</ele>
        <time>2022-01-29T13:01:05Z</time>
      </trkpt>
      <trkpt lat="46.18598" lon="6.1206">
        <ele>384.04</ele>
        <time>2022-01-29T13:01:17Z</time>
      </trkpt>
      <trkpt lat="46.18578" lon="6.12061">
        <ele>385.23</ele>
        <time>2022-01-29T13:01:35Z</time>
      </trkpt>
      <trkpt lat="46.18561" lon="6.1207">
        <ele>385.74</ele>
        <time>2022-01-29T13:01:43Z</time>
      </trkpt>
      <trkpt lat="46.18563" lon="6.12056">
        <ele>388.64</ele>
        <time>2022-01-29T13:02:03Z</time>
      </trkpt>
      <trkpt lat="46.18573" lon="6.12034">
        <ele>389.62</ele>
        <time>2022-01-29T13:02:10Z</time>
      </trkpt>
      <trkpt lat="46.18583" lon="6.1201">
        <ele>391.68</ele>
        <time>2022-01-29T13:02:18Z</time>
      </trkpt>
      <trkpt lat="46.18591" lon="6.11986">
        <ele>394.69</ele>
        <time>2022-01-29T13:02:27Z</time>
      </trkpt>
      <trkpt lat="46.18601" lon="6.11961">
        <ele>399.03</ele>
        <time>2022-01-29T13:02:39Z</time>
      </trkpt>
      <trkpt lat="46.18616" lon="6.11938">
        <ele>404.73</ele>
        <time>2022-01-29T13:02:55Z</time>
      </trkpt>
      <trkpt lat="46.18626" lon="6.11934">
        <ele>410.73</ele>
        <time>2022-01-29T13:03:41Z</time>
      </trkpt>
      <trkpt lat="46.18633" lon="6.11907">
        <ele>412.35</ele>
        <time>2022-01-29T13:04:02Z</time>
      </trkpt>
      <trkpt lat="46.18639" lon="6.11884">
        <ele>415.84</ele>
        <time>2022-01-29T13:04:14Z</time>
      </trkpt>
      <trkpt lat="46.18649" lon="6.11873">
        <ele>419.88</ele>
        <time>2022-01-29T13:04:25Z</time>
      </trkpt>
      <trkpt lat="46.18664" lon="6.11891">
        <ele>421.29</ele>
        <time>2022-01-29T13:04:32Z</time>
      </trkpt>
      <trkpt lat="46.18684" lon="6.11908">
        <ele>421.85</ele>
        <time>2022-01-29T13:04:41Z</time>
      </trkpt>
      <trkpt lat="46.18698" lon="6.11926">
        <ele>422.19</ele>
        <time>2022-01-29T13:04:46Z</time>
      </trkpt>
      <trkpt lat="46.18713" lon="6.11949">
        <ele>422.54</ele>
        <time>2022-01-29T13:04:51Z</time>
      </trkpt>
      <trkpt lat="46.18732" lon="6.11969">
        <ele>422.55</ele>
        <time>2022-01-29T13:04:56Z</time>
      </trkpt>
      <trkpt lat="46.18745" lon="6.11986">
        <ele>422.45</ele>
        <time>2022-01-29T13:05:00Z</time>
      </trkpt>
      <trkpt lat="46.18761" lon="6.12006">
        <ele>421.96</ele>
        <time>2022-01-29T13:05:05Z</time>
      </trkpt>
      <trkpt lat="46.18776" lon="6.12027">
        <ele>421.21</ele>
        <time>2022-01-29T13:05:09Z</time>
      </trkpt>
      <trkpt lat="46.1879" lon="6.12051">
        <ele>420.39</ele>
        <time>2022-01-29T13:05:13Z</time>
      </trkpt>
      <trkpt lat="46.18804" lon="6.12072">
        <ele>419.49</ele>
        <time>2022-01-29T13:05:17Z</time>
      </trkpt>
      <trkpt lat="46.18819" lon="6.12091">
        <ele>418.87</ele>
        <time>2022-01-29T13:05:21Z</time>
      </trkpt>
      <trkpt lat="46.18831" lon="6.12112">
        <ele>418.44</ele>
        <time>2022-01-29T13:05:26Z</time>
      </trkpt>
      <trkpt lat="46.18836" lon="6.12138">
        <ele>417.53</ele>
        <time>2022-01-29T13:05:32Z</time>
      </trkpt>
      <trkpt lat="46.18818" lon="6.12155">
        <ele>413.56</ele>
        <time>2022-01-29T13:05:50Z</time>
      </trkpt>
      <trkpt lat="46.1881" lon="6.12181">
        <ele>410.59</ele>
        <time>2022-01-29T13:05:57Z</time>
      </trkpt>
      <trkpt lat="46.18808" lon="6.12216">
        <ele>407.62</ele>
        <time>2022-01-29T13:06:04Z</time>
      </trkpt>
      <trkpt lat="46.18809" lon="6.12243">
        <ele>405.97</ele>
        <time>2022-01-29T13:06:08Z</time>
      </trkpt>
      <trkpt lat="46.18811" lon="6.1227">
        <ele>403.84</ele>
        <time>2022-01-29T13:06:12Z</time>
      </trkpt>
      <trkpt lat="46.18801" lon="6.12299">
        <ele>399.99</ele>
        <time>2022-01-29T13:06:18Z</time>
      </trkpt>
      <trkpt lat="46.18788" lon="6.12316">
        <ele>398.39</ele>
        <time>2022-01-29T13:06:21Z</time>
      </trkpt>
      <trkpt lat="46.18777" lon="6.12333">
        <ele>395.63</ele>
        <time>2022-01-29T13:06:26Z</time>
      </trkpt>
      <trkpt lat="46.18769" lon="6.12347">
        <ele>393.27</ele>
        <time>2022-01-29T13:07:24Z</time>
      </trkpt>
      <trkpt lat="46.18769" lon="6.12378">
        <ele>393.4</ele>
        <time>2022-01-29T13:07:31Z</time>
      </trkpt>
      <trkpt lat="46.18767" lon="6.12409">
        <ele>393.5</ele>
        <time>2022-01-29T13:07:37Z</time>
      </trkpt>
      <trkpt lat="46.18769" lon="6.12436">
        <ele>393.61</ele>
        <time>2022-01-29T13:07:45Z</time>
      </trkpt>
      <trkpt lat="46.18761" lon="6.12451">
        <ele>394.53</ele>
        <time>2022-01-29T13:08:33Z</time>
      </trkpt>
      <trkpt lat="46.18779" lon="6.12456">
        <ele>394.53</ele>
        <time>2022-01-29T13:08:57Z</time>
      </trkpt>
      <trkpt lat="46.18799" lon="6.12453">
        <ele>394.53</ele>
        <time>2022-01-29T13:09:05Z</time>
      </trkpt>
      <trkpt lat="46.18817" lon="6.12445">
        <ele>394.53</ele>
        <time>2022-01-29T13:09:14Z</time>
      </trkpt>
      <trkpt lat="46.18833" lon="6.12426">
        <ele>394.53</ele>
        <time>2022-01-29T13:09:53Z</time>
      </trkpt>
      <trkpt lat="46.18845" lon="6.12407">
        <ele>394.53</ele>
        <time>2022-01-29T13:09:59Z</time>
      </trkpt>
      <trkpt lat="46.18856" lon="6.12386">
        <ele>400.83</ele>
        <time>2022-01-29T13:10:06Z</time>
      </trkpt>
      <trkpt lat="46.18868" lon="6.12364">
        <ele>401.34</ele>
        <time>2022-01-29T13:10:13Z</time>
      </trkpt>
      <trkpt lat="46.18882" lon="6.12342">
        <ele>403.11</ele>
        <time>2022-01-29T13:10:21Z</time>
      </trkpt>
      <trkpt lat="46.18897" lon="6.12324">
        <ele>405.51</ele>
        <time>2022-01-29T13:10:29Z</time>
      </trkpt>
      <trkpt lat="46.18913" lon="6.1231">
        <ele>408.3</ele>
        <time>2022-01-29T13:10:38Z</time>
      </trkpt>
      <trkpt lat="46.18932" lon="6.12294">
        <ele>411.68</ele>
        <time>2022-01-29T13:10:48Z</time>
      </trkpt>
      <trkpt lat="46.18951" lon="6.1228">
        <ele>414.82</ele>
        <time>2022-01-29T13:10:58Z</time>
      </trkpt>
      <trkpt lat="46.18973" lon="6.12263">
        <ele>417.86</ele>
        <time>2022-01-29T13:11:09Z</time>
      </trkpt>
      <trkpt lat="46.18993" lon="6.12245">
        <ele>420.97</ele>
        <time>2022-01-29T13:11:20Z</time>
      </trkpt>
      <trkpt lat="46.19005" lon="6.12219">
        <ele>423.9</ele>
        <time>2022-01-29T13:11:30Z</time>
      </trkpt>
      <trkpt lat="46.19013" lon="6.1219">
        <ele>426.8</ele>
        <time>2022-01-29T13:11:41Z</time>
      </trkpt>
      <trkpt lat="46.19015" lon="6.1216">
        <ele>429.62</ele>
        <time>2022-01-29T13:11:51Z</time>
      </trkpt>
      <trkpt lat="46.19012" lon="6.12129">
        <ele>432.09</ele>
        <time>2022-01-29T13:12:01Z</time>
      </trkpt>
      <trkpt lat="46.19002" lon="6.12103">
        <ele>434.16</ele>
        <time>2022-01-29T13:12:10Z</time>
      </trkpt>
      <trkpt lat="46.1899" lon="6.12081">
        <ele>436.34</ele>
        <time>2022-01-29T13:12:19Z</time>
      </trkpt>
      <trkpt lat="46.18977" lon="6.12059">
        <ele>437.78</ele>
        <time>2022-01-29T13:12:27Z</time>
      </trkpt>
      <trkpt lat="46.18968" lon="6.12035">
        <ele>439.22</ele>
        <time>2022-01-29T13:12:35Z</time>
      </trkpt>
      <trkpt lat="46.18967" lon="6.12007">
        <ele>441.03</ele>
        <time>2022-01-29T13:12:42Z</time>
      </trkpt>
      <trkpt lat="46.18977" lon="6.1198">
        <ele>441.96</ele>
        <time>2022-01-29T13:12:48Z</time>
      </trkpt>
      <trkpt lat="46.18985" lon="6.11955">
        <ele>442.93</ele>
        <time>2022-01-29T13:12:55Z</time>
      </trkpt>
      <trkpt lat="46.18995" lon="6.11933">
        <ele>443.42</ele>
        <time>2022-01-29T13:13:01Z</time>
      </trkpt>
      <trkpt lat="46.19006" lon="6.11912">
        <ele>443.44</ele>
        <time>2022-01-29T13:13:10Z</time>
      </trkpt>
      <trkpt lat="46.19023" lon="6.11895">
        <ele>445.02</ele>
        <time>2022-01-29T13:14:25Z</time>
      </trkpt>
      <trkpt lat="46.19016" lon="6.11868">
        <ele>445.02</ele>
        <time>2022-01-29T13:14:46Z</time>
      </trkpt>
      <trkpt lat="46.1902" lon="6.11841">
        <ele>445.02</ele>
        <time>2022-01-29T13:14:55Z</time>
      </trkpt>
      <trkpt lat="46.19028" lon="6.11816">
        <ele>445.02</ele>
        <time>2022-01-29T13:15:00Z</time>
      </trkpt>
      <trkpt lat="46.19043" lon="6.11796">
        <ele>445.02</ele>
        <time>2022-01-29T13:15:06Z</time>
      </trkpt>
      <trkpt lat="46.19061" lon="6.11786">
        <ele>447.81</ele>
        <time>2022-01-29T13:15:12Z</time>
      </trkpt>
      <trkpt lat="46.19077" lon="6.11777">
        <ele>447.89</ele>
        <time>2022-01-29T13:15:17Z</time>
      </trkpt>
      <trkpt lat="46.19091" lon="6.11765">
        <ele>447.81</ele>
        <time>2022-01-29T13:15:23Z</time>
      </trkpt>
      <trkpt lat="46.19105" lon="6.1175">
        <ele>447.92</ele>
        <time>2022-01-29T13:15:28Z</time>
      </trkpt>
      <trkpt lat="46.19123" lon="6.1174">
        <ele>448.09</ele>
        <time>2022-01-29T13:15:33Z</time>
      </trkpt>
      <trkpt lat="46.19139" lon="6.11727">
        <ele>448.05</ele>
        <time>2022-01-29T13:15:39Z</time>
      </trkpt>
      <trkpt lat="46.19158" lon="6.11711">
        <ele>448.12</ele>
        <time>2022-01-29T13:15:45Z</time>
      </trkpt>
      <trkpt lat="46.19179" lon="6.117">
        <ele>448.3</ele>
        <time>2022-01-29T13:15:50Z</time>
      </trkpt>
      <trkpt lat="46.192" lon="6.1169">
        <ele>448.37</ele>
        <time>2022-01-29T13:15:55Z</time>
      </trkpt>
      <trkpt lat="46.1922" lon="6.11676">
        <ele>448.05</ele>
        <time>2022-01-29T13:16:01Z</time>
      </trkpt>
      <trkpt lat="46.19241" lon="6.1168">
        <ele>447.89</ele>
        <time>2022-01-29T13:16:09Z</time>
      </trkpt>
      <trkpt lat="46.19253" lon="6.11707">
        <ele>448</ele>
        <time>2022-01-29T13:16:14Z</time>
      </trkpt>
      <trkpt lat="46.19263" lon="6.11733">
        <ele>448.02</ele>
        <time>2022-01-29T13:16:18Z</time>
      </trkpt>
      <trkpt lat="46.19274" lon="6.11757">
        <ele>447.91</ele>
        <time>2022-01-29T13:16:22Z</time>
      </trkpt>
      <trkpt lat="46.19284" lon="6.11781">
        <ele>447.58</ele>
        <time>2022-01-29T13:16:26Z</time>
      </trkpt>
      <trkpt lat="46.19291" lon="6.1181">
        <ele>447.36</ele>
        <time>2022-01-29T13:16:31Z</time>
      </trkpt>
      <trkpt lat="46.19303" lon="6.11832">
        <ele>447.31</ele>
        <time>2022-01-29T13:16:37Z</time>
      </trkpt>
      <trkpt lat="46.19314" lon="6.11859">
        <ele>447.63</ele>
        <time>2022-01-29T13:16:44Z</time>
      </trkpt>
      <trkpt lat="46.19324" lon="6.11881">
        <ele>447.77</ele>
        <time>2022-01-29T13:16:48Z</time>
      </trkpt>
      <trkpt lat="46.19335" lon="6.11904">
        <ele>447.83</ele>
        <time>2022-01-29T13:16:52Z</time>
      </trkpt>
      <trkpt lat="46.19346" lon="6.11929">
        <ele>447.76</ele>
        <time>2022-01-29T13:16:57Z</time>
      </trkpt>
      <trkpt lat="46.19355" lon="6.11954">
        <ele>447.29</ele>
        <time>2022-01-29T13:17:03Z</time>
      </trkpt>
      <trkpt lat="46.19363" lon="6.11978">
        <ele>447.35</ele>
        <time>2022-01-29T13:17:12Z</time>
      </trkpt>
      <trkpt lat="46.19375" lon="6.12002">
        <ele>447.09</ele>
        <time>2022-01-29T13:17:19Z</time>
      </trkpt>
      <trkpt lat="46.19387" lon="6.12029">
        <ele>446.69</ele>
        <time>2022-01-29T13:17:25Z</time>
      </trkpt>
      <trkpt lat="46.19399" lon="6.12052">
        <ele>446.37</ele>
        <time>2022-01-29T13:17:30Z</time>
      </trkpt>
      <trkpt lat="46.19419" lon="6.12069">
        <ele>445.77</ele>
        <time>2022-01-29T13:17:36Z</time>
      </trkpt>
      <trkpt lat="46.1944" lon="6.12077">
        <ele>445.28</ele>
        <time>2022-01-29T13:17:42Z</time>
      </trkpt>
      <trkpt lat="46.19461" lon="6.12083">
        <ele>444.97</ele>
        <time>2022-01-29T13:17:48Z</time>
      </trkpt>
      <trkpt lat="46.19482" lon="6.12091">
        <ele>444.66</ele>
        <time>2022-01-29T13:17:54Z</time>
      </trkpt>
      <trkpt lat="46.19503" lon="6.12102">
        <ele>444.45</ele>
        <time>2022-01-29T13:18:00Z</time>
      </trkpt>
      <trkpt lat="46.19523" lon="6.12111">
        <ele>444.14</ele>
        <time>2022-01-29T13:18:06Z</time>
      </trkpt>
      <trkpt lat="46.19539" lon="6.12119">
        <ele>443.81</ele>
        <time>2022-01-29T13:18:11Z</time>
      </trkpt>
      <trkpt lat="46.19558" lon="6.1213">
        <ele>443.38</ele>
        <time>2022-01-29T13:18:16Z</time>
      </trkpt>
      <trkpt lat="46.19576" lon="6.12139">
        <ele>442.85</ele>
        <time>2022-01-29T13:18:20Z</time>
      </trkpt>
      <trkpt lat="46.19593" lon="6.1215">
        <ele>441.77</ele>
        <time>2022-01-29T13:18:26Z</time>
      </trkpt>
      <trkpt lat="46.19582" lon="6.12173">
        <ele>440.38</ele>
        <time>2022-01-29T13:18:34Z</time>
      </trkpt>
      <trkpt lat="46.19593" lon="6.12158">
        <ele>439.93</ele>
        <time>2022-01-29T13:19:03Z</time>
      </trkpt>
      <trkpt lat="46.1961" lon="6.12169">
        <ele>440.96</ele>
        <time>2022-01-29T13:19:36Z</time>
      </trkpt>
      <trkpt lat="46.19632" lon="6.12168">
        <ele>441.64</ele>
        <time>2022-01-29T13:20:04Z</time>
      </trkpt>
      <trkpt lat="46.19633" lon="6.12197">
        <ele>441.5</ele>
        <time>2022-01-29T13:20:13Z</time>
      </trkpt>
      <trkpt lat="46.19626" lon="6.12232">
        <ele>441.17</ele>
        <time>2022-01-29T13:20:21Z</time>
      </trkpt>
      <trkpt lat="46.19615" lon="6.12255">
        <ele>441.17</ele>
        <time>2022-01-29T13:20:27Z</time>
      </trkpt>
      <trkpt lat="46.19614" lon="6.12288">
        <ele>441.17</ele>
        <time>2022-01-29T13:20:32Z</time>
      </trkpt>
      <trkpt lat="46.19611" lon="6.12314">
        <ele>441.17</ele>
        <time>2022-01-29T13:20:36Z</time>
      </trkpt>
      <trkpt lat="46.196" lon="6.12342">
        <ele>441.17</ele>
        <time>2022-01-29T13:20:43Z</time>
      </trkpt>
      <trkpt lat="46.19605" lon="6.12367">
        <ele>441.17</ele>
        <time>2022-01-29T13:20:49Z</time>
      </trkpt>
      <trkpt lat="46.1961" lon="6.12395">
        <ele>441.17</ele>
        <time>2022-01-29T13:20:54Z</time>
      </trkpt>
      <trkpt lat="46.19615" lon="6.12424">
        <ele>441.17</ele>
        <time>2022-01-29T13:20:59Z</time>
      </trkpt>
      <trkpt lat="46.19618" lon="6.1246">
        <ele>430.66</ele>
        <time>2022-01-29T13:21:49Z</time>
      </trkpt>
      <trkpt lat="46.19614" lon="6.12488">
        <ele>431.62</ele>
        <time>2022-01-29T13:22:03Z</time>
      </trkpt>
      <trkpt lat="46.19621" lon="6.12516">
        <ele>431.37</ele>
        <time>2022-01-29T13:22:13Z</time>
      </trkpt>
      <trkpt lat="46.19633" lon="6.12542">
        <ele>430.64</ele>
        <time>2022-01-29T13:22:18Z</time>
      </trkpt>
      <trkpt lat="46.19647" lon="6.12567">
        <ele>430.04</ele>
        <time>2022-01-29T13:22:22Z</time>
      </trkpt>
      <trkpt lat="46.19662" lon="6.12589">
        <ele>428.21</ele>
        <time>2022-01-29T13:22:28Z</time>
      </trkpt>
      <trkpt lat="46.19646" lon="6.12584">
        <ele>426.84</ele>
        <time>2022-01-29T13:22:50Z</time>
      </trkpt>
      <trkpt lat="46.19637" lon="6.12557">
        <ele>427.51</ele>
        <time>2022-01-29T13:22:57Z</time>
      </trkpt>
      <trkpt lat="46.19627" lon="6.12525">
        <ele>429.66</ele>
        <time>2022-01-29T13:23:06Z</time>
      </trkpt>
      <trkpt lat="46.19606" lon="6.12503">
        <ele>431.32</ele>
        <time>2022-01-29T13:23:14Z</time>
      </trkpt>
      <trkpt lat="46.19606" lon="6.12474">
        <ele>432.85</ele>
        <time>2022-01-29T13:23:23Z</time>
      </trkpt>
      <trkpt lat="46.19616" lon="6.12451">
        <ele>432.8</ele>
        <time>2022-01-29T13:23:33Z</time>
      </trkpt>
      <trkpt lat="46.1963" lon="6.12473">
        <ele>432.4</ele>
        <time>2022-01-29T13:23:41Z</time>
      </trkpt>
      <trkpt lat="46.19639" lon="6.12496">
        <ele>430.73</ele>
        <time>2022-01-29T13:23:48Z</time>
      </trkpt>
      <trkpt lat="46.19643" lon="6.12525">
        <ele>428.67</ele>
        <time>2022-01-29T13:23:53Z</time>
      </trkpt>
      <trkpt lat="46.19652" lon="6.12559">
        <ele>427.15</ele>
        <time>2022-01-29T13:23:58Z</time>
      </trkpt>
      <trkpt lat="46.19665" lon="6.12586">
        <ele>426.3</ele>
        <time>2022-01-29T13:24:03Z</time>
      </trkpt>
      <trkpt lat="46.19679" lon="6.12615">
        <ele>425.65</ele>
        <time>2022-01-29T13:24:09Z</time>
      </trkpt>
      <trkpt lat="46.19695" lon="6.12643">
        <ele>425.3</ele>
        <time>2022-01-29T13:24:15Z</time>
      </trkpt>
      <trkpt lat="46.19702" lon="6.12669">
        <ele>424.65</ele>
        <time>2022-01-29T13:24:20Z</time>
      </trkpt>
      <trkpt lat="46.19709" lon="6.127">
        <ele>421.98</ele>
        <time>2022-01-29T13:24:26Z</time>
      </trkpt>
      <trkpt lat="46.19728" lon="6.12719">
        <ele>419.1</ele>
        <time>2022-01-29T13:24:31Z</time>
      </trkpt>
      <trkpt lat="46.19747" lon="6.12723">
        <ele>417.03</ele>
        <time>2022-01-29T13:24:37Z</time>
      </trkpt>
      <trkpt lat="46.19766" lon="6.12728">
        <ele>417.47</ele>
        <time>2022-01-29T13:24:44Z</time>
      </trkpt>
      <trkpt lat="46.19786" lon="6.12734">
        <ele>418.12</ele>
        <time>2022-01-29T13:24:49Z</time>
      </trkpt>
      <trkpt lat="46.19804" lon="6.12738">
        <ele>417.71</ele>
        <time>2022-01-29T13:24:56Z</time>
      </trkpt>
      <trkpt lat="46.19823" lon="6.12746">
        <ele>416.96</ele>
        <time>2022-01-29T13:25:02Z</time>
      </trkpt>
      <trkpt lat="46.19844" lon="6.12752">
        <ele>416.29</ele>
        <time>2022-01-29T13:25:07Z</time>
      </trkpt>
      <trkpt lat="46.19863" lon="6.12756">
        <ele>415.89</ele>
        <time>2022-01-29T13:25:11Z</time>
      </trkpt>
      <trkpt lat="46.1988" lon="6.1276">
        <ele>414.4</ele>
        <time>2022-01-29T13:25:17Z</time>
      </trkpt>
      <trkpt lat="46.19899" lon="6.12767">
        <ele>409.84</ele>
        <time>2022-01-29T13:25:28Z</time>
      </trkpt>
      <trkpt lat="46.19915" lon="6.12784">
        <ele>408.62</ele>
        <time>2022-01-29T13:25:37Z</time>
      </trkpt>
      <trkpt lat="46.19931" lon="6.12776">
        <ele>408.26</ele>
        <time>2022-01-29T13:25:45Z</time>
      </trkpt>
      <trkpt lat="46.19942" lon="6.12754">
        <ele>408.05</ele>
        <time>2022-01-29T13:25:50Z</time>
      </trkpt>
      <trkpt lat="46.19954" lon="6.12729">
        <ele>408.01</ele>
        <time>2022-01-29T13:25:55Z</time>
      </trkpt>
      <trkpt lat="46.19966" lon="6.12702">
        <ele>408.04</ele>
        <time>2022-01-29T13:26:00Z</time>
      </trkpt>
      <trkpt lat="46.19975" lon="6.12676">
        <ele>408.15</ele>
        <time>2022-01-29T13:26:04Z</time>
      </trkpt>
      <trkpt lat="46.19983" lon="6.12645">
        <ele>408.23</ele>
        <time>2022-01-29T13:26:08Z</time>
      </trkpt>
      <trkpt lat="46.19988" lon="6.12617">
        <ele>408.24</ele>
        <time>2022-01-29T13:26:12Z</time>
      </trkpt>
      <trkpt lat="46.19994" lon="6.12588">
        <ele>408.18</ele>
        <time>2022-01-29T13:26:17Z</time>
      </trkpt>
      <trkpt lat="46.19999" lon="6.12558">
        <ele>408.01</ele>
        <time>2022-01-29T13:26:22Z</time>
      </trkpt>
      <trkpt lat="46.20001" lon="6.12525">
        <ele>407.98</ele>
        <time>2022-01-29T13:26:27Z</time>
      </trkpt>
      <trkpt lat="46.20005" lon="6.12497">
        <ele>407.82</ele>
        <time>2022-01-29T13:26:32Z</time>
      </trkpt>
      <trkpt lat="46.2001" lon="6.12469">
        <ele>407.48</ele>
        <time>2022-01-29T13:26:37Z</time>
      </trkpt>
      <trkpt lat="46.20011" lon="6.12441">
        <ele>407.36</ele>
        <time>2022-01-29T13:26:43Z</time>
      </trkpt>
      <trkpt lat="46.20016" lon="6.12415">
        <ele>407.07</ele>
        <time>2022-01-29T13:26:51Z</time>
      </trkpt>
      <trkpt lat="46.20029" lon="6.12418">
        <ele>407</ele>
        <time>2022-01-29T13:27:02Z</time>
      </trkpt>
      <trkpt lat="46.20024" lon="6.12449">
        <ele>406.9</ele>
        <time>2022-01-29T13:27:09Z</time>
      </trkpt>
      <trkpt lat="46.2002" lon="6.1248">
        <ele>406.53</ele>
        <time>2022-01-29T13:27:15Z</time>
      </trkpt>
      <trkpt lat="46.20015" lon="6.12508">
        <ele>406.13</ele>
        <time>2022-01-29T13:27:20Z</time>
      </trkpt>
      <trkpt lat="46.20015" lon="6.12534">
        <ele>405.73</ele>
        <time>2022-01-29T13:27:25Z</time>
      </trkpt>
      <trkpt lat="46.20036" lon="6.12547">
        <ele>405.25</ele>
        <time>2022-01-29T13:27:32Z</time>
      </trkpt>
      <trkpt lat="46.20053" lon="6.12558">
        <ele>405.01</ele>
        <time>2022-01-29T13:27:39Z</time>
      </trkpt>
      <trkpt lat="46.2007" lon="6.12569">
        <ele>404.87</ele>
        <time>2022-01-29T13:27:47Z</time>
      </trkpt>
      <trkpt lat="46.20089" lon="6.12581">
        <ele>404.89</ele>
        <time>2022-01-29T13:27:54Z</time>
      </trkpt>
      <trkpt lat="46.20107" lon="6.12591">
        <ele>404.94</ele>
        <time>2022-01-29T13:28:01Z</time>
      </trkpt>
      <trkpt lat="46.20128" lon="6.12592">
        <ele>405.07</ele>
        <time>2022-01-29T13:28:08Z</time>
      </trkpt>
      <trkpt lat="46.20148" lon="6.12594">
        <ele>405.2</ele>
        <time>2022-01-29T13:28:14Z</time>
      </trkpt>
      <trkpt lat="46.20168" lon="6.12597">
        <ele>405.25</ele>
        <time>2022-01-29T13:28:19Z</time>
      </trkpt>
      <trkpt lat="46.20192" lon="6.12601">
        <ele>405.41</ele>
        <time>2022-01-29T13:28:24Z</time>
      </trkpt>
      <trkpt lat="46.20209" lon="6.12604">
        <ele>405.38</ele>
        <time>2022-01-29T13:28:29Z</time>
      </trkpt>
      <trkpt lat="46.20225" lon="6.1261">
        <ele>405.04</ele>
        <time>2022-01-29T13:28:35Z</time>
      </trkpt>
      <trkpt lat="46.20233" lon="6.12639">
        <ele>403.68</ele>
        <time>2022-01-29T13:28:41Z</time>
      </trkpt>
      <trkpt lat="46.20238" lon="6.12672">
        <ele>403.15</ele>
        <time>2022-01-29T13:28:47Z</time>
      </trkpt>
      <trkpt lat="46.20244" lon="6.12699">
        <ele>403.24</ele>
        <time>2022-01-29T13:28:51Z</time>
      </trkpt>
      <trkpt lat="46.20249" lon="6.12727">
        <ele>403.48</ele>
        <time>2022-01-29T13:28:55Z</time>
      </trkpt>
      <trkpt lat="46.20253" lon="6.12761">
        <ele>403.59</ele>
        <time>2022-01-29T13:29:00Z</time>
      </trkpt>
      <trkpt lat="46.20256" lon="6.12793">
        <ele>403.57</ele>
        <time>2022-01-29T13:29:05Z</time>
      </trkpt>
      <trkpt lat="46.20257" lon="6.12821">
        <ele>403.37</ele>
        <time>2022-01-29T13:29:11Z</time>
      </trkpt>
      <trkpt lat="46.20262" lon="6.12853">
        <ele>403.5</ele>
        <time>2022-01-29T13:29:18Z</time>
      </trkpt>
      <trkpt lat="46.20267" lon="6.12882">
        <ele>403.64</ele>
        <time>2022-01-29T13:29:23Z</time>
      </trkpt>
      <trkpt lat="46.2027" lon="6.12912">
        <ele>403.91</ele>
        <time>2022-01-29T13:29:28Z</time>
      </trkpt>
      <trkpt lat="46.20269" lon="6.1294">
        <ele>404.08</ele>
        <time>2022-01-29T13:29:32Z</time>
      </trkpt>
      <trkpt lat="46.20269" lon="6.12969">
        <ele>404.13</ele>
        <time>2022-01-29T13:29:36Z</time>
      </trkpt>
      <trkpt lat="46.20269" lon="6.13">
        <ele>404.39</ele>
        <time>2022-01-29T13:29:41Z</time>
      </trkpt>
      <trkpt lat="46.20268" lon="6.13028">
        <ele>405</ele>
        <time>2022-01-29T13:29:48Z</time>
      </trkpt>
      <trkpt lat="46.20266" lon="6.13057">
        <ele>405.48</ele>
        <time>2022-01-29T13:29:53Z</time>
      </trkpt>
      <trkpt lat="46.20265" lon="6.13086">
        <ele>405.84</ele>
        <time>2022-01-29T13:29:58Z</time>
      </trkpt>
      <trkpt lat="46.20265" lon="6.13114">
        <ele>405.99</ele>
        <time>2022-01-29T13:30:05Z</time>
      </trkpt>
      <trkpt lat="46.20268" lon="6.1314">
        <ele>406.61</ele>
        <time>2022-01-29T13:30:53Z</time>
      </trkpt>
      <trkpt lat="46.20268" lon="6.13128">
        <ele>407.01</ele>
        <time>2022-01-29T13:31:27Z</time>
      </trkpt>
      <trkpt lat="46.20271" lon="6.13154">
        <ele>407.01</ele>
        <time>2022-01-29T13:31:43Z</time>
      </trkpt>
      <trkpt lat="46.20272" lon="6.13187">
        <ele>407.01</ele>
        <time>2022-01-29T13:31:50Z</time>
      </trkpt>
      <trkpt lat="46.20279" lon="6.13213">
        <ele>407.01</ele>
        <time>2022-01-29T13:31:59Z</time>
      </trkpt>
      <trkpt lat="46.20283" lon="6.13244">
        <ele>407.01</ele>
        <time>2022-01-29T13:32:04Z</time>
      </trkpt>
      <trkpt lat="46.2029" lon="6.13271">
        <ele>407.01</ele>
        <time>2022-01-29T13:32:09Z</time>
      </trkpt>
      <trkpt lat="46.20295" lon="6.13298">
        <ele>407.01</ele>
        <time>2022-01-29T13:32:15Z</time>
      </trkpt>
      <trkpt lat="46.20284" lon="6.13315">
        <ele>407.01</ele>
        <time>2022-01-29T13:32:28Z</time>
      </trkpt>
      <trkpt lat="46.20292" lon="6.13344">
        <ele>407.01</ele>
        <time>2022-01-29T13:32:35Z</time>
      </trkpt>
      <trkpt lat="46.20298" lon="6.13374">
        <ele>407.01</ele>
        <time>2022-01-29T13:32:40Z</time>
      </trkpt>
      <trkpt lat="46.20302" lon="6.13403">
        <ele>407.01</ele>
        <time>2022-01-29T13:32:46Z</time>
      </trkpt>
      <trkpt lat="46.20308" lon="6.1343">
        <ele>407.01</ele>
        <time>2022-01-29T13:32:52Z</time>
      </trkpt>
      <trkpt lat="46.2031" lon="6.13459">
        <ele>407.01</ele>
        <time>2022-01-29T13:32:57Z</time>
      </trkpt>
      <trkpt lat="46.20312" lon="6.13489">
        <ele>407.01</ele>
        <time>2022-01-29T13:33:02Z</time>
      </trkpt>
      <trkpt lat="46.20313" lon="6.13518">
        <ele>407.01</ele>
        <time>2022-01-29T13:33:08Z</time>
      </trkpt>
      <trkpt lat="46.20314" lon="6.13545">
        <ele>407.01</ele>
        <time>2022-01-29T13:33:13Z</time>
      </trkpt>
      <trkpt lat="46.20316" lon="6.13574">
        <ele>407.01</ele>
        <time>2022-01-29T13:33:17Z</time>
      </trkpt>
      <trkpt lat="46.20319" lon="6.13602">
        <ele>407.01</ele>
        <time>2022-01-29T13:33:21Z</time>
      </trkpt>
      <trkpt lat="46.20319" lon="6.13631">
        <ele>407.01</ele>
        <time>2022-01-29T13:33:27Z</time>
      </trkpt>
      <trkpt lat="46.20315" lon="6.1366">
        <ele>407.01</ele>
        <time>2022-01-29T13:33:34Z</time>
      </trkpt>
      <trkpt lat="46.20317" lon="6.13692">
        <ele>407.01</ele>
        <time>2022-01-29T13:33:40Z</time>
      </trkpt>
      <trkpt lat="46.2032" lon="6.13721">
        <ele>407.01</ele>
        <time>2022-01-29T13:33:46Z</time>
      </trkpt>
      <trkpt lat="46.20322" lon="6.13747">
        <ele>407.01</ele>
        <time>2022-01-29T13:34:15Z</time>
      </trkpt>
      <trkpt lat="46.20324" lon="6.13779">
        <ele>407.01</ele>
        <time>2022-01-29T13:34:23Z</time>
      </trkpt>
      <trkpt lat="46.20329" lon="6.13806">
        <ele>407.01</ele>
        <time>2022-01-29T13:34:28Z</time>
      </trkpt>
      <trkpt lat="46.20332" lon="6.13835">
        <ele>407.01</ele>
        <time>2022-01-29T13:34:34Z</time>
      </trkpt>
      <trkpt lat="46.20332" lon="6.13863">
        <ele>407.01</ele>
        <time>2022-01-29T13:34:40Z</time>
      </trkpt>
      <trkpt lat="46.20331" lon="6.13889">
        <ele>407.01</ele>
        <time>2022-01-29T13:34:50Z</time>
      </trkpt>
      <trkpt lat="46.20335" lon="6.13917">
        <ele>407.01</ele>
        <time>2022-01-29T13:35:06Z</time>
      </trkpt>
      <trkpt lat="46.2034" lon="6.13948">
        <ele>407.01</ele>
        <time>2022-01-29T13:35:13Z</time>
      </trkpt>
      <trkpt lat="46.20342" lon="6.13975">
        <ele>407.01</ele>
        <time>2022-01-29T13:35:18Z</time>
      </trkpt>
      <trkpt lat="46.20349" lon="6.14005">
        <ele>413.3</ele>
        <time>2022-01-29T13:36:45Z</time>
      </trkpt>
      <trkpt lat="46.20359" lon="6.14022">
        <ele>413.3</ele>
        <time>2022-01-29T13:37:30Z</time>
      </trkpt>
      <trkpt lat="46.20377" lon="6.14013">
        <ele>413.3</ele>
        <time>2022-01-29T13:38:15Z</time>
      </trkpt>
      <trkpt lat="46.20393" lon="6.14">
        <ele>413.3</ele>
        <time>2022-01-29T13:38:32Z</time>
      </trkpt>
      <trkpt lat="46.20404" lon="6.1403">
        <ele>413.3</ele>
        <time>2022-01-29T13:38:51Z</time>
      </trkpt>
      <trkpt lat="46.20405" lon="6.14059">
        <ele>413.3</ele>
        <time>2022-01-29T13:39:23Z</time>
      </trkpt>
      <trkpt lat="46.20404" lon="6.14087">
        <ele>413.3</ele>
        <time>2022-01-29T13:39:33Z</time>
      </trkpt>
      <trkpt lat="46.20408" lon="6.14113">
        <ele>413.3</ele>
        <time>2022-01-29T13:39:40Z</time>
      </trkpt>
      <trkpt lat="46.2041" lon="6.14144">
        <ele>413.3</ele>
        <time>2022-01-29T13:39:45Z</time>
      </trkpt>
      <trkpt lat="46.20412" lon="6.14177">
        <ele>413.3</ele>
        <time>2022-01-29T13:39:50Z</time>
      </trkpt>
      <trkpt lat="46.20415" lon="6.14203">
        <ele>413.3</ele>
        <time>2022-01-29T13:39:54Z</time>
      </trkpt>
      <trkpt lat="46.2042" lon="6.14234">
        <ele>413.3</ele>
        <time>2022-01-29T13:39:59Z</time>
      </trkpt>
      <trkpt lat="46.20425" lon="6.14261">
        <ele>413.3</ele>
        <time>2022-01-29T13:40:04Z</time>
      </trkpt>
      <trkpt lat="46.20412" lon="6.14278">
        <ele>413.3</ele>
        <time>2022-01-29T13:40:21Z</time>
      </trkpt>
      <trkpt lat="46.20395" lon="6.14288">
        <ele>413.3</ele>
        <time>2022-01-29T13:40:29Z</time>
      </trkpt>
      <trkpt lat="46.20376" lon="6.14295">
        <ele>413.3</ele>
        <time>2022-01-29T13:40:51Z</time>
      </trkpt>
      <trkpt lat="46.20389" lon="6.14302">
        <ele>413.3</ele>
        <time>2022-01-29T13:40:58Z</time>
      </trkpt>
      <trkpt lat="46.20408" lon="6.14293">
        <ele>413.3</ele>
        <time>2022-01-29T13:41:03Z</time>
      </trkpt>
      <trkpt lat="46.20423" lon="6.14322">
        <ele>413.3</ele>
        <time>2022-01-29T13:41:08Z</time>
      </trkpt>
      <trkpt lat="46.20434" lon="6.14347">
        <ele>413.3</ele>
        <time>2022-01-29T13:41:13Z</time>
      </trkpt>
      <trkpt lat="46.20454" lon="6.14363">
        <ele>413.3</ele>
        <time>2022-01-29T13:41:22Z</time>
      </trkpt>
      <trkpt lat="46.20473" lon="6.14359">
        <ele>413.3</ele>
        <time>2022-01-29T13:41:32Z</time>
      </trkpt>
      <trkpt lat="46.20492" lon="6.14354">
        <ele>413.3</ele>
        <time>2022-01-29T13:41:47Z</time>
      </trkpt>
      <trkpt lat="46.20502" lon="6.14383">
        <ele>413.3</ele>
        <time>2022-01-29T13:41:55Z</time>
      </trkpt>
      <trkpt lat="46.20508" lon="6.14409">
        <ele>413.3</ele>
        <time>2022-01-29T13:41:59Z</time>
      </trkpt>
      <trkpt lat="46.20517" lon="6.14434">
        <ele>413.3</ele>
        <time>2022-01-29T13:42:04Z</time>
      </trkpt>
      <trkpt lat="46.20533" lon="6.14447">
        <ele>413.3</ele>
        <time>2022-01-29T13:42:18Z</time>
      </trkpt>
      <trkpt lat="46.20546" lon="6.14472">
        <ele>413.3</ele>
        <time>2022-01-29T13:42:34Z</time>
      </trkpt>
      <trkpt lat="46.20564" lon="6.14458">
        <ele>413.3</ele>
        <time>2022-01-29T13:42:49Z</time>
      </trkpt>
      <trkpt lat="46.20573" lon="6.1448">
        <ele>413.3</ele>
        <time>2022-01-29T13:43:05Z</time>
      </trkpt>
      <trkpt lat="46.20584" lon="6.145">
        <ele>413.3</ele>
        <time>2022-01-29T13:43:21Z</time>
      </trkpt>
      <trkpt lat="46.20572" lon="6.145">
        <ele>413.3</ele>
        <time>2022-01-29T13:43:51Z</time>
      </trkpt>
      <trkpt lat="46.2055" lon="6.14502">
        <ele>413.3</ele>
        <time>2022-01-29T13:44:07Z</time>
      </trkpt>
      <trkpt lat="46.20531" lon="6.1451">
        <ele>413.3</ele>
        <time>2022-01-29T13:44:22Z</time>
      </trkpt>
      <trkpt lat="46.20512" lon="6.14515">
        <ele>413.3</ele>
        <time>2022-01-29T13:44:37Z</time>
      </trkpt>
      <trkpt lat="46.20491" lon="6.14521">
        <ele>413.3</ele>
        <time>2022-01-29T13:44:53Z</time>
      </trkpt>
      <trkpt lat="46.20479" lon="6.14543">
        <ele>413.3</ele>
        <time>2022-01-29T13:45:18Z</time>
      </trkpt>
      <trkpt lat="46.2048" lon="6.14573">
        <ele>413.3</ele>
        <time>2022-01-29T13:45:35Z</time>
      </trkpt>
      <trkpt lat="46.20477" lon="6.14599">
        <ele>413.3</ele>
        <time>2022-01-29T13:45:52Z</time>
      </trkpt>
      <trkpt lat="46.20476" lon="6.14627">
        <ele>413.3</ele>
        <time>2022-01-29T13:46:08Z</time>
      </trkpt>
      <trkpt lat="46.20477" lon="6.14653">
        <ele>413.3</ele>
        <time>2022-01-29T13:46:24Z</time>
      </trkpt>
      <trkpt lat="46.20479" lon="6.1468">
        <ele>413.3</ele>
        <time>2022-01-29T13:46:42Z</time>
      </trkpt>
      <trkpt lat="46.20476" lon="6.14706">
        <ele>413.3</ele>
        <time>2022-01-29T13:46:58Z</time>
      </trkpt>
      <trkpt lat="46.2047" lon="6.14732">
        <ele>413.3</ele>
        <time>2022-01-29T13:47:14Z</time>
      </trkpt>
      <trkpt lat="46.20461" lon="6.14751">
        <ele>413.3</ele>
        <time>2022-01-29T13:47:29Z</time>
      </trkpt>
      <trkpt lat="46.2045" lon="6.1477">
        <ele>413.3</ele>
        <time>2022-01-29T13:47:50Z</time>
      </trkpt>
      <trkpt lat="46.20446" lon="6.14796">
        <ele>413.3</ele>
        <time>2022-01-29T13:47:56Z</time>
      </trkpt>
      <trkpt lat="46.20439" lon="6.14826">
        <ele>413.3</ele>
        <time>2022-01-29T13:48:02Z</time>
      </trkpt>
      <trkpt lat="46.20434" lon="6.14852">
        <ele>413.3</ele>
        <time>2022-01-29T13:48:08Z</time>
      </trkpt>
      <trkpt lat="46.20429" lon="6.14879">
        <ele>413.3</ele>
        <time>2022-01-29T13:48:13Z</time>
      </trkpt>
      <trkpt lat="46.20424" lon="6.14908">
        <ele>413.3</ele>
        <time>2022-01-29T13:48:17Z</time>
      </trkpt>
      <trkpt lat="46.20419" lon="6.14934">
        <ele>413.3</ele>
        <time>2022-01-29T13:48:23Z</time>
      </trkpt>
      <trkpt lat="46.20413" lon="6.1496">
        <ele>413.3</ele>
        <time>2022-01-29T13:48:28Z</time>
      </trkpt>
      <trkpt lat="46.20404" lon="6.14987">
        <ele>413.3</ele>
        <time>2022-01-29T13:48:34Z</time>
      </trkpt>
      <trkpt lat="46.20398" lon="6.15013">
        <ele>413.3</ele>
        <time>2022-01-29T13:49:26Z</time>
      </trkpt>
      <trkpt lat="46.20393" lon="6.15041">
        <ele>413.3</ele>
        <time>2022-01-29T13:49:32Z</time>
      </trkpt>
      <trkpt lat="46.20392" lon="6.15066">
        <ele>413.3</ele>
        <time>2022-01-29T13:49:51Z</time>
      </trkpt>
      <trkpt lat="46.2041" lon="6.1508">
        <ele>413.3</ele>
        <time>2022-01-29T13:49:58Z</time>
      </trkpt>
      <trkpt lat="46.20407" lon="6.15102">
        <ele>413.3</ele>
        <time>2022-01-29T13:50:06Z</time>
      </trkpt>
      <trkpt lat="46.20401" lon="6.15126">
        <ele>413.3</ele>
        <time>2022-01-29T13:50:10Z</time>
      </trkpt>
      <trkpt lat="46.20396" lon="6.15152">
        <ele>413.3</ele>
        <time>2022-01-29T13:50:15Z</time>
      </trkpt>
      <trkpt lat="46.20391" lon="6.15178">
        <ele>413.3</ele>
        <time>2022-01-29T13:50:20Z</time>
      </trkpt>
      <trkpt lat="46.20383" lon="6.15206">
        <ele>413.3</ele>
        <time>2022-01-29T13:50:25Z</time>
      </trkpt>
      <trkpt lat="46.20376" lon="6.15238">
        <ele>413.3</ele>
        <time>2022-01-29T13:50:30Z</time>
      </trkpt>
      <trkpt lat="46.20372" lon="6.15263">
        <ele>413.3</ele>
        <time>2022-01-29T13:50:34Z</time>
      </trkpt>
      <trkpt lat="46.20365" lon="6.15291">
        <ele>413.3</ele>
        <time>2022-01-29T13:50:40Z</time>
      </trkpt>
      <trkpt lat="46.20362" lon="6.15321">
        <ele>413.3</ele>
        <time>2022-01-29T13:50:48Z</time>
      </trkpt>
      <trkpt lat="46.20369" lon="6.15345">
        <ele>413.3</ele>
        <time>2022-01-29T13:50:57Z</time>
      </trkpt>
      <trkpt lat="46.20379" lon="6.15371">
        <ele>413.3</ele>
        <time>2022-01-29T13:51:03Z</time>
      </trkpt>
      <trkpt lat="46.20399" lon="6.15389">
        <ele>413.3</ele>
        <time>2022-01-29T13:51:09Z</time>
      </trkpt>
      <trkpt lat="46.20418" lon="6.15403">
        <ele>413.3</ele>
        <time>2022-01-29T13:51:15Z</time>
      </trkpt>
      <trkpt lat="46.20432" lon="6.15423">
        <ele>413.3</ele>
        <time>2022-01-29T13:51:22Z</time>
      </trkpt>
      <trkpt lat="46.20439" lon="6.15429">
        <ele>413.3</ele>
        <time>2022-01-29T13:51:44Z</time>
      </trkpt>
      <trkpt lat="46.20432" lon="6.15452">
        <ele>413.3</ele>
        <time>2022-01-29T13:52:44Z</time>
      </trkpt>
      <trkpt lat="46.20427" lon="6.15479">
        <ele>413.3</ele>
        <time>2022-01-29T13:52:54Z</time>
      </trkpt>
      <trkpt lat="46.20434" lon="6.15507">
        <ele>413.3</ele>
        <time>2022-01-29T13:53:01Z</time>
      </trkpt>
      <trkpt lat="46.20446" lon="6.15531">
        <ele>413.3</ele>
        <time>2022-01-29T13:53:06Z</time>
      </trkpt>
      <trkpt lat="46.20458" lon="6.15554">
        <ele>413.3</ele>
        <time>2022-01-29T13:53:10Z</time>
      </trkpt>
      <trkpt lat="46.20471" lon="6.15581">
        <ele>413.3</ele>
        <time>2022-01-29T13:53:15Z</time>
      </trkpt>
      <trkpt lat="46.20483" lon="6.15605">
        <ele>413.3</ele>
        <time>2022-01-29T13:53:21Z</time>
      </trkpt>
      <trkpt lat="46.20496" lon="6.15632">
        <ele>413.3</ele>
        <time>2022-01-29T13:53:27Z</time>
      </trkpt>
      <trkpt lat="46.20509" lon="6.15657">
        <ele>413.3</ele>
        <time>2022-01-29T13:53:32Z</time>
      </trkpt>
      <trkpt lat="46.20521" lon="6.15676">
        <ele>413.3</ele>
        <time>2022-01-29T13:53:38Z</time>
      </trkpt>
      <trkpt lat="46.20537" lon="6.15687">
        <ele>413.3</ele>
        <time>2022-01-29T13:54:00Z</time>
      </trkpt>
      <trkpt lat="46.20548" lon="6.1571">
        <ele>413.3</ele>
        <time>2022-01-29T13:54:07Z</time>
      </trkpt>
      <trkpt lat="46.20558" lon="6.15732">
        <ele>413.3</ele>
        <time>2022-01-29T13:54:14Z</time>
      </trkpt>
      <trkpt lat="46.20559" lon="6.15757">
        <ele>413.3</ele>
        <time>2022-01-29T13:54:24Z</time>
      </trkpt>
      <trkpt lat="46.20573" lon="6.1577">
        <ele>413.3</ele>
        <time>2022-01-29T13:54:36Z</time>
      </trkpt>
      <trkpt lat="46.20576" lon="6.15743">
        <ele>413.3</ele>
        <time>2022-01-29T13:54:44Z</time>
      </trkpt>
      <trkpt lat="46.20589" lon="6.15748">
        <ele>413.3</ele>
        <time>2022-01-29T13:55:54Z</time>
      </trkpt>
      <trkpt lat="46.20588" lon="6.15774">
        <ele>413.3</ele>
        <time>2022-01-29T13:56:21Z</time>
      </trkpt>
      <trkpt lat="46.20595" lon="6.15798">
        <ele>413.3</ele>
        <time>2022-01-29T13:56:36Z</time>
      </trkpt>
      <trkpt lat="46.2061" lon="6.15816">
        <ele>413.3</ele>
        <time>2022-01-29T13:56:51Z</time>
      </trkpt>
      <trkpt lat="46.20625" lon="6.15827">
        <ele>413.3</ele>
        <time>2022-01-29T13:57:07Z</time>
      </trkpt>
      <trkpt lat="46.20636" lon="6.15848">
        <ele>413.3</ele>
        <time>2022-01-29T13:57:22Z</time>
      </trkpt>
      <trkpt lat="46.20648" lon="6.1587">
        <ele>413.3</ele>
        <time>2022-01-29T13:57:38Z</time>
      </trkpt>
      <trkpt lat="46.20658" lon="6.15893">
        <ele>413.3</ele>
        <time>2022-01-29T13:57:56Z</time>
      </trkpt>
      <trkpt lat="46.20669" lon="6.15915">
        <ele>413.3</ele>
        <time>2022-01-29T13:58:12Z</time>
      </trkpt>
      <trkpt lat="46.20679" lon="6.15937">
        <ele>413.3</ele>
        <time>2022-01-29T13:58:30Z</time>
      </trkpt>
      <trkpt lat="46.20675" lon="6.1595">
        <ele>413.3</ele>
        <time>2022-01-29T14:16:13Z</time>
      </trkpt>
      <trkpt lat="46.20678" lon="6.15973">
        <ele>413.3</ele>
        <time>2022-01-29T14:16:29Z</time>
      </trkpt>
      <trkpt lat="46.20688" lon="6.15995">
        <ele>413.3</ele>
        <time>2022-01-29T14:16:44Z</time>
      </trkpt>
      <trkpt lat="46.20698" lon="6.16022">
        <ele>413.3</ele>
        <time>2022-01-29T14:17:14Z</time>
      </trkpt>
      <trkpt lat="46.20693" lon="6.16046">
        <ele>413.3</ele>
        <time>2022-01-29T14:17:23Z</time>
      </trkpt>
      <trkpt lat="46.20704" lon="6.16072">
        <ele>413.3</ele>
        <time>2022-01-29T14:17:29Z</time>
      </trkpt>
      <trkpt lat="46.20715" lon="6.16095">
        <ele>413.3</ele>
        <time>2022-01-29T14:17:35Z</time>
      </trkpt>
      <trkpt lat="46.20727" lon="6.16119">
        <ele>413.3</ele>
        <time>2022-01-29T14:17:40Z</time>
      </trkpt>
      <trkpt lat="46.20741" lon="6.16145">
        <ele>413.3</ele>
        <time>2022-01-29T14:17:45Z</time>
      </trkpt>
      <trkpt lat="46.20752" lon="6.1617">
        <ele>413.3</ele>
        <time>2022-01-29T14:17:51Z</time>
      </trkpt>
      <trkpt lat="46.20765" lon="6.162">
        <ele>413.3</ele>
        <time>2022-01-29T14:17:59Z</time>
      </trkpt>
      <trkpt lat="46.20776" lon="6.16227">
        <ele>413.3</ele>
        <time>2022-01-29T14:18:04Z</time>
      </trkpt>
      <trkpt lat="46.20784" lon="6.16258">
        <ele>413.3</ele>
        <time>2022-01-29T14:18:09Z</time>
      </trkpt>
      <trkpt lat="46.20791" lon="6.16284">
        <ele>413.3</ele>
        <time>2022-01-29T14:18:14Z</time>
      </trkpt>
      <trkpt lat="46.20799" lon="6.16316">
        <ele>413.3</ele>
        <time>2022-01-29T14:18:19Z</time>
      </trkpt>
      <trkpt lat="46.20804" lon="6.16345">
        <ele>413.3</ele>
        <time>2022-01-29T14:18:24Z</time>
      </trkpt>
      <trkpt lat="46.20811" lon="6.16375">
        <ele>413.3</ele>
        <time>2022-01-29T14:18:30Z</time>
      </trkpt>
      <trkpt lat="46.20818" lon="6.16402">
        <ele>413.3</ele>
        <time>2022-01-29T14:18:35Z</time>
      </trkpt>
      <trkpt lat="46.20827" lon="6.16429">
        <ele>413.3</ele>
        <time>2022-01-29T14:18:40Z</time>
      </trkpt>
      <trkpt lat="46.20836" lon="6.16454">
        <ele>413.3</ele>
        <time>2022-01-29T14:18:45Z</time>
      </trkpt>
      <trkpt lat="46.20848" lon="6.16477">
        <ele>413.3</ele>
        <time>2022-01-29T14:18:51Z</time>
      </trkpt>
      <trkpt lat="46.20858" lon="6.16501">
        <ele>413.3</ele>
        <time>2022-01-29T14:18:56Z</time>
      </trkpt>
      <trkpt lat="46.20869" lon="6.16528">
        <ele>413.3</ele>
        <time>2022-01-29T14:19:01Z</time>
      </trkpt>
      <trkpt lat="46.20879" lon="6.16551">
        <ele>413.3</ele>
        <time>2022-01-29T14:19:05Z</time>
      </trkpt>
      <trkpt lat="46.20891" lon="6.16581">
        <ele>413.3</ele>
        <time>2022-01-29T14:19:10Z</time>
      </trkpt>
      <trkpt lat="46.20904" lon="6.16608">
        <ele>413.3</ele>
        <time>2022-01-29T14:19:15Z</time>
      </trkpt>
      <trkpt lat="46.20916" lon="6.16633">
        <ele>413.3</ele>
        <time>2022-01-29T14:19:20Z</time>
      </trkpt>
      <trkpt lat="46.20928" lon="6.1666">
        <ele>413.3</ele>
        <time>2022-01-29T14:19:25Z</time>
      </trkpt>
      <trkpt lat="46.20939" lon="6.16683">
        <ele>413.3</ele>
        <time>2022-01-29T14:19:29Z</time>
      </trkpt>
      <trkpt lat="46.2095" lon="6.16708">
        <ele>413.3</ele>
        <time>2022-01-29T14:19:33Z</time>
      </trkpt>
      <trkpt lat="46.20962" lon="6.16733">
        <ele>413.3</ele>
        <time>2022-01-29T14:19:38Z</time>
      </trkpt>
      <trkpt lat="46.20972" lon="6.16757">
        <ele>413.3</ele>
        <time>2022-01-29T14:19:43Z</time>
      </trkpt>
      <trkpt lat="46.20982" lon="6.1678">
        <ele>413.3</ele>
        <time>2022-01-29T14:19:48Z</time>
      </trkpt>
      <trkpt lat="46.20993" lon="6.16805">
        <ele>413.3</ele>
        <time>2022-01-29T14:19:53Z</time>
      </trkpt>
      <trkpt lat="46.21005" lon="6.16831">
        <ele>413.3</ele>
        <time>2022-01-29T14:19:58Z</time>
      </trkpt>
      <trkpt lat="46.21018" lon="6.16858">
        <ele>413.3</ele>
        <time>2022-01-29T14:20:04Z</time>
      </trkpt>
      <trkpt lat="46.21029" lon="6.16884">
        <ele>413.3</ele>
        <time>2022-01-29T14:20:09Z</time>
      </trkpt>
      <trkpt lat="46.21042" lon="6.16913">
        <ele>413.3</ele>
        <time>2022-01-29T14:20:14Z</time>
      </trkpt>
      <trkpt lat="46.21054" lon="6.16941">
        <ele>413.3</ele>
        <time>2022-01-29T14:20:19Z</time>
      </trkpt>
      <trkpt lat="46.21065" lon="6.16965">
        <ele>413.3</ele>
        <time>2022-01-29T14:20:24Z</time>
      </trkpt>
      <trkpt lat="46.21078" lon="6.16994">
        <ele>413.3</ele>
        <time>2022-01-29T14:20:29Z</time>
      </trkpt>
      <trkpt lat="46.2109" lon="6.17019">
        <ele>413.3</ele>
        <time>2022-01-29T14:20:33Z</time>
      </trkpt>
      <trkpt lat="46.21102" lon="6.17046">
        <ele>413.3</ele>
        <time>2022-01-29T14:20:37Z</time>
      </trkpt>
      <trkpt lat="46.21112" lon="6.17069">
        <ele>413.3</ele>
        <time>2022-01-29T14:20:41Z</time>
      </trkpt>
      <trkpt lat="46.21121" lon="6.17094">
        <ele>413.3</ele>
        <time>2022-01-29T14:20:46Z</time>
      </trkpt>
      <trkpt lat="46.21132" lon="6.1712">
        <ele>413.3</ele>
        <time>2022-01-29T14:20:52Z</time>
      </trkpt>
      <trkpt lat="46.21143" lon="6.17142">
        <ele>413.3</ele>
        <time>2022-01-29T14:20:58Z</time>
      </trkpt>
      <trkpt lat="46.21151" lon="6.17167">
        <ele>413.3</ele>
        <time>2022-01-29T14:21:03Z</time>
      </trkpt>
      <trkpt lat="46.21161" lon="6.17188">
        <ele>413.3</ele>
        <time>2022-01-29T14:21:08Z</time>
      </trkpt>
      <trkpt lat="46.21171" lon="6.17209">
        <ele>413.3</ele>
        <time>2022-01-29T14:21:14Z</time>
      </trkpt>
      <trkpt lat="46.21182" lon="6.17233">
        <ele>413.3</ele>
        <time>2022-01-29T14:21:21Z</time>
      </trkpt>
      <trkpt lat="46.21191" lon="6.17259">
        <ele>413.3</ele>
        <time>2022-01-29T14:21:27Z</time>
      </trkpt>
      <trkpt lat="46.21202" lon="6.17284">
        <ele>413.3</ele>
        <time>2022-01-29T14:21:32Z</time>
      </trkpt>
      <trkpt lat="46.21215" lon="6.17307">
        <ele>413.3</ele>
        <time>2022-01-29T14:21:37Z</time>
      </trkpt>
      <trkpt lat="46.21227" lon="6.17329">
        <ele>413.3</ele>
        <time>2022-01-29T14:21:42Z</time>
      </trkpt>
      <trkpt lat="46.21241" lon="6.17349">
        <ele>413.3</ele>
        <time>2022-01-29T14:21:46Z</time>
      </trkpt>
      <trkpt lat="46.2126" lon="6.17362">
        <ele>413.3</ele>
        <time>2022-01-29T14:21:51Z</time>
      </trkpt>
      <trkpt lat="46.21277" lon="6.1738">
        <ele>413.3</ele>
        <time>2022-01-29T14:21:57Z</time>
      </trkpt>
      <trkpt lat="46.21292" lon="6.17396">
        <ele>413.3</ele>
        <time>2022-01-29T14:22:08Z</time>
      </trkpt>
      <trkpt lat="46.2131" lon="6.17412">
        <ele>413.3</ele>
        <time>2022-01-29T14:22:15Z</time>
      </trkpt>
      <trkpt lat="46.21326" lon="6.17428">
        <ele>413.3</ele>
        <time>2022-01-29T14:22:20Z</time>
      </trkpt>
      <trkpt lat="46.21345" lon="6.17443">
        <ele>413.3</ele>
        <time>2022-01-29T14:22:25Z</time>
      </trkpt>
      <trkpt lat="46.21362" lon="6.17454">
        <ele>413.3</ele>
        <time>2022-01-29T14:22:30Z</time>
      </trkpt>
      <trkpt lat="46.2138" lon="6.17468">
        <ele>413.3</ele>
        <time>2022-01-29T14:22:35Z</time>
      </trkpt>
      <trkpt lat="46.21399" lon="6.17483">
        <ele>413.3</ele>
        <time>2022-01-29T14:22:40Z</time>
      </trkpt>
      <trkpt lat="46.21416" lon="6.17496">
        <ele>413.3</ele>
        <time>2022-01-29T14:22:44Z</time>
      </trkpt>
      <trkpt lat="46.21435" lon="6.1751">
        <ele>413.3</ele>
        <time>2022-01-29T14:22:48Z</time>
      </trkpt>
      <trkpt lat="46.21454" lon="6.17525">
        <ele>413.3</ele>
        <time>2022-01-29T14:22:52Z</time>
      </trkpt>
      <trkpt lat="46.21472" lon="6.17538">
        <ele>413.3</ele>
        <time>2022-01-29T14:22:56Z</time>
      </trkpt>
      <trkpt lat="46.21491" lon="6.17551">
        <ele>413.3</ele>
        <time>2022-01-29T14:23:01Z</time>
      </trkpt>
      <trkpt lat="46.2151" lon="6.17566">
        <ele>413.3</ele>
        <time>2022-01-29T14:23:06Z</time>
      </trkpt>
      <trkpt lat="46.21529" lon="6.1758">
        <ele>413.3</ele>
        <time>2022-01-29T14:23:11Z</time>
      </trkpt>
      <trkpt lat="46.21547" lon="6.17592">
        <ele>413.3</ele>
        <time>2022-01-29T14:23:15Z</time>
      </trkpt>
      <trkpt lat="46.21564" lon="6.17606">
        <ele>413.3</ele>
        <time>2022-01-29T14:23:19Z</time>
      </trkpt>
      <trkpt lat="46.21583" lon="6.1762">
        <ele>413.3</ele>
        <time>2022-01-29T14:23:24Z</time>
      </trkpt>
      <trkpt lat="46.21602" lon="6.17633">
        <ele>413.3</ele>
        <time>2022-01-29T14:23:30Z</time>
      </trkpt>
      <trkpt lat="46.21621" lon="6.17646">
        <ele>413.3</ele>
        <time>2022-01-29T14:23:37Z</time>
      </trkpt>
      <trkpt lat="46.21639" lon="6.17659">
        <ele>413.3</ele>
        <time>2022-01-29T14:23:42Z</time>
      </trkpt>
      <trkpt lat="46.21657" lon="6.17671">
        <ele>413.3</ele>
        <time>2022-01-29T14:23:46Z</time>
      </trkpt>
      <trkpt lat="46.21676" lon="6.17684">
        <ele>413.3</ele>
        <time>2022-01-29T14:23:50Z</time>
      </trkpt>
      <trkpt lat="46.21698" lon="6.177">
        <ele>413.3</ele>
        <time>2022-01-29T14:23:54Z</time>
      </trkpt>
      <trkpt lat="46.21718" lon="6.17715">
        <ele>413.3</ele>
        <time>2022-01-29T14:23:58Z</time>
      </trkpt>
      <trkpt lat="46.21736" lon="6.17728">
        <ele>413.3</ele>
        <time>2022-01-29T14:24:02Z</time>
      </trkpt>
      <trkpt lat="46.21755" lon="6.17743">
        <ele>413.3</ele>
        <time>2022-01-29T14:24:07Z</time>
      </trkpt>
      <trkpt lat="46.21775" lon="6.17757">
        <ele>413.3</ele>
        <time>2022-01-29T14:24:12Z</time>
      </trkpt>
      <trkpt lat="46.21793" lon="6.1777">
        <ele>413.3</ele>
        <time>2022-01-29T14:24:16Z</time>
      </trkpt>
      <trkpt lat="46.21812" lon="6.17784">
        <ele>413.3</ele>
        <time>2022-01-29T14:24:20Z</time>
      </trkpt>
      <trkpt lat="46.21833" lon="6.17798">
        <ele>413.3</ele>
        <time>2022-01-29T14:24:24Z</time>
      </trkpt>
      <trkpt lat="46.21854" lon="6.17814">
        <ele>413.3</ele>
        <time>2022-01-29T14:24:28Z</time>
      </trkpt>
      <trkpt lat="46.21873" lon="6.17827">
        <ele>413.3</ele>
        <time>2022-01-29T14:24:32Z</time>
      </trkpt>
      <trkpt lat="46.2189" lon="6.1784">
        <ele>413.3</ele>
        <time>2022-01-29T14:24:36Z</time>
      </trkpt>
      <trkpt lat="46.21906" lon="6.17852">
        <ele>413.3</ele>
        <time>2022-01-29T14:24:40Z</time>
      </trkpt>
      <trkpt lat="46.21923" lon="6.17864">
        <ele>413.3</ele>
        <time>2022-01-29T14:24:44Z</time>
      </trkpt>
      <trkpt lat="46.21942" lon="6.17877">
        <ele>413.3</ele>
        <time>2022-01-29T14:24:48Z</time>
      </trkpt>
      <trkpt lat="46.21961" lon="6.17892">
        <ele>413.3</ele>
        <time>2022-01-29T14:24:52Z</time>
      </trkpt>
      <trkpt lat="46.21982" lon="6.17907">
        <ele>413.3</ele>
        <time>2022-01-29T14:24:56Z</time>
      </trkpt>
      <trkpt lat="46.22001" lon="6.17922">
        <ele>413.3</ele>
        <time>2022-01-29T14:25:00Z</time>
      </trkpt>
      <trkpt lat="46.22018" lon="6.17934">
        <ele>413.3</ele>
        <time>2022-01-29T14:25:04Z</time>
      </trkpt>
      <trkpt lat="46.22037" lon="6.17947">
        <ele>413.3</ele>
        <time>2022-01-29T14:25:09Z</time>
      </trkpt>
      <trkpt lat="46.22053" lon="6.1796">
        <ele>413.3</ele>
        <time>2022-01-29T14:25:13Z</time>
      </trkpt>
      <trkpt lat="46.22072" lon="6.17974">
        <ele>413.3</ele>
        <time>2022-01-29T14:25:17Z</time>
      </trkpt>
      <trkpt lat="46.22092" lon="6.17988">
        <ele>413.3</ele>
        <time>2022-01-29T14:25:21Z</time>
      </trkpt>
      <trkpt lat="46.22113" lon="6.18003">
        <ele>413.3</ele>
        <time>2022-01-29T14:25:25Z</time>
      </trkpt>
      <trkpt lat="46.22131" lon="6.18017">
        <ele>413.3</ele>
        <time>2022-01-29T14:25:29Z</time>
      </trkpt>
      <trkpt lat="46.2215" lon="6.18031">
        <ele>413.3</ele>
        <time>2022-01-29T14:25:33Z</time>
      </trkpt>
      <trkpt lat="46.22168" lon="6.18045">
        <ele>413.3</ele>
        <time>2022-01-29T14:25:37Z</time>
      </trkpt>
      <trkpt lat="46.22187" lon="6.1806">
        <ele>413.3</ele>
        <time>2022-01-29T14:25:41Z</time>
      </trkpt>
      <trkpt lat="46.22206" lon="6.18074">
        <ele>413.3</ele>
        <time>2022-01-29T14:25:45Z</time>
      </trkpt>
      <trkpt lat="46.22223" lon="6.18087">
        <ele>413.3</ele>
        <time>2022-01-29T14:25:49Z</time>
      </trkpt>
      <trkpt lat="46.2224" lon="6.181">
        <ele>413.3</ele>
        <time>2022-01-29T14:25:53Z</time>
      </trkpt>
      <trkpt lat="46.22258" lon="6.18113">
        <ele>413.3</ele>
        <time>2022-01-29T14:25:57Z</time>
      </trkpt>
      <trkpt lat="46.22277" lon="6.18128">
        <ele>413.3</ele>
        <time>2022-01-29T14:26:01Z</time>
      </trkpt>
      <trkpt lat="46.22295" lon="6.18141">
        <ele>413.3</ele>
        <time>2022-01-29T14:26:05Z</time>
      </trkpt>
      <trkpt lat="46.22315" lon="6.18155">
        <ele>413.3</ele>
        <time>2022-01-29T14:26:09Z</time>
      </trkpt>
      <trkpt lat="46.22333" lon="6.18171">
        <ele>413.3</ele>
        <time>2022-01-29T14:26:13Z</time>
      </trkpt>
      <trkpt lat="46.22353" lon="6.18185">
        <ele>413.3</ele>
        <time>2022-01-29T14:26:17Z</time>
      </trkpt>
      <trkpt lat="46.2237" lon="6.18198">
        <ele>413.3</ele>
        <time>2022-01-29T14:26:21Z</time>
      </trkpt>
      <trkpt lat="46.2239" lon="6.18213">
        <ele>413.3</ele>
        <time>2022-01-29T14:26:26Z</time>
      </trkpt>
      <trkpt lat="46.22407" lon="6.18226">
        <ele>413.3</ele>
        <time>2022-01-29T14:26:31Z</time>
      </trkpt>
      <trkpt lat="46.22426" lon="6.1824">
        <ele>413.3</ele>
        <time>2022-01-29T14:26:36Z</time>
      </trkpt>
      <trkpt lat="46.22443" lon="6.18253">
        <ele>413.3</ele>
        <time>2022-01-29T14:26:40Z</time>
      </trkpt>
      <trkpt lat="46.22461" lon="6.18268">
        <ele>413.3</ele>
        <time>2022-01-29T14:26:44Z</time>
      </trkpt>
      <trkpt lat="46.22479" lon="6.18282">
        <ele>413.3</ele>
        <time>2022-01-29T14:26:48Z</time>
      </trkpt>
      <trkpt lat="46.22495" lon="6.18296">
        <ele>413.3</ele>
        <time>2022-01-29T14:26:52Z</time>
      </trkpt>
      <trkpt lat="46.22513" lon="6.1831">
        <ele>413.3</ele>
        <time>2022-01-29T14:26:57Z</time>
      </trkpt>
      <trkpt lat="46.2253" lon="6.18321">
        <ele>413.3</ele>
        <time>2022-01-29T14:27:01Z</time>
      </trkpt>
      <trkpt lat="46.22546" lon="6.18334">
        <ele>413.3</ele>
        <time>2022-01-29T14:27:05Z</time>
      </trkpt>
      <trkpt lat="46.22564" lon="6.18348">
        <ele>413.3</ele>
        <time>2022-01-29T14:27:09Z</time>
      </trkpt>
      <trkpt lat="46.22584" lon="6.18363">
        <ele>413.3</ele>
        <time>2022-01-29T14:27:13Z</time>
      </trkpt>
      <trkpt lat="46.22604" lon="6.18378">
        <ele>413.3</ele>
        <time>2022-01-29T14:27:17Z</time>
      </trkpt>
      <trkpt lat="46.22622" lon="6.18392">
        <ele>413.3</ele>
        <time>2022-01-29T14:27:21Z</time>
      </trkpt>
      <trkpt lat="46.22639" lon="6.18404">
        <ele>413.3</ele>
        <time>2022-01-29T14:27:25Z</time>
      </trkpt>
      <trkpt lat="46.22655" lon="6.18418">
        <ele>413.3</ele>
        <time>2022-01-29T14:27:29Z</time>
      </trkpt>
      <trkpt lat="46.22672" lon="6.18432">
        <ele>413.3</ele>
        <time>2022-01-29T14:27:33Z</time>
      </trkpt>
      <trkpt lat="46.22691" lon="6.18449">
        <ele>413.3</ele>
        <time>2022-01-29T14:27:37Z</time>
      </trkpt>
      <trkpt lat="46.22708" lon="6.18468">
        <ele>413.3</ele>
        <time>2022-01-29T14:27:41Z</time>
      </trkpt>
      <trkpt lat="46.22722" lon="6.18487">
        <ele>413.3</ele>
        <time>2022-01-29T14:27:45Z</time>
      </trkpt>
      <trkpt lat="46.22736" lon="6.18504">
        <ele>413.3</ele>
        <time>2022-01-29T14:27:49Z</time>
      </trkpt>
      <trkpt lat="46.2275" lon="6.18524">
        <ele>413.3</ele>
        <time>2022-01-29T14:27:53Z</time>
      </trkpt>
      <trkpt lat="46.22764" lon="6.1854">
        <ele>413.3</ele>
        <time>2022-01-29T14:27:57Z</time>
      </trkpt>
      <trkpt lat="46.22779" lon="6.1856">
        <ele>413.3</ele>
        <time>2022-01-29T14:28:02Z</time>
      </trkpt>
      <trkpt lat="46.22794" lon="6.1858">
        <ele>413.3</ele>
        <time>2022-01-29T14:28:07Z</time>
      </trkpt>
      <trkpt lat="46.22808" lon="6.18599">
        <ele>413.3</ele>
        <time>2022-01-29T14:28:11Z</time>
      </trkpt>
      <trkpt lat="46.22825" lon="6.18617">
        <ele>413.3</ele>
        <time>2022-01-29T14:28:15Z</time>
      </trkpt>
      <trkpt lat="46.2284" lon="6.18634">
        <ele>413.3</ele>
        <time>2022-01-29T14:28:19Z</time>
      </trkpt>
      <trkpt lat="46.22857" lon="6.1865">
        <ele>413.3</ele>
        <time>2022-01-29T14:28:24Z</time>
      </trkpt>
      <trkpt lat="46.22873" lon="6.18665">
        <ele>413.3</ele>
        <time>2022-01-29T14:28:29Z</time>
      </trkpt>
      <trkpt lat="46.22888" lon="6.1868">
        <ele>413.3</ele>
        <time>2022-01-29T14:28:35Z</time>
      </trkpt>
      <trkpt lat="46.22903" lon="6.18694">
        <ele>413.3</ele>
        <time>2022-01-29T14:28:41Z</time>
      </trkpt>
      <trkpt lat="46.229" lon="6.18712">
        <ele>413.3</ele>
        <time>2022-01-29T14:29:08Z</time>
      </trkpt>
      <trkpt lat="46.22908" lon="6.18731">
        <ele>413.3</ele>
        <time>2022-01-29T14:29:34Z</time>
      </trkpt>
      <trkpt lat="46.22925" lon="6.18745">
        <ele>413.3</ele>
        <time>2022-01-29T14:29:42Z</time>
      </trkpt>
      <trkpt lat="46.22944" lon="6.18759">
        <ele>413.3</ele>
        <time>2022-01-29T14:29:47Z</time>
      </trkpt>
      <trkpt lat="46.2296" lon="6.18773">
        <ele>413.3</ele>
        <time>2022-01-29T14:29:51Z</time>
      </trkpt>
      <trkpt lat="46.22979" lon="6.18789">
        <ele>413.3</ele>
        <time>2022-01-29T14:29:56Z</time>
      </trkpt>
      <trkpt lat="46.22996" lon="6.18805">
        <ele>413.3</ele>
        <time>2022-01-29T14:30:00Z</time>
      </trkpt>
      <trkpt lat="46.23013" lon="6.18819">
        <ele>413.3</ele>
        <time>2022-01-29T14:30:04Z</time>
      </trkpt>
      <trkpt lat="46.23032" lon="6.18834">
        <ele>413.3</ele>
        <time>2022-01-29T14:30:09Z</time>
      </trkpt>
      <trkpt lat="46.23049" lon="6.18847">
        <ele>413.3</ele>
        <time>2022-01-29T14:30:13Z</time>
      </trkpt>
      <trkpt lat="46.23066" lon="6.18862">
        <ele>413.3</ele>
        <time>2022-01-29T14:30:17Z</time>
      </trkpt>
      <trkpt lat="46.23085" lon="6.18878">
        <ele>413.3</ele>
        <time>2022-01-29T14:30:21Z</time>
      </trkpt>
      <trkpt lat="46.23103" lon="6.18895">
        <ele>413.3</ele>
        <time>2022-01-29T14:30:25Z</time>
      </trkpt>
      <trkpt lat="46.2312" lon="6.18909">
        <ele>413.3</ele>
        <time>2022-01-29T14:30:29Z</time>
      </trkpt>
      <trkpt lat="46.23135" lon="6.18923">
        <ele>413.3</ele>
        <time>2022-01-29T14:30:33Z</time>
      </trkpt>
      <trkpt lat="46.23151" lon="6.18936">
        <ele>413.3</ele>
        <time>2022-01-29T14:30:37Z</time>
      </trkpt>
      <trkpt lat="46.23168" lon="6.18951">
        <ele>413.3</ele>
        <time>2022-01-29T14:30:41Z</time>
      </trkpt>
      <trkpt lat="46.23185" lon="6.18966">
        <ele>413.3</ele>
        <time>2022-01-29T14:30:45Z</time>
      </trkpt>
      <trkpt lat="46.23201" lon="6.1898">
        <ele>413.3</ele>
        <time>2022-01-29T14:30:49Z</time>
      </trkpt>
      <trkpt lat="46.23217" lon="6.18995">
        <ele>413.3</ele>
        <time>2022-01-29T14:30:53Z</time>
      </trkpt>
      <trkpt lat="46.23233" lon="6.19012">
        <ele>413.3</ele>
        <time>2022-01-29T14:30:57Z</time>
      </trkpt>
      <trkpt lat="46.23246" lon="6.1903">
        <ele>413.3</ele>
        <time>2022-01-29T14:31:01Z</time>
      </trkpt>
      <trkpt lat="46.23261" lon="6.1905">
        <ele>413.3</ele>
        <time>2022-01-29T14:31:06Z</time>
      </trkpt>
      <trkpt lat="46.23274" lon="6.1907">
        <ele>413.3</ele>
        <time>2022-01-29T14:31:11Z</time>
      </trkpt>
      <trkpt lat="46.23288" lon="6.19091">
        <ele>413.3</ele>
        <time>2022-01-29T14:31:16Z</time>
      </trkpt>
      <trkpt lat="46.23303" lon="6.19114">
        <ele>413.3</ele>
        <time>2022-01-29T14:31:22Z</time>
      </trkpt>
      <trkpt lat="46.23316" lon="6.19133">
        <ele>418.82</ele>
        <time>2022-01-29T14:31:27Z</time>
      </trkpt>
      <trkpt lat="46.23331" lon="6.19154">
        <ele>419.37</ele>
        <time>2022-01-29T14:31:33Z</time>
      </trkpt>
      <trkpt lat="46.23344" lon="6.19174">
        <ele>420.25</ele>
        <time>2022-01-29T14:31:39Z</time>
      </trkpt>
      <trkpt lat="46.23357" lon="6.19193">
        <ele>421.33</ele>
        <time>2022-01-29T14:31:45Z</time>
      </trkpt>
      <trkpt lat="46.2337" lon="6.19213">
        <ele>422.31</ele>
        <time>2022-01-29T14:31:51Z</time>
      </trkpt>
      <trkpt lat="46.23382" lon="6.19232">
        <ele>423.11</ele>
        <time>2022-01-29T14:31:57Z</time>
      </trkpt>
      <trkpt lat="46.23395" lon="6.19252">
        <ele>423.93</ele>
        <time>2022-01-29T14:32:03Z</time>
      </trkpt>
      <trkpt lat="46.2341" lon="6.19272">
        <ele>424.99</ele>
        <time>2022-01-29T14:32:10Z</time>
      </trkpt>
      <trkpt lat="46.23425" lon="6.19292">
        <ele>426.04</ele>
        <time>2022-01-29T14:32:17Z</time>
      </trkpt>
      <trkpt lat="46.23438" lon="6.19312">
        <ele>427.12</ele>
        <time>2022-01-29T14:32:24Z</time>
      </trkpt>
      <trkpt lat="46.23452" lon="6.1933">
        <ele>428.04</ele>
        <time>2022-01-29T14:32:30Z</time>
      </trkpt>
      <trkpt lat="46.23466" lon="6.19347">
        <ele>429.13</ele>
        <time>2022-01-29T14:32:37Z</time>
      </trkpt>
      <trkpt lat="46.2348" lon="6.19364">
        <ele>430.09</ele>
        <time>2022-01-29T14:32:44Z</time>
      </trkpt>
      <trkpt lat="46.23495" lon="6.1938">
        <ele>430.85</ele>
        <time>2022-01-29T14:32:51Z</time>
      </trkpt>
      <trkpt lat="46.23512" lon="6.19395">
        <ele>431.86</ele>
        <time>2022-01-29T14:32:58Z</time>
      </trkpt>
      <trkpt lat="46.23529" lon="6.19409">
        <ele>432.77</ele>
        <time>2022-01-29T14:33:05Z</time>
      </trkpt>
      <trkpt lat="46.23545" lon="6.19423">
        <ele>433.69</ele>
        <time>2022-01-29T14:33:12Z</time>
      </trkpt>
      <trkpt lat="46.23562" lon="6.19437">
        <ele>434.5</ele>
        <time>2022-01-29T14:33:19Z</time>
      </trkpt>
      <trkpt lat="46.23579" lon="6.1945">
        <ele>435.28</ele>
        <time>2022-01-29T14:33:25Z</time>
      </trkpt>
      <trkpt lat="46.23596" lon="6.19464">
        <ele>436.34</ele>
        <time>2022-01-29T14:33:32Z</time>
      </trkpt>
      <trkpt lat="46.23615" lon="6.19477">
        <ele>437.29</ele>
        <time>2022-01-29T14:33:40Z</time>
      </trkpt>
      <trkpt lat="46.23633" lon="6.1949">
        <ele>438.24</ele>
        <time>2022-01-29T14:33:47Z</time>
      </trkpt>
      <trkpt lat="46.23649" lon="6.19501">
        <ele>438.99</ele>
        <time>2022-01-29T14:33:53Z</time>
      </trkpt>
      <trkpt lat="46.23666" lon="6.19514">
        <ele>439.95</ele>
        <time>2022-01-29T14:34:00Z</time>
      </trkpt>
      <trkpt lat="46.23683" lon="6.19526">
        <ele>440.79</ele>
        <time>2022-01-29T14:34:07Z</time>
      </trkpt>
      <trkpt lat="46.23702" lon="6.19538">
        <ele>441.8</ele>
        <time>2022-01-29T14:34:15Z</time>
      </trkpt>
      <trkpt lat="46.2372" lon="6.19548">
        <ele>442.74</ele>
        <time>2022-01-29T14:34:22Z</time>
      </trkpt>
      <trkpt lat="46.23739" lon="6.19561">
        <ele>443.85</ele>
        <time>2022-01-29T14:34:29Z</time>
      </trkpt>
      <trkpt lat="46.23755" lon="6.19574">
        <ele>444.76</ele>
        <time>2022-01-29T14:34:36Z</time>
      </trkpt>
      <trkpt lat="46.23771" lon="6.19583">
        <ele>446.99</ele>
        <time>2022-01-29T14:39:42Z</time>
      </trkpt>
      <trkpt lat="46.23787" lon="6.19591">
        <ele>446.99</ele>
        <time>2022-01-29T14:39:48Z</time>
      </trkpt>
      <trkpt lat="46.23807" lon="6.19607">
        <ele>446.99</ele>
        <time>2022-01-29T14:39:54Z</time>
      </trkpt>
      <trkpt lat="46.23824" lon="6.19622">
        <ele>446.99</ele>
        <time>2022-01-29T14:40:01Z</time>
      </trkpt>
      <trkpt lat="46.23841" lon="6.19638">
        <ele>446.99</ele>
        <time>2022-01-29T14:40:09Z</time>
      </trkpt>
      <trkpt lat="46.23857" lon="6.19653">
        <ele>446.99</ele>
        <time>2022-01-29T14:40:16Z</time>
      </trkpt>
      <trkpt lat="46.23873" lon="6.19671">
        <ele>446.99</ele>
        <time>2022-01-29T14:40:25Z</time>
      </trkpt>
      <trkpt lat="46.23888" lon="6.1969">
        <ele>446.99</ele>
        <time>2022-01-29T14:40:32Z</time>
      </trkpt>
      <trkpt lat="46.23902" lon="6.19711">
        <ele>454.94</ele>
        <time>2022-01-29T14:40:39Z</time>
      </trkpt>
      <trkpt lat="46.23916" lon="6.19729">
        <ele>455.34</ele>
        <time>2022-01-29T14:40:46Z</time>
      </trkpt>
      <trkpt lat="46.23931" lon="6.19746">
        <ele>456.21</ele>
        <time>2022-01-29T14:40:53Z</time>
      </trkpt>
      <trkpt lat="46.23944" lon="6.19765">
        <ele>456.96</ele>
        <time>2022-01-29T14:40:59Z</time>
      </trkpt>
      <trkpt lat="46.23957" lon="6.19787">
        <ele>457.67</ele>
        <time>2022-01-29T14:41:06Z</time>
      </trkpt>
      <trkpt lat="46.23972" lon="6.19808">
        <ele>458.39</ele>
        <time>2022-01-29T14:41:13Z</time>
      </trkpt>
      <trkpt lat="46.23983" lon="6.1983">
        <ele>458.97</ele>
        <time>2022-01-29T14:41:19Z</time>
      </trkpt>
      <trkpt lat="46.23995" lon="6.19848">
        <ele>459.59</ele>
        <time>2022-01-29T14:41:26Z</time>
      </trkpt>
      <trkpt lat="46.24007" lon="6.1987">
        <ele>460.01</ele>
        <time>2022-01-29T14:41:32Z</time>
      </trkpt>
      <trkpt lat="46.2402" lon="6.19889">
        <ele>460.35</ele>
        <time>2022-01-29T14:41:37Z</time>
      </trkpt>
      <trkpt lat="46.24033" lon="6.1991">
        <ele>460.99</ele>
        <time>2022-01-29T14:41:45Z</time>
      </trkpt>
      <trkpt lat="46.24048" lon="6.19931">
        <ele>461.36</ele>
        <time>2022-01-29T14:41:52Z</time>
      </trkpt>
      <trkpt lat="46.24061" lon="6.19952">
        <ele>461.89</ele>
        <time>2022-01-29T14:41:58Z</time>
      </trkpt>
      <trkpt lat="46.24075" lon="6.19974">
        <ele>462.27</ele>
        <time>2022-01-29T14:42:03Z</time>
      </trkpt>
      <trkpt lat="46.24089" lon="6.19998">
        <ele>462.84</ele>
        <time>2022-01-29T14:42:08Z</time>
      </trkpt>
      <trkpt lat="46.24101" lon="6.20018">
        <ele>463.34</ele>
        <time>2022-01-29T14:42:14Z</time>
      </trkpt>
      <trkpt lat="46.24116" lon="6.20037">
        <ele>463.77</ele>
        <time>2022-01-29T14:42:20Z</time>
      </trkpt>
      <trkpt lat="46.24129" lon="6.20055">
        <ele>464.16</ele>
        <time>2022-01-29T14:42:25Z</time>
      </trkpt>
      <trkpt lat="46.24139" lon="6.20078">
        <ele>464.54</ele>
        <time>2022-01-29T14:42:30Z</time>
      </trkpt>
      <trkpt lat="46.24153" lon="6.20099">
        <ele>465.16</ele>
        <time>2022-01-29T14:42:36Z</time>
      </trkpt>
      <trkpt lat="46.24167" lon="6.20116">
        <ele>465.68</ele>
        <time>2022-01-29T14:42:42Z</time>
      </trkpt>
      <trkpt lat="46.24181" lon="6.20136">
        <ele>466.02</ele>
        <time>2022-01-29T14:42:47Z</time>
      </trkpt>
      <trkpt lat="46.24194" lon="6.20154">
        <ele>466.52</ele>
        <time>2022-01-29T14:42:51Z</time>
      </trkpt>
      <trkpt lat="46.2421" lon="6.20176">
        <ele>466.86</ele>
        <time>2022-01-29T14:42:56Z</time>
      </trkpt>
      <trkpt lat="46.24223" lon="6.20195">
        <ele>467.01</ele>
        <time>2022-01-29T14:43:01Z</time>
      </trkpt>
      <trkpt lat="46.24238" lon="6.20215">
        <ele>467.1</ele>
        <time>2022-01-29T14:43:06Z</time>
      </trkpt>
      <trkpt lat="46.24253" lon="6.20236">
        <ele>467.29</ele>
        <time>2022-01-29T14:43:11Z</time>
      </trkpt>
      <trkpt lat="46.24266" lon="6.20255">
        <ele>467.35</ele>
        <time>2022-01-29T14:43:16Z</time>
      </trkpt>
      <trkpt lat="46.24282" lon="6.20276">
        <ele>467.48</ele>
        <time>2022-01-29T14:43:22Z</time>
      </trkpt>
      <trkpt lat="46.24298" lon="6.20298">
        <ele>467.7</ele>
        <time>2022-01-29T14:43:27Z</time>
      </trkpt>
      <trkpt lat="46.24314" lon="6.20319">
        <ele>467.82</ele>
        <time>2022-01-29T14:43:31Z</time>
      </trkpt>
      <trkpt lat="46.24331" lon="6.20341">
        <ele>467.91</ele>
        <time>2022-01-29T14:43:35Z</time>
      </trkpt>
      <trkpt lat="46.24346" lon="6.2036">
        <ele>467.93</ele>
        <time>2022-01-29T14:43:39Z</time>
      </trkpt>
      <trkpt lat="46.2436" lon="6.20378">
        <ele>467.85</ele>
        <time>2022-01-29T14:43:43Z</time>
      </trkpt>
      <trkpt lat="46.24373" lon="6.20395">
        <ele>467.73</ele>
        <time>2022-01-29T14:43:47Z</time>
      </trkpt>
      <trkpt lat="46.24387" lon="6.20414">
        <ele>467.55</ele>
        <time>2022-01-29T14:43:51Z</time>
      </trkpt>
      <trkpt lat="46.24403" lon="6.20435">
        <ele>467.52</ele>
        <time>2022-01-29T14:43:55Z</time>
      </trkpt>
      <trkpt lat="46.24421" lon="6.20458">
        <ele>467.49</ele>
        <time>2022-01-29T14:43:59Z</time>
      </trkpt>
      <trkpt lat="46.24439" lon="6.20479">
        <ele>467.45</ele>
        <time>2022-01-29T14:44:03Z</time>
      </trkpt>
      <trkpt lat="46.24453" lon="6.20497">
        <ele>467.42</ele>
        <time>2022-01-29T14:44:07Z</time>
      </trkpt>
      <trkpt lat="46.24469" lon="6.20518">
        <ele>467.32</ele>
        <time>2022-01-29T14:44:12Z</time>
      </trkpt>
      <trkpt lat="46.24484" lon="6.20536">
        <ele>467.31</ele>
        <time>2022-01-29T14:44:16Z</time>
      </trkpt>
      <trkpt lat="46.24498" lon="6.20555">
        <ele>467.43</ele>
        <time>2022-01-29T14:44:20Z</time>
      </trkpt>
      <trkpt lat="46.24512" lon="6.20577">
        <ele>467.57</ele>
        <time>2022-01-29T14:44:24Z</time>
      </trkpt>
      <trkpt lat="46.24522" lon="6.20604">
        <ele>467.55</ele>
        <time>2022-01-29T14:44:29Z</time>
      </trkpt>
      <trkpt lat="46.24525" lon="6.20633">
        <ele>467.41</ele>
        <time>2022-01-29T14:44:35Z</time>
      </trkpt>
      <trkpt lat="46.24538" lon="6.2065">
        <ele>467.56</ele>
        <time>2022-01-29T14:44:40Z</time>
      </trkpt>
      <trkpt lat="46.24548" lon="6.20674">
        <ele>467.62</ele>
        <time>2022-01-29T14:44:45Z</time>
      </trkpt>
      <trkpt lat="46.24555" lon="6.20703">
        <ele>467.89</ele>
        <time>2022-01-29T14:44:50Z</time>
      </trkpt>
      <trkpt lat="46.24562" lon="6.20731">
        <ele>468.22</ele>
        <time>2022-01-29T14:44:55Z</time>
      </trkpt>
      <trkpt lat="46.24568" lon="6.20758">
        <ele>468.52</ele>
        <time>2022-01-29T14:45:00Z</time>
      </trkpt>
      <trkpt lat="46.24574" lon="6.20785">
        <ele>468.67</ele>
        <time>2022-01-29T14:45:04Z</time>
      </trkpt>
      <trkpt lat="46.24581" lon="6.20814">
        <ele>468.91</ele>
        <time>2022-01-29T14:45:08Z</time>
      </trkpt>
      <trkpt lat="46.24587" lon="6.20843">
        <ele>469.24</ele>
        <time>2022-01-29T14:45:12Z</time>
      </trkpt>
      <trkpt lat="46.24594" lon="6.20871">
        <ele>469.69</ele>
        <time>2022-01-29T14:45:16Z</time>
      </trkpt>
      <trkpt lat="46.246" lon="6.209">
        <ele>470.08</ele>
        <time>2022-01-29T14:45:20Z</time>
      </trkpt>
      <trkpt lat="46.24606" lon="6.20927">
        <ele>470.49</ele>
        <time>2022-01-29T14:45:24Z</time>
      </trkpt>
      <trkpt lat="46.24612" lon="6.20955">
        <ele>470.9</ele>
        <time>2022-01-29T14:45:28Z</time>
      </trkpt>
      <trkpt lat="46.24618" lon="6.20981">
        <ele>471.22</ele>
        <time>2022-01-29T14:45:32Z</time>
      </trkpt>
      <trkpt lat="46.24624" lon="6.21007">
        <ele>471.67</ele>
        <time>2022-01-29T14:45:36Z</time>
      </trkpt>
      <trkpt lat="46.2463" lon="6.21033">
        <ele>472.01</ele>
        <time>2022-01-29T14:45:40Z</time>
      </trkpt>
      <trkpt lat="46.24635" lon="6.21058">
        <ele>472.38</ele>
        <time>2022-01-29T14:45:44Z</time>
      </trkpt>
      <trkpt lat="46.24642" lon="6.21085">
        <ele>472.79</ele>
        <time>2022-01-29T14:45:48Z</time>
      </trkpt>
      <trkpt lat="46.24649" lon="6.21114">
        <ele>473.38</ele>
        <time>2022-01-29T14:45:53Z</time>
      </trkpt>
      <trkpt lat="46.24656" lon="6.21143">
        <ele>473.83</ele>
        <time>2022-01-29T14:45:58Z</time>
      </trkpt>
      <trkpt lat="46.24662" lon="6.21173">
        <ele>474.34</ele>
        <time>2022-01-29T14:46:03Z</time>
      </trkpt>
      <trkpt lat="46.24667" lon="6.21198">
        <ele>474.75</ele>
        <time>2022-01-29T14:46:07Z</time>
      </trkpt>
      <trkpt lat="46.24673" lon="6.21226">
        <ele>475.31</ele>
        <time>2022-01-29T14:46:12Z</time>
      </trkpt>
      <trkpt lat="46.24678" lon="6.21253">
        <ele>476.01</ele>
        <time>2022-01-29T14:46:17Z</time>
      </trkpt>
      <trkpt lat="46.24686" lon="6.21281">
        <ele>476.57</ele>
        <time>2022-01-29T14:46:22Z</time>
      </trkpt>
      <trkpt lat="46.24692" lon="6.21307">
        <ele>476.87</ele>
        <time>2022-01-29T14:46:26Z</time>
      </trkpt>
      <trkpt lat="46.24698" lon="6.21331">
        <ele>477.42</ele>
        <time>2022-01-29T14:46:30Z</time>
      </trkpt>
      <trkpt lat="46.24704" lon="6.2136">
        <ele>477.96</ele>
        <time>2022-01-29T14:46:35Z</time>
      </trkpt>
      <trkpt lat="46.24709" lon="6.2139">
        <ele>478.17</ele>
        <time>2022-01-29T14:46:39Z</time>
      </trkpt>
      <trkpt lat="46.24715" lon="6.21423">
        <ele>478.48</ele>
        <time>2022-01-29T14:46:43Z</time>
      </trkpt>
      <trkpt lat="46.24723" lon="6.21454">
        <ele>479.02</ele>
        <time>2022-01-29T14:46:47Z</time>
      </trkpt>
      <trkpt lat="46.24731" lon="6.2148">
        <ele>479.56</ele>
        <time>2022-01-29T14:46:51Z</time>
      </trkpt>
      <trkpt lat="46.24737" lon="6.21505">
        <ele>479.72</ele>
        <time>2022-01-29T14:46:56Z</time>
      </trkpt>
      <trkpt lat="46.24745" lon="6.2153">
        <ele>479.85</ele>
        <time>2022-01-29T14:47:01Z</time>
      </trkpt>
      <trkpt lat="46.24754" lon="6.21553">
        <ele>480.09</ele>
        <time>2022-01-29T14:47:05Z</time>
      </trkpt>
      <trkpt lat="46.24763" lon="6.2158">
        <ele>480.41</ele>
        <time>2022-01-29T14:47:09Z</time>
      </trkpt>
      <trkpt lat="46.24775" lon="6.21609">
        <ele>480.69</ele>
        <time>2022-01-29T14:47:13Z</time>
      </trkpt>
      <trkpt lat="46.24785" lon="6.21632">
        <ele>480.85</ele>
        <time>2022-01-29T14:47:16Z</time>
      </trkpt>
      <trkpt lat="46.24797" lon="6.21656">
        <ele>480.92</ele>
        <time>2022-01-29T14:47:20Z</time>
      </trkpt>
      <trkpt lat="46.24808" lon="6.21681">
        <ele>481.09</ele>
        <time>2022-01-29T14:47:25Z</time>
      </trkpt>
      <trkpt lat="46.24816" lon="6.21708">
        <ele>481.11</ele>
        <time>2022-01-29T14:47:30Z</time>
      </trkpt>
      <trkpt lat="46.24833" lon="6.21722">
        <ele>481.31</ele>
        <time>2022-01-29T14:47:34Z</time>
      </trkpt>
      <trkpt lat="46.2485" lon="6.2174">
        <ele>481.86</ele>
        <time>2022-01-29T14:47:38Z</time>
      </trkpt>
      <trkpt lat="46.24867" lon="6.21763">
        <ele>482.18</ele>
        <time>2022-01-29T14:47:42Z</time>
      </trkpt>
      <trkpt lat="46.24884" lon="6.21786">
        <ele>482.58</ele>
        <time>2022-01-29T14:47:46Z</time>
      </trkpt>
      <trkpt lat="46.24899" lon="6.21803">
        <ele>483.17</ele>
        <time>2022-01-29T14:47:50Z</time>
      </trkpt>
      <trkpt lat="46.24915" lon="6.21819">
        <ele>483.51</ele>
        <time>2022-01-29T14:47:55Z</time>
      </trkpt>
      <trkpt lat="46.24931" lon="6.21833">
        <ele>483.62</ele>
        <time>2022-01-29T14:47:59Z</time>
      </trkpt>
      <trkpt lat="46.24949" lon="6.21852">
        <ele>483.71</ele>
        <time>2022-01-29T14:48:03Z</time>
      </trkpt>
      <trkpt lat="46.24965" lon="6.21868">
        <ele>483.76</ele>
        <time>2022-01-29T14:48:06Z</time>
      </trkpt>
      <trkpt lat="46.24981" lon="6.21883">
        <ele>483.79</ele>
        <time>2022-01-29T14:48:09Z</time>
      </trkpt>
      <trkpt lat="46.24998" lon="6.21899">
        <ele>483.79</ele>
        <time>2022-01-29T14:48:12Z</time>
      </trkpt>
      <trkpt lat="46.25015" lon="6.21916">
        <ele>483.69</ele>
        <time>2022-01-29T14:48:15Z</time>
      </trkpt>
      <trkpt lat="46.25032" lon="6.21932">
        <ele>483.31</ele>
        <time>2022-01-29T14:48:18Z</time>
      </trkpt>
      <trkpt lat="46.25049" lon="6.21948">
        <ele>482.79</ele>
        <time>2022-01-29T14:48:21Z</time>
      </trkpt>
      <trkpt lat="46.25066" lon="6.21963">
        <ele>482.3</ele>
        <time>2022-01-29T14:48:24Z</time>
      </trkpt>
      <trkpt lat="46.25086" lon="6.2198">
        <ele>481.69</ele>
        <time>2022-01-29T14:48:28Z</time>
      </trkpt>
      <trkpt lat="46.25106" lon="6.21995">
        <ele>481.39</ele>
        <time>2022-01-29T14:48:32Z</time>
      </trkpt>
      <trkpt lat="46.25125" lon="6.2201">
        <ele>481.35</ele>
        <time>2022-01-29T14:48:36Z</time>
      </trkpt>
      <trkpt lat="46.25145" lon="6.22028">
        <ele>481.51</ele>
        <time>2022-01-29T14:48:40Z</time>
      </trkpt>
      <trkpt lat="46.25161" lon="6.2204">
        <ele>482.06</ele>
        <time>2022-01-29T14:48:43Z</time>
      </trkpt>
      <trkpt lat="46.25177" lon="6.22053">
        <ele>482.06</ele>
        <time>2022-01-29T14:48:46Z</time>
      </trkpt>
      <trkpt lat="46.25195" lon="6.22066">
        <ele>482.06</ele>
        <time>2022-01-29T14:48:49Z</time>
      </trkpt>
      <trkpt lat="46.25212" lon="6.2208">
        <ele>482.06</ele>
        <time>2022-01-29T14:48:52Z</time>
      </trkpt>
      <trkpt lat="46.25228" lon="6.22094">
        <ele>482.06</ele>
        <time>2022-01-29T14:48:55Z</time>
      </trkpt>
      <trkpt lat="46.25249" lon="6.2211">
        <ele>482.06</ele>
        <time>2022-01-29T14:48:59Z</time>
      </trkpt>
      <trkpt lat="46.25268" lon="6.22125">
        <ele>482.06</ele>
        <time>2022-01-29T14:49:03Z</time>
      </trkpt>
      <trkpt lat="46.25288" lon="6.22141">
        <ele>482.06</ele>
        <time>2022-01-29T14:49:07Z</time>
      </trkpt>
      <trkpt lat="46.25304" lon="6.22156">
        <ele>482.06</ele>
        <time>2022-01-29T14:49:10Z</time>
      </trkpt>
      <trkpt lat="46.2532" lon="6.22171">
        <ele>482.06</ele>
        <time>2022-01-29T14:49:13Z</time>
      </trkpt>
      <trkpt lat="46.2534" lon="6.22188">
        <ele>482.06</ele>
        <time>2022-01-29T14:49:17Z</time>
      </trkpt>
      <trkpt lat="46.25356" lon="6.22201">
        <ele>482.06</ele>
        <time>2022-01-29T14:49:20Z</time>
      </trkpt>
      <trkpt lat="46.25372" lon="6.22214">
        <ele>482.06</ele>
        <time>2022-01-29T14:49:23Z</time>
      </trkpt>
      <trkpt lat="46.25391" lon="6.2223">
        <ele>482.06</ele>
        <time>2022-01-29T14:49:27Z</time>
      </trkpt>
      <trkpt lat="46.25409" lon="6.22244">
        <ele>482.06</ele>
        <time>2022-01-29T14:49:31Z</time>
      </trkpt>
      <trkpt lat="46.25428" lon="6.2226">
        <ele>482.06</ele>
        <time>2022-01-29T14:49:35Z</time>
      </trkpt>
      <trkpt lat="46.25444" lon="6.22273">
        <ele>482.06</ele>
        <time>2022-01-29T14:49:38Z</time>
      </trkpt>
      <trkpt lat="46.25464" lon="6.22289">
        <ele>482.06</ele>
        <time>2022-01-29T14:49:42Z</time>
      </trkpt>
      <trkpt lat="46.25482" lon="6.22304">
        <ele>482.06</ele>
        <time>2022-01-29T14:49:46Z</time>
      </trkpt>
      <trkpt lat="46.25497" lon="6.22317">
        <ele>482.06</ele>
        <time>2022-01-29T14:49:50Z</time>
      </trkpt>
      <trkpt lat="46.25515" lon="6.22336">
        <ele>482.06</ele>
        <time>2022-01-29T14:49:55Z</time>
      </trkpt>
      <trkpt lat="46.25534" lon="6.22358">
        <ele>482.06</ele>
        <time>2022-01-29T14:49:59Z</time>
      </trkpt>
      <trkpt lat="46.2555" lon="6.22375">
        <ele>482.06</ele>
        <time>2022-01-29T14:50:02Z</time>
      </trkpt>
      <trkpt lat="46.25565" lon="6.22394">
        <ele>482.06</ele>
        <time>2022-01-29T14:50:05Z</time>
      </trkpt>
      <trkpt lat="46.25581" lon="6.22411">
        <ele>482.06</ele>
        <time>2022-01-29T14:50:08Z</time>
      </trkpt>
      <trkpt lat="46.25597" lon="6.22428">
        <ele>482.06</ele>
        <time>2022-01-29T14:50:11Z</time>
      </trkpt>
      <trkpt lat="46.25612" lon="6.22445">
        <ele>482.06</ele>
        <time>2022-01-29T14:50:14Z</time>
      </trkpt>
      <trkpt lat="46.25626" lon="6.22461">
        <ele>482.06</ele>
        <time>2022-01-29T14:50:17Z</time>
      </trkpt>
      <trkpt lat="46.25644" lon="6.22482">
        <ele>482.06</ele>
        <time>2022-01-29T14:50:21Z</time>
      </trkpt>
      <trkpt lat="46.25659" lon="6.22498">
        <ele>482.06</ele>
        <time>2022-01-29T14:50:24Z</time>
      </trkpt>
      <trkpt lat="46.25674" lon="6.22515">
        <ele>482.06</ele>
        <time>2022-01-29T14:50:27Z</time>
      </trkpt>
      <trkpt lat="46.2569" lon="6.22533">
        <ele>482.06</ele>
        <time>2022-01-29T14:50:30Z</time>
      </trkpt>
      <trkpt lat="46.25705" lon="6.2255">
        <ele>482.06</ele>
        <time>2022-01-29T14:50:33Z</time>
      </trkpt>
      <trkpt lat="46.25723" lon="6.22571">
        <ele>482.06</ele>
        <time>2022-01-29T14:50:37Z</time>
      </trkpt>
      <trkpt lat="46.25739" lon="6.22588">
        <ele>482.06</ele>
        <time>2022-01-29T14:50:41Z</time>
      </trkpt>
      <trkpt lat="46.25755" lon="6.22606">
        <ele>478.76</ele>
        <time>2022-01-29T14:50:45Z</time>
      </trkpt>
      <trkpt lat="46.25773" lon="6.22625">
        <ele>478.61</ele>
        <time>2022-01-29T14:50:49Z</time>
      </trkpt>
      <trkpt lat="46.25792" lon="6.22645">
        <ele>478.67</ele>
        <time>2022-01-29T14:50:53Z</time>
      </trkpt>
      <trkpt lat="46.25807" lon="6.22662">
        <ele>478.79</ele>
        <time>2022-01-29T14:50:56Z</time>
      </trkpt>
      <trkpt lat="46.25822" lon="6.22678">
        <ele>478.9</ele>
        <time>2022-01-29T14:50:59Z</time>
      </trkpt>
      <trkpt lat="46.25836" lon="6.22695">
        <ele>479.01</ele>
        <time>2022-01-29T14:51:02Z</time>
      </trkpt>
      <trkpt lat="46.2585" lon="6.22712">
        <ele>479.28</ele>
        <time>2022-01-29T14:51:05Z</time>
      </trkpt>
      <trkpt lat="46.25865" lon="6.22727">
        <ele>479.56</ele>
        <time>2022-01-29T14:51:08Z</time>
      </trkpt>
      <trkpt lat="46.25879" lon="6.22744">
        <ele>479.82</ele>
        <time>2022-01-29T14:51:11Z</time>
      </trkpt>
      <trkpt lat="46.25895" lon="6.22764">
        <ele>480.06</ele>
        <time>2022-01-29T14:51:15Z</time>
      </trkpt>
      <trkpt lat="46.2591" lon="6.2278">
        <ele>480.37</ele>
        <time>2022-01-29T14:51:29Z</time>
      </trkpt>
      <trkpt lat="46.25926" lon="6.22797">
        <ele>480.35</ele>
        <time>2022-01-29T14:51:35Z</time>
      </trkpt>
      <trkpt lat="46.25942" lon="6.22816">
        <ele>480.6</ele>
        <time>2022-01-29T14:51:39Z</time>
      </trkpt>
      <trkpt lat="46.25958" lon="6.22834">
        <ele>480.84</ele>
        <time>2022-01-29T14:51:43Z</time>
      </trkpt>
      <trkpt lat="46.25973" lon="6.22849">
        <ele>480.8</ele>
        <time>2022-01-29T14:51:47Z</time>
      </trkpt>
      <trkpt lat="46.25989" lon="6.22864">
        <ele>480.68</ele>
        <time>2022-01-29T14:51:51Z</time>
      </trkpt>
      <trkpt lat="46.26003" lon="6.22881">
        <ele>480.66</ele>
        <time>2022-01-29T14:51:54Z</time>
      </trkpt>
      <trkpt lat="46.26019" lon="6.22899">
        <ele>480.67</ele>
        <time>2022-01-29T14:51:57Z</time>
      </trkpt>
      <trkpt lat="46.26035" lon="6.22917">
        <ele>480.58</ele>
        <time>2022-01-29T14:52:00Z</time>
      </trkpt>
      <trkpt lat="46.26051" lon="6.22935">
        <ele>480.16</ele>
        <time>2022-01-29T14:52:03Z</time>
      </trkpt>
      <trkpt lat="46.26067" lon="6.22954">
        <ele>479.48</ele>
        <time>2022-01-29T14:52:06Z</time>
      </trkpt>
      <trkpt lat="46.26083" lon="6.22971">
        <ele>478.86</ele>
        <time>2022-01-29T14:52:09Z</time>
      </trkpt>
      <trkpt lat="46.26098" lon="6.22987">
        <ele>478.36</ele>
        <time>2022-01-29T14:52:12Z</time>
      </trkpt>
      <trkpt lat="46.26116" lon="6.23009">
        <ele>477.81</ele>
        <time>2022-01-29T14:52:16Z</time>
      </trkpt>
      <trkpt lat="46.26134" lon="6.23028">
        <ele>477.32</ele>
        <time>2022-01-29T14:52:20Z</time>
      </trkpt>
      <trkpt lat="46.26148" lon="6.23045">
        <ele>476.97</ele>
        <time>2022-01-29T14:52:24Z</time>
      </trkpt>
      <trkpt lat="46.26162" lon="6.23065">
        <ele>476.51</ele>
        <time>2022-01-29T14:52:30Z</time>
      </trkpt>
      <trkpt lat="46.26177" lon="6.23083">
        <ele>476.02</ele>
        <time>2022-01-29T14:52:39Z</time>
      </trkpt>
      <trkpt lat="46.26188" lon="6.23105">
        <ele>475.7</ele>
        <time>2022-01-29T14:52:47Z</time>
      </trkpt>
      <trkpt lat="46.26182" lon="6.2313">
        <ele>475.1</ele>
        <time>2022-01-29T14:52:51Z</time>
      </trkpt>
      <trkpt lat="46.26169" lon="6.23157">
        <ele>474.17</ele>
        <time>2022-01-29T14:52:55Z</time>
      </trkpt>
      <trkpt lat="46.26157" lon="6.2318">
        <ele>473.49</ele>
        <time>2022-01-29T14:52:59Z</time>
      </trkpt>
      <trkpt lat="46.26145" lon="6.23203">
        <ele>473.06</ele>
        <time>2022-01-29T14:53:04Z</time>
      </trkpt>
      <trkpt lat="46.26133" lon="6.23224">
        <ele>472.93</ele>
        <time>2022-01-29T14:53:10Z</time>
      </trkpt>
      <trkpt lat="46.2612" lon="6.23247">
        <ele>472.83</ele>
        <time>2022-01-29T14:53:16Z</time>
      </trkpt>
      <trkpt lat="46.26107" lon="6.23268">
        <ele>472.88</ele>
        <time>2022-01-29T14:53:20Z</time>
      </trkpt>
      <trkpt lat="46.26093" lon="6.23293">
        <ele>473.11</ele>
        <time>2022-01-29T14:53:24Z</time>
      </trkpt>
      <trkpt lat="46.26079" lon="6.23319">
        <ele>473.4</ele>
        <time>2022-01-29T14:53:28Z</time>
      </trkpt>
      <trkpt lat="46.26065" lon="6.23349">
        <ele>473.56</ele>
        <time>2022-01-29T14:53:32Z</time>
      </trkpt>
      <trkpt lat="46.26055" lon="6.23377">
        <ele>473.68</ele>
        <time>2022-01-29T14:53:36Z</time>
      </trkpt>
      <trkpt lat="46.26049" lon="6.23404">
        <ele>473.81</ele>
        <time>2022-01-29T14:53:41Z</time>
      </trkpt>
      <trkpt lat="46.26046" lon="6.23434">
        <ele>473.82</ele>
        <time>2022-01-29T14:53:46Z</time>
      </trkpt>
      <trkpt lat="46.26044" lon="6.23462">
        <ele>473.88</ele>
        <time>2022-01-29T14:53:50Z</time>
      </trkpt>
      <trkpt lat="46.26044" lon="6.23493">
        <ele>473.99</ele>
        <time>2022-01-29T14:53:55Z</time>
      </trkpt>
      <trkpt lat="46.26045" lon="6.23519">
        <ele>473.84</ele>
        <time>2022-01-29T14:54:02Z</time>
      </trkpt>
      <trkpt lat="46.26046" lon="6.23552">
        <ele>473.66</ele>
        <time>2022-01-29T14:54:08Z</time>
      </trkpt>
      <trkpt lat="46.2605" lon="6.23585">
        <ele>473.64</ele>
        <time>2022-01-29T14:54:12Z</time>
      </trkpt>
      <trkpt lat="46.26051" lon="6.23613">
        <ele>473.83</ele>
        <time>2022-01-29T14:54:15Z</time>
      </trkpt>
      <trkpt lat="46.26052" lon="6.23647">
        <ele>473.98</ele>
        <time>2022-01-29T14:54:19Z</time>
      </trkpt>
      <trkpt lat="46.26053" lon="6.23673">
        <ele>474.05</ele>
        <time>2022-01-29T14:54:23Z</time>
      </trkpt>
      <trkpt lat="46.26052" lon="6.237">
        <ele>474</ele>
        <time>2022-01-29T14:54:29Z</time>
      </trkpt>
      <trkpt lat="46.2605" lon="6.23726">
        <ele>473.98</ele>
        <time>2022-01-29T14:54:35Z</time>
      </trkpt>
      <trkpt lat="46.26049" lon="6.23757">
        <ele>474.14</ele>
        <time>2022-01-29T14:54:40Z</time>
      </trkpt>
      <trkpt lat="46.26046" lon="6.23784">
        <ele>474.27</ele>
        <time>2022-01-29T14:54:44Z</time>
      </trkpt>
      <trkpt lat="46.26043" lon="6.23813">
        <ele>474.16</ele>
        <time>2022-01-29T14:54:49Z</time>
      </trkpt>
      <trkpt lat="46.26036" lon="6.23842">
        <ele>474.16</ele>
        <time>2022-01-29T14:54:54Z</time>
      </trkpt>
      <trkpt lat="46.26028" lon="6.23869">
        <ele>474.16</ele>
        <time>2022-01-29T14:54:58Z</time>
      </trkpt>
      <trkpt lat="46.26019" lon="6.23895">
        <ele>474.16</ele>
        <time>2022-01-29T14:55:02Z</time>
      </trkpt>
      <trkpt lat="46.2601" lon="6.23919">
        <ele>474.16</ele>
        <time>2022-01-29T14:55:07Z</time>
      </trkpt>
      <trkpt lat="46.26003" lon="6.23945">
        <ele>474.16</ele>
        <time>2022-01-29T14:55:13Z</time>
      </trkpt>
      <trkpt lat="46.25996" lon="6.2397">
        <ele>474.16</ele>
        <time>2022-01-29T14:55:17Z</time>
      </trkpt>
      <trkpt lat="46.25988" lon="6.24002">
        <ele>474.16</ele>
        <time>2022-01-29T14:55:21Z</time>
      </trkpt>
      <trkpt lat="46.25982" lon="6.24033">
        <ele>474.16</ele>
        <time>2022-01-29T14:55:25Z</time>
      </trkpt>
      <trkpt lat="46.25976" lon="6.24061">
        <ele>474.16</ele>
        <time>2022-01-29T14:55:30Z</time>
      </trkpt>
      <trkpt lat="46.2597" lon="6.24087">
        <ele>474.16</ele>
        <time>2022-01-29T14:55:36Z</time>
      </trkpt>
      <trkpt lat="46.25965" lon="6.24117">
        <ele>474.16</ele>
        <time>2022-01-29T14:55:41Z</time>
      </trkpt>
      <trkpt lat="46.25962" lon="6.24149">
        <ele>474.16</ele>
        <time>2022-01-29T14:55:45Z</time>
      </trkpt>
      <trkpt lat="46.25962" lon="6.2418">
        <ele>474.16</ele>
        <time>2022-01-29T14:55:49Z</time>
      </trkpt>
      <trkpt lat="46.25964" lon="6.24209">
        <ele>474.16</ele>
        <time>2022-01-29T14:55:54Z</time>
      </trkpt>
      <trkpt lat="46.25967" lon="6.24236">
        <ele>474.16</ele>
        <time>2022-01-29T14:56:01Z</time>
      </trkpt>
      <trkpt lat="46.25971" lon="6.24267">
        <ele>474.16</ele>
        <time>2022-01-29T14:56:06Z</time>
      </trkpt>
      <trkpt lat="46.25975" lon="6.24293">
        <ele>474.16</ele>
        <time>2022-01-29T14:56:11Z</time>
      </trkpt>
      <trkpt lat="46.25982" lon="6.24318">
        <ele>474.16</ele>
        <time>2022-01-29T14:56:20Z</time>
      </trkpt>
      <trkpt lat="46.25989" lon="6.24347">
        <ele>474.16</ele>
        <time>2022-01-29T14:56:26Z</time>
      </trkpt>
      <trkpt lat="46.25998" lon="6.24373">
        <ele>474.16</ele>
        <time>2022-01-29T14:56:30Z</time>
      </trkpt>
      <trkpt lat="46.26005" lon="6.24397">
        <ele>474.16</ele>
        <time>2022-01-29T14:56:34Z</time>
      </trkpt>
      <trkpt lat="46.26016" lon="6.24423">
        <ele>474.16</ele>
        <time>2022-01-29T14:56:40Z</time>
      </trkpt>
      <trkpt lat="46.26028" lon="6.24447">
        <ele>474.16</ele>
        <time>2022-01-29T14:56:45Z</time>
      </trkpt>
      <trkpt lat="46.26043" lon="6.24467">
        <ele>474.16</ele>
        <time>2022-01-29T14:56:49Z</time>
      </trkpt>
      <trkpt lat="46.26056" lon="6.24486">
        <ele>474.16</ele>
        <time>2022-01-29T14:56:53Z</time>
      </trkpt>
      <trkpt lat="46.26069" lon="6.24509">
        <ele>474.16</ele>
        <time>2022-01-29T14:56:58Z</time>
      </trkpt>
      <trkpt lat="46.2608" lon="6.24535">
        <ele>474.16</ele>
        <time>2022-01-29T14:57:02Z</time>
      </trkpt>
      <trkpt lat="46.26088" lon="6.24559">
        <ele>474.16</ele>
        <time>2022-01-29T14:57:05Z</time>
      </trkpt>
      <trkpt lat="46.26097" lon="6.2459">
        <ele>474.16</ele>
        <time>2022-01-29T14:57:09Z</time>
      </trkpt>
      <trkpt lat="46.26106" lon="6.24615">
        <ele>474.16</ele>
        <time>2022-01-29T14:57:13Z</time>
      </trkpt>
      <trkpt lat="46.26119" lon="6.24638">
        <ele>474.16</ele>
        <time>2022-01-29T14:57:18Z</time>
      </trkpt>
      <trkpt lat="46.26132" lon="6.2466">
        <ele>474.16</ele>
        <time>2022-01-29T14:57:23Z</time>
      </trkpt>
      <trkpt lat="46.26147" lon="6.24683">
        <ele>474.16</ele>
        <time>2022-01-29T14:57:28Z</time>
      </trkpt>
      <trkpt lat="46.26155" lon="6.2471">
        <ele>474.16</ele>
        <time>2022-01-29T14:57:34Z</time>
      </trkpt>
      <trkpt lat="46.26151" lon="6.24743">
        <ele>474.16</ele>
        <time>2022-01-29T14:57:39Z</time>
      </trkpt>
      <trkpt lat="46.26147" lon="6.2477">
        <ele>474.16</ele>
        <time>2022-01-29T14:57:43Z</time>
      </trkpt>
      <trkpt lat="46.26157" lon="6.24796">
        <ele>474.16</ele>
        <time>2022-01-29T14:57:48Z</time>
      </trkpt>
      <trkpt lat="46.26172" lon="6.24819">
        <ele>474.16</ele>
        <time>2022-01-29T14:57:53Z</time>
      </trkpt>
      <trkpt lat="46.26188" lon="6.24842">
        <ele>474.16</ele>
        <time>2022-01-29T14:57:57Z</time>
      </trkpt>
      <trkpt lat="46.26201" lon="6.24861">
        <ele>474.16</ele>
        <time>2022-01-29T14:58:00Z</time>
      </trkpt>
      <trkpt lat="46.26217" lon="6.24885">
        <ele>474.16</ele>
        <time>2022-01-29T14:58:04Z</time>
      </trkpt>
      <trkpt lat="46.26231" lon="6.24907">
        <ele>474.16</ele>
        <time>2022-01-29T14:58:09Z</time>
      </trkpt>
      <trkpt lat="46.26244" lon="6.24928">
        <ele>474.16</ele>
        <time>2022-01-29T14:58:14Z</time>
      </trkpt>
      <trkpt lat="46.26255" lon="6.24954">
        <ele>474.16</ele>
        <time>2022-01-29T14:58:19Z</time>
      </trkpt>
      <trkpt lat="46.26266" lon="6.24982">
        <ele>474.16</ele>
        <time>2022-01-29T14:58:24Z</time>
      </trkpt>
      <trkpt lat="46.26281" lon="6.25001">
        <ele>474.16</ele>
        <time>2022-01-29T14:58:28Z</time>
      </trkpt>
      <trkpt lat="46.26297" lon="6.25018">
        <ele>474.16</ele>
        <time>2022-01-29T14:58:32Z</time>
      </trkpt>
      <trkpt lat="46.26311" lon="6.25035">
        <ele>474.16</ele>
        <time>2022-01-29T14:58:37Z</time>
      </trkpt>
      <trkpt lat="46.26328" lon="6.25054">
        <ele>474.16</ele>
        <time>2022-01-29T14:58:43Z</time>
      </trkpt>
      <trkpt lat="46.26343" lon="6.25069">
        <ele>474.16</ele>
        <time>2022-01-29T14:58:47Z</time>
      </trkpt>
      <trkpt lat="46.26358" lon="6.25088">
        <ele>477.66</ele>
        <time>2022-01-29T14:58:52Z</time>
      </trkpt>
      <trkpt lat="46.2637" lon="6.25108">
        <ele>477.26</ele>
        <time>2022-01-29T14:58:57Z</time>
      </trkpt>
      <trkpt lat="46.26385" lon="6.2513">
        <ele>477.24</ele>
        <time>2022-01-29T14:59:01Z</time>
      </trkpt>
      <trkpt lat="46.26398" lon="6.25151">
        <ele>477.3</ele>
        <time>2022-01-29T14:59:04Z</time>
      </trkpt>
      <trkpt lat="46.26409" lon="6.25175">
        <ele>477.42</ele>
        <time>2022-01-29T14:59:07Z</time>
      </trkpt>
      <trkpt lat="46.26422" lon="6.25203">
        <ele>477.41</ele>
        <time>2022-01-29T14:59:11Z</time>
      </trkpt>
      <trkpt lat="46.26434" lon="6.25223">
        <ele>477.36</ele>
        <time>2022-01-29T14:59:15Z</time>
      </trkpt>
      <trkpt lat="46.26449" lon="6.25235">
        <ele>477.26</ele>
        <time>2022-01-29T14:59:20Z</time>
      </trkpt>
      <trkpt lat="46.26468" lon="6.25251">
        <ele>477.37</ele>
        <time>2022-01-29T14:59:25Z</time>
      </trkpt>
      <trkpt lat="46.26487" lon="6.25262">
        <ele>477.47</ele>
        <time>2022-01-29T14:59:29Z</time>
      </trkpt>
      <trkpt lat="46.26506" lon="6.25266">
        <ele>477.58</ele>
        <time>2022-01-29T14:59:32Z</time>
      </trkpt>
      <trkpt lat="46.2653" lon="6.25269">
        <ele>477.68</ele>
        <time>2022-01-29T14:59:36Z</time>
      </trkpt>
      <trkpt lat="46.26549" lon="6.25278">
        <ele>477.41</ele>
        <time>2022-01-29T14:59:40Z</time>
      </trkpt>
      <trkpt lat="46.26568" lon="6.25294">
        <ele>477.08</ele>
        <time>2022-01-29T14:59:45Z</time>
      </trkpt>
      <trkpt lat="46.26585" lon="6.25308">
        <ele>477.08</ele>
        <time>2022-01-29T14:59:49Z</time>
      </trkpt>
      <trkpt lat="46.26605" lon="6.25326">
        <ele>477.47</ele>
        <time>2022-01-29T14:59:53Z</time>
      </trkpt>
      <trkpt lat="46.26621" lon="6.2534">
        <ele>477.47</ele>
        <time>2022-01-29T14:59:56Z</time>
      </trkpt>
      <trkpt lat="46.26638" lon="6.25356">
        <ele>477.47</ele>
        <time>2022-01-29T15:00:00Z</time>
      </trkpt>
      <trkpt lat="46.26655" lon="6.25369">
        <ele>477.47</ele>
        <time>2022-01-29T15:00:05Z</time>
      </trkpt>
      <trkpt lat="46.26672" lon="6.25385">
        <ele>477.47</ele>
        <time>2022-01-29T15:00:10Z</time>
      </trkpt>
      <trkpt lat="46.26691" lon="6.25401">
        <ele>477.47</ele>
        <time>2022-01-29T15:00:14Z</time>
      </trkpt>
      <trkpt lat="46.26709" lon="6.25417">
        <ele>477.47</ele>
        <time>2022-01-29T15:00:18Z</time>
      </trkpt>
      <trkpt lat="46.26726" lon="6.25435">
        <ele>477.47</ele>
        <time>2022-01-29T15:00:22Z</time>
      </trkpt>
      <trkpt lat="46.2674" lon="6.25459">
        <ele>477.47</ele>
        <time>2022-01-29T15:00:26Z</time>
      </trkpt>
      <trkpt lat="46.26752" lon="6.25483">
        <ele>477.47</ele>
        <time>2022-01-29T15:00:30Z</time>
      </trkpt>
      <trkpt lat="46.26763" lon="6.25505">
        <ele>477.47</ele>
        <time>2022-01-29T15:00:34Z</time>
      </trkpt>
      <trkpt lat="46.26777" lon="6.2553">
        <ele>477.47</ele>
        <time>2022-01-29T15:00:39Z</time>
      </trkpt>
      <trkpt lat="46.26792" lon="6.25547">
        <ele>477.47</ele>
        <time>2022-01-29T15:00:43Z</time>
      </trkpt>
      <trkpt lat="46.26812" lon="6.2556">
        <ele>477.47</ele>
        <time>2022-01-29T15:00:47Z</time>
      </trkpt>
      <trkpt lat="46.26831" lon="6.25571">
        <ele>477.47</ele>
        <time>2022-01-29T15:00:51Z</time>
      </trkpt>
      <trkpt lat="46.26841" lon="6.25594">
        <ele>474.09</ele>
        <time>2022-01-29T15:00:56Z</time>
      </trkpt>
      <trkpt lat="46.26838" lon="6.25621">
        <ele>474.06</ele>
        <time>2022-01-29T15:01:01Z</time>
      </trkpt>
      <trkpt lat="46.26828" lon="6.25645">
        <ele>473.89</ele>
        <time>2022-01-29T15:01:06Z</time>
      </trkpt>
      <trkpt lat="46.26824" lon="6.25674">
        <ele>473.84</ele>
        <time>2022-01-29T15:01:13Z</time>
      </trkpt>
      <trkpt lat="46.26828" lon="6.25701">
        <ele>473.76</ele>
        <time>2022-01-29T15:01:20Z</time>
      </trkpt>
      <trkpt lat="46.26836" lon="6.25726">
        <ele>473.74</ele>
        <time>2022-01-29T15:01:26Z</time>
      </trkpt>
      <trkpt lat="46.26839" lon="6.25751">
        <ele>474.19</ele>
        <time>2022-01-29T15:01:33Z</time>
      </trkpt>
      <trkpt lat="46.26828" lon="6.25772">
        <ele>474.71</ele>
        <time>2022-01-29T15:02:18Z</time>
      </trkpt>
      <trkpt lat="46.26826" lon="6.25778">
        <ele>474.71</ele>
        <time>2022-01-29T15:08:23Z</time>
      </trkpt>
    </trkseg>
  </trk>
</gpx>